[[{"header":{"parameterUnit":"m.s-1","parameterCategory":1,"la1":31.0,"la2":29.5877,"lo1":-88.7671,"lo2":-86.6584,"dy":0.0162,"dx":0.0185,"nx":115,"ny":88,"refTime":"2023-09-18T12:00:00:Z","depth":0,"parameterNumber":2,"parameterNumberName":"U-component_of_WINDS"},"data":[0.0,0.0,0.0,0.0,0.0,0.0,0.0,0.0,0.0,0.0,0.0,0.0,0.0,0.0,0.0,0.0,0.0,0.0,0.0,0.0,0.0,0.0,0.0,0.0,0.0,0.0,0.0,0.0,0.0,0.0,0.0,0.0,0.0,0.0,0.0,0.0,0.0,0.0,0.0,0.0,0.0,0.0,0.0,0.0,0.0,0.0,0.0,0.0,0.0,0.0,0.0,0.0,0.0,0.0,0.0,0.0,0.0,0.0,0.0,0.0,0.0,0.0,0.0,0.0,0.0,0.0,0.0,0.0,0.0,0.0,0.0,0.0,0.0,0.0,0.0,0.0,0.0,0.0,0.0,0.0,0.0,0.0,0.0,0.0,0.0,0.0,0.0,0.0,0.0,0.0,0.0,0.0,0.0,0.0,0.0,0.0,0.0,0.0,0.0,0.0,0.0,0.0,0.0,0.0,0.0,0.0,0.0,0.0,0.0,0.0,0.0,0.0,0.0,0.0,0.0,0.0,0.0,0.0,0.0,0.0,0.0,0.0,0.0,0.0,0.0,0.0,0.0,0.0,0.0,0.0,0.0,0.0,0.0,0.0,0.0,0.0,0.0,0.0,0.0,0.0,0.0,0.0,0.0,0.0,0.0,0.0,0.0,0.0,0.0,0.0,0.0,0.0,0.0,0.0,0.0,0.0,0.0,0.0,0.0,0.0,0.0,0.0,0.0,0.0,0.0,0.0,0.0,0.0,0.0,0.0,0.0,0.0,0.0,0.0,0.0,0.0,0.0,0.0,0.0,0.0,0.0,0.0,0.0,0.0,0.0,0.0,0.0,0.0,0.0,0.0,0.0,0.0,0.0,0.0,0.0,0.0,0.0,0.0,0.0,0.0,0.0,0.0,0.0,0.0,0.0,0.0,0.0,0.0,0.0,0.0,0.0,0.0,0.0,0.0,0.0,0.0,0.0,0.0,0.0,0.0,0.0,0.0,0.0,0.0,0.0,0.0,0.0,0.0,0.0,0.0,0.0,0.0,0.0,0.0,0.0,0.0,0.0,0.0,0.0,0.0,0.0,0.0,0.0,0.0,0.0,0.0,0.0,0.0,0.0,0.0,0.0,0.0,0.0,0.0,0.0,0.0,0.0,0.0,0.0,0.0,0.0,0.0,0.0,0.0,0.0,0.0,0.0,0.0,0.0,0.0,0.0,0.0,0.0,0.0,0.0,0.0,0.0,0.0,0.0,0.0,0.0,0.0,0.0,0.0,0.0,0.0,0.0,0.0,0.0,0.0,0.0,0.0,0.0,0.0,0.0,0.0,0.0,0.0,0.0,0.0,0.0,0.0,0.0,0.0,0.0,0.0,0.0,0.0,0.0,0.0,0.0,0.0,0.0,0.0,0.0,0.0,0.0,0.0,0.0,0.0,0.0,0.0,0.0,0.0,0.0,0.0,0.0,0.0,0.0,0.0,0.0,0.0,0.0,0.0,0.0,0.0,0.0,0.0,0.0,0.0,0.0,0.0,0.0,0.0,0.0,0.0,0.0,0.0,0.0,0.0,0.0,0.0,0.0,0.0,0.0,0.0,0.0,0.0,0.0,0.0,0.0,0.0,0.0,0.0,0.0,0.0,0.0,0.0,0.0,0.0,0.0,0.0,0.0,0.0,0.0,0.0,0.0,0.0,0.0,0.0,0.0,0.0,0.0,0.0,0.0,0.0,0.0,0.0,0.0,0.0,0.0,0.0,0.0,0.0,0.0,0.0,0.0,0.0,0.0,0.0,0.0,0.0,0.0,0.0,0.0,0.0,0.0,0.0,0.0,0.0,0.0,0.0,0.0,0.0,0.0,0.0,0.0,0.0,0.0,0.0,0.0,0.0,0.0,0.0,0.0,0.0,0.0,0.0,0.0,0.0,0.0,0.0,0.0,0.0,0.0,0.0,0.0,0.0,0.0,0.0,0.0,0.0,0.0,0.0,0.0,0.0,0.0,0.0,0.0,0.0,0.0,0.0,0.0,0.0,0.0,0.0,0.0,0.0,0.0,0.0,0.0,0.0,0.0,0.0,0.0,0.0,0.0,0.0,0.0,0.0,0.0,0.0,0.0,0.0,0.0,0.0,0.0,0.0,0.0,0.0,0.0,0.0,0.0,0.0,0.0,0.0,0.0,0.0,0.0,0.0,0.0,0.0,0.0,0.0,0.0,0.0,0.0,0.0,0.0,0.0,0.0,0.0,0.0,0.0,0.0,0.0,0.0,0.0,0.0,0.0,0.0,0.0,0.0,0.0,0.0,0.0,0.0,0.0,0.0,0.0,0.0,0.0,0.0,0.0,0.0,0.0,0.0,0.0,0.0,0.0,0.0,0.0,0.0,0.0,0.0,0.0,0.0,0.0,0.0,0.0,0.0,0.0,0.0,0.0,0.0,0.0,0.0,0.0,0.0,0.0,0.0,0.0,0.0,0.0,0.0,0.0,0.0,0.0,0.0,0.0,0.0,0.0,0.0,0.0,0.0,0.0,0.0,0.0,0.0,0.0,0.0,0.0,0.0,0.0,0.0,0.0,0.0,0.0,0.0,0.0,0.0,0.0,0.0,0.0,0.0,0.0,0.0,0.0,0.0,0.0,0.0,0.0,0.0,0.0,0.0,0.0,0.0,0.0,0.0,0.0,0.0,0.0,0.0,0.0,0.0,0.0,0.0,0.0,0.0,0.0,0.0,0.0,0.0,0.0,0.0,0.0,0.0,0.0,0.0,0.0,0.0,0.0,0.0,0.0,0.0,0.0,0.0,0.0,0.0,0.0,0.0,0.0,0.0,0.0,0.0,0.0,0.0,0.0,0.0,0.0,0.0,0.0,0.0,0.0,0.0,0.0,0.0,0.0,0.0,0.0,0.0,0.0,0.0,0.0,0.0,0.0,0.0,0.0,0.0,0.0,0.0,0.0,0.0,0.0,0.0,0.0,0.0,0.0,0.0,0.0,0.0,0.0,0.0,0.0,0.0,0.0,0.0,0.0,0.0,0.0,0.0,0.0,0.0,0.0,0.0,0.0,0.0,0.0,0.0,0.0,0.0,0.0,0.0,0.0,0.0,0.0,0.0,0.0,0.0,0.0,0.0,0.0,0.0,0.0,0.0,0.0,0.0,0.0,0.0,0.0,0.0,0.0,0.0,0.0,0.0,0.0,0.0,0.0,0.0,0.0,0.0,0.0,0.0,0.0,0.0,0.0,0.0,0.0,0.0,0.0,0.0,0.0,0.0,0.0,0.0,0.0,0.0,0.0,0.0,0.0,0.0,0.0,0.0,0.0,0.0,0.0,0.0,0.0,0.0,0.0,0.0,0.0,0.0,0.0,0.0,0.0,0.0,0.0,0.0,0.0,0.0,0.0,0.0,0.0,0.0,0.0,0.0,0.0,0.0,0.0,0.0,0.0,0.0,0.0,0.0,0.0,0.0,0.0,0.0,0.0,0.0,0.0,0.0,0.0,0.0,0.0,0.0,0.0,0.0,0.0,0.0,0.0,0.0,0.0,0.0,0.0,0.0,0.0,0.0,0.0,0.0,0.0,0.0,0.0,0.0,0.0,0.0,0.0,0.0,0.0,0.0,0.0,0.0,0.0,0.0,0.0,0.0,0.0,0.0,0.0,0.0,0.0,0.0,0.0,0.0,0.0,0.0,0.0,0.0,0.0,0.0,0.0,0.0,0.0,0.0,0.0,0.0,0.0,0.0,0.0,0.0,0.0,0.0,0.0,0.0,0.0,0.0,0.0,0.0,0.0,0.0,0.0,0.0,0.0,0.0,0.0,0.0,0.0,0.0,0.0,0.0,0.0,0.0,0.0,0.0,0.0,0.0,0.0,0.0,0.0,0.0,0.0,0.0,0.0,0.0,0.0,0.0,0.0,0.0,0.0,0.0,0.0,0.0,0.0,0.0,0.0,0.0,0.0,0.0,0.0,0.0,0.0,0.0,0.0,0.0,0.0,0.0,0.0,0.0,0.0,0.0,0.0,0.0,0.0,0.0,0.0,0.0,0.0,0.0,0.0,0.0,0.0,0.0,0.0,0.0,0.0,0.0,0.0,0.0,0.0,0.0,0.0,0.0,0.0,0.0,0.0,0.0,0.0,0.0,0.0,0.0,0.0,0.0,0.0,0.0,0.0,0.0,0.0,0.0,0.0,0.0,0.0,0.0,0.0,0.0,0.0,0.0,0.0,0.0,0.0,0.0,0.0,0.0,0.0,0.0,0.0,0.0,0.0,0.0,0.0,0.0,0.0,0.0,0.0,0.0,0.0,3.3457,0.0,0.0,0.0,0.0,0.0,0.0,0.0,0.0,0.0,0.0,0.0,0.0,0.0,0.0,0.0,0.0,0.0,0.0,0.0,0.0,0.0,0.0,0.0,0.0,0.0,0.0,0.0,0.0,0.0,0.0,0.0,0.0,0.0,0.0,0.0,0.0,0.0,0.0,0.0,0.0,0.0,0.0,0.0,0.0,0.0,0.0,0.0,0.0,0.0,0.0,0.0,0.0,0.0,0.0,0.0,0.0,0.0,0.0,0.0,0.0,0.0,0.0,0.0,0.0,0.0,0.0,0.0,0.0,0.0,0.0,0.0,0.0,0.0,0.0,0.0,0.0,0.0,0.0,0.0,0.0,0.0,0.0,0.0,0.0,0.0,0.0,0.0,0.0,0.0,0.0,0.0,0.0,0.0,0.0,0.0,0.0,0.0,0.0,0.0,0.0,0.0,0.0,0.0,0.0,0.0,0.0,0.0,0.0,0.0,0.0,3.5963,3.6013,3.5977,3.5156,3.3457,0.0,0.0,0.0,0.0,0.0,0.0,0.0,0.0,0.0,0.0,0.0,0.0,0.0,0.0,0.0,0.0,0.0,0.0,0.0,0.0,0.0,0.0,0.0,0.0,0.0,0.0,0.0,0.0,0.0,0.0,0.0,0.0,0.0,0.0,0.0,0.0,0.0,0.0,0.0,0.0,0.0,0.0,0.0,0.0,0.0,0.0,0.0,0.0,0.0,0.0,0.0,0.0,0.0,0.0,0.0,0.0,0.0,0.0,0.0,0.0,0.0,0.0,0.0,0.0,0.0,0.0,0.0,0.0,0.0,0.0,0.0,0.0,0.0,0.0,0.0,0.0,0.0,0.0,0.0,0.0,0.0,0.0,0.0,0.0,0.0,0.0,0.0,0.0,0.0,0.0,0.0,0.0,0.0,0.0,0.0,0.0,0.0,0.0,0.0,0.0,0.0,0.0,0.0,0.0,0.0,0.0,0.0,0.0,0.0,0.0,0.0,0.0,3.6391,3.5474,3.375,0.0,0.0,0.0,0.0,0.0,0.0,0.0,0.0,0.0,0.0,0.0,0.0,0.0,0.0,0.0,0.0,0.0,0.0,0.0,0.0,0.0,0.0,0.0,0.0,0.0,0.0,0.0,0.0,0.0,0.0,0.0,0.0,0.0,0.0,0.0,0.0,0.0,0.0,0.0,0.0,0.0,0.0,0.0,0.0,0.0,0.0,0.0,0.0,0.0,0.0,0.0,0.0,0.0,0.0,0.0,0.0,0.0,0.0,0.0,0.0,0.0,0.0,0.0,0.0,0.0,0.0,0.0,0.0,0.0,0.0,0.0,0.0,0.0,0.0,0.0,0.0,0.0,0.0,0.0,0.0,0.0,0.0,0.0,0.0,0.0,0.0,0.0,0.0,0.0,0.0,0.0,0.0,0.0,0.0,0.0,0.0,0.0,0.0,0.0,0.0,0.0,0.0,0.0,0.0,0.0,0.0,0.0,0.0,0.0,0.0,3.6684,3.8279,3.7514,0.0,3.4687,0.0,0.0,0.0,0.0,0.0,0.0,0.0,0.0,0.0,0.0,0.0,0.0,0.0,0.0,0.0,0.0,0.0,0.0,0.0,0.0,0.0,0.0,0.0,0.0,0.0,0.0,0.0,0.0,0.0,0.0,0.0,0.0,0.0,0.0,0.0,0.0,0.0,0.0,0.0,0.0,0.0,0.0,0.0,0.0,0.0,0.0,0.0,0.0,0.0,0.0,0.0,0.0,0.0,0.0,0.0,0.0,0.0,0.0,0.0,0.0,0.0,0.0,0.0,0.0,0.0,0.0,0.0,0.0,0.0,0.0,0.0,0.0,0.0,0.0,0.0,0.0,0.0,0.0,0.0,0.0,0.0,0.0,0.0,0.0,0.0,0.0,0.0,0.0,0.0,0.0,0.0,0.0,0.0,0.0,0.0,0.0,0.0,0.0,0.0,0.0,0.0,0.0,0.0,0.0,0.0,0.0,0.0,0.0,0.0,0.0,3.7608,3.7823,3.6454,3.5405,0.0,0.0,0.0,0.0,0.0,0.0,0.0,0.0,0.0,0.0,0.0,0.0,0.0,0.0,0.0,0.0,0.0,0.0,0.0,0.0,0.0,0.0,0.0,0.0,0.0,0.0,0.0,0.0,0.0,0.0,0.0,0.0,0.0,0.0,0.0,0.0,0.0,0.0,0.0,0.0,0.0,0.0,0.0,0.0,0.0,0.0,0.0,0.0,0.0,0.0,0.0,0.0,0.0,0.0,0.0,0.0,0.0,0.0,0.0,0.0,0.0,0.0,0.0,0.0,0.0,0.0,0.0,0.0,0.0,0.0,0.0,0.0,0.0,0.0,0.0,0.0,0.0,0.0,0.0,0.0,0.0,0.0,0.0,0.0,0.0,0.0,0.0,0.0,0.0,0.0,0.0,0.0,0.0,0.0,0.0,0.0,0.0,0.0,0.0,0.0,0.0,0.0,0.0,0.0,0.0,0.0,0.0,0.0,0.0,0.0,3.7851,3.7949,3.7285,3.6309,3.5234,3.4043,0.0,0.0,0.0,0.0,0.0,0.0,0.0,0.0,0.0,0.0,0.0,0.0,0.0,0.0,0.0,0.0,0.0,0.0,0.0,0.0,0.0,0.0,0.0,0.0,0.0,0.0,0.0,0.0,0.0,0.0,0.0,0.0,0.0,0.0,0.0,0.0,0.0,0.0,0.0,0.0,0.0,0.0,0.0,0.0,0.0,0.0,0.0,0.0,0.0,0.0,0.0,0.0,0.0,0.0,0.0,0.0,0.0,0.0,0.0,0.0,0.0,0.0,0.0,0.0,0.0,0.0,0.0,0.0,0.0,0.0,0.0,0.0,0.0,0.0,0.0,0.0,0.0,0.0,0.0,0.0,0.0,0.0,0.0,0.0,0.0,0.0,0.0,0.0,0.0,0.0,0.0,0.0,0.0,0.0,0.0,0.0,0.0,0.0,0.0,0.0,0.0,0.0,0.0,0.0,0.0,0.0,0.0,0.0,3.9434,3.8144,3.7344,3.7383,3.8027,3.6504,0.0,0.0,0.0,0.0,0.0,0.0,0.0,0.0,0.0,0.0,0.0,0.0,0.0,0.0,0.0,0.0,0.0,0.0,0.0,0.0,0.0,0.0,0.0,0.0,0.0,0.0,0.0,0.0,0.0,0.0,0.0,0.0,0.0,0.0,0.0,0.0,0.0,0.0,0.0,0.0,0.0,0.0,0.0,0.0,0.0,0.0,0.0,0.0,0.0,0.0,0.0,0.0,0.0,0.0,0.0,0.0,0.0,0.0,0.0,0.0,0.0,0.0,0.0,0.0,0.0,0.0,0.0,0.0,0.0,0.0,0.0,0.0,0.0,0.0,0.0,0.0,0.0,0.0,0.0,0.0,0.0,0.0,0.0,0.0,0.0,0.0,0.0,0.0,0.0,0.0,0.0,0.0,0.0,0.0,0.0,0.0,0.0,0.0,0.0,0.0,0.0,0.0,0.0,0.0,0.0,0.0,0.0,0.0,0.0,3.5664,3.6211,3.7559,3.9609,3.6894,3.4805,0.0,0.0,0.0,0.0,0.0,0.0,0.0,0.0,0.0,0.0,0.0,0.0,0.0,0.0,0.0,0.0,0.0,0.0,0.0,0.0,0.0,0.0,0.0,0.0,0.0,0.0,0.0,0.0,0.0,0.0,0.0,0.0,0.0,0.0,0.0,0.0,0.0,0.0,0.0,0.0,0.0,0.0,0.0,0.0,0.0,0.0,0.0,0.0,0.0,0.0,0.0,0.0,0.0,0.0,0.0,0.0,0.0,0.0,0.0,0.0,0.0,0.0,0.0,0.0,0.0,0.0,0.0,0.0,0.0,0.0,0.0,0.0,0.0,0.0,0.0,0.0,0.0,0.0,0.0,0.0,0.0,0.0,0.0,0.0,0.0,0.0,0.0,0.0,0.0,0.0,0.0,0.0,0.0,0.0,0.0,0.0,0.0,0.0,0.0,0.0,0.0,0.0,0.0,0.0,0.0,0.0,0.0,0.0,0.0,3.4668,0.0,3.8281,3.9297,3.6094,3.373,0.0,0.0,0.0,0.0,0.0,0.0,0.0,0.0,0.0,0.0,0.0,0.0,0.0,0.0,0.0,0.0,0.0,0.0,0.0,0.0,0.0,0.0,0.0,0.0,0.0,0.0,0.0,0.0,0.0,0.0,0.0,0.0,0.0,0.0,0.0,0.0,0.0,0.0,0.0,0.0,0.0,0.0,0.0,0.0,0.0,0.0,0.0,0.0,0.0,0.0,0.0,0.0,0.0,0.0,0.0,0.0,0.0,0.0,0.0,0.0,0.0,0.0,0.0,0.0,0.0,0.0,0.0,0.0,0.0,0.0,0.0,0.0,0.0,0.0,0.0,0.0,0.0,0.0,0.0,0.0,0.0,0.0,0.0,0.0,0.0,0.0,0.0,0.0,0.0,0.0,0.0,0.0,0.0,0.0,0.0,0.0,0.0,0.0,0.0,0.0,0.0,0.0,0.0,0.0,0.0,0.0,0.0,0.0,3.3848,3.7129,3.9609,3.9336,3.623,3.5957,3.3535,0.0,0.0,0.0,0.0,0.0,0.0,0.0,0.0,0.0,0.0,0.0,0.0,0.0,0.0,0.0,0.0,0.0,0.0,0.0,0.0,0.0,0.0,0.0,0.0,0.0,0.0,0.0,0.0,0.0,0.0,0.0,0.0,0.0,0.0,0.0,0.0,0.0,0.0,0.0,0.0,0.0,0.0,0.0,0.0,0.0,0.0,0.0,0.0,0.0,0.0,0.0,0.0,0.0,0.0,0.0,0.0,0.0,0.0,0.0,0.0,0.0,0.0,0.0,0.0,0.0,0.0,0.0,0.0,0.0,0.0,0.0,0.0,0.0,0.0,0.0,0.0,0.0,0.0,0.0,0.0,0.0,0.0,0.0,0.0,0.0,0.0,0.0,0.0,0.0,0.0,0.0,0.0,0.0,0.0,0.0,0.0,0.0,0.0,0.0,0.0,0.0,0.0,0.0,0.0,0.0,0.0,0.0,0.0,0.0,3.5488,3.6875,3.7969,3.8535,3.5234,3.2891,0.0,0.0,0.0,0.0,0.0,0.0,0.0,0.0,0.0,0.0,0.0,0.0,0.0,0.0,0.0,0.0,0.0,0.0,0.0,0.0,0.0,0.0,0.0,0.0,0.0,0.0,0.0,0.0,0.0,0.0,0.0,0.0,0.0,0.0,0.0,0.0,0.0,0.0,0.0,0.0,0.0,0.0,0.0,0.0,0.0,0.0,0.0,0.0,0.0,0.0,0.0,0.0,0.0,0.0,0.0,0.0,0.0,0.0,0.0,0.0,0.0,0.0,0.0,0.0,0.0,0.0,0.0,0.0,0.0,0.0,0.0,0.0,0.0,0.0,0.0,0.0,0.0,0.0,0.0,0.0,0.0,0.0,0.0,0.0,0.0,0.0,0.0,0.0,0.0,0.0,0.0,0.0,0.0,0.0,0.0,0.0,0.0,0.0,0.0,0.0,0.0,0.0,0.0,0.0,0.0,0.0,0.0,0.0,0.0,3.5664,3.6836,3.791,3.8867,3.5117,3.2711,3.1815,0.0,0.0,0.0,0.0,0.0,0.0,0.0,0.0,0.0,0.0,0.0,0.0,0.0,0.0,0.0,0.0,0.0,0.0,0.0,0.0,0.0,0.0,0.0,0.0,0.0,0.0,0.0,0.0,0.0,0.0,0.0,0.0,0.0,0.0,0.0,0.0,0.0,0.0,0.0,0.0,0.0,0.0,0.0,0.0,0.0,0.0,0.0,0.0,0.0,0.0,0.0,0.0,0.0,0.0,0.0,0.0,0.0,0.0,0.0,0.0,0.0,0.0,0.0,0.0,0.0,0.0,0.0,0.0,0.0,0.0,0.0,0.0,0.0,0.0,0.0,0.0,0.0,0.0,0.0,0.0,0.0,0.0,0.0,0.0,0.0,0.0,0.0,0.0,0.0,0.0,0.0,0.0,0.0,0.0,0.0,0.0,0.0,0.0,0.0,0.0,0.0,0.0,0.0,0.0,0.0,0.0,0.0,0.0,3.7187,3.8887,3.8965,3.7441,3.5566,3.2986,0.0,0.0,0.0,0.0,0.0,0.0,0.0,0.0,0.0,0.0,0.0,0.0,0.0,0.0,0.0,0.0,0.0,0.0,0.0,0.0,0.0,0.0,0.0,0.0,0.0,0.0,0.0,0.0,0.0,0.0,0.0,0.0,0.0,0.0,0.0,0.0,0.0,0.0,0.0,0.0,0.0,0.0,0.0,0.0,0.0,0.0,0.0,0.0,0.0,0.0,0.0,0.0,0.0,0.0,0.0,0.0,0.0,0.0,0.0,0.0,0.0,0.0,0.0,0.0,0.0,0.0,0.0,0.0,0.0,0.0,0.0,0.0,0.0,0.0,0.0,0.0,0.0,0.0,0.0,0.0,0.0,0.0,0.0,0.0,0.0,0.0,0.0,0.0,0.0,0.0,0.0,0.0,0.0,0.0,0.0,0.0,0.0,0.0,0.0,0.0,0.0,0.0,0.0,0.0,0.0,0.0,0.0,0.0,0.0,3.6211,3.7339,3.8277,3.8927,3.6163,3.3538,0.0,0.0,0.0,0.0,0.0,0.0,0.0,0.0,0.0,0.0,0.0,0.0,0.0,0.0,0.0,0.0,0.0,0.0,0.0,0.0,0.0,0.0,0.0,0.0,0.0,0.0,0.0,0.0,0.0,0.0,0.0,0.0,0.0,0.0,0.0,0.0,0.0,0.0,0.0,0.0,0.0,0.0,0.0,0.0,0.0,0.0,0.0,0.0,0.0,0.0,0.0,0.0,0.0,0.0,0.0,0.0,0.0,0.0,0.0,0.0,0.0,0.0,0.0,0.0,0.0,0.0,0.0,0.0,0.0,0.0,0.0,0.0,0.0,0.0,0.0,0.0,0.0,0.0,0.0,0.0,0.0,0.0,0.0,0.0,0.0,0.0,0.0,0.0,0.0,0.0,0.0,0.0,0.0,0.0,0.0,0.0,0.0,0.0,0.0,0.0,0.0,0.0,0.0,0.0,0.0,0.0,0.0,0.0,3.4386,3.6406,3.6595,3.7244,3.8535,3.6267,3.3832,0.0,0.0,0.0,0.0,0.0,0.0,0.0,0.0,0.0,0.0,0.0,0.0,0.0,0.0,0.0,0.0,0.0,0.0,0.0,0.0,0.0,0.0,0.0,0.0,0.0,0.0,0.0,0.0,0.0,0.0,0.0,0.0,0.0,0.0,0.0,0.0,0.0,0.0,0.0,0.0,0.0,0.0,0.0,0.0,0.0,0.0,0.0,0.0,0.0,0.0,0.0,0.0,0.0,0.0,0.0,0.0,0.0,0.0,0.0,0.0,0.0,0.0,0.0,0.0,0.0,0.0,0.0,0.0,0.0,0.0,0.0,0.0,0.0,0.0,0.0,0.0,0.0,0.0,0.0,0.0,0.0,0.0,0.0,0.0,0.0,0.0,0.0,0.0,0.0,0.0,0.0,0.0,0.0,0.0,0.0,0.0,0.0,0.0,0.0,0.0,0.0,0.0,0.0,0.0,0.0,0.0,0.0,0.0,3.4449,3.6834,3.6047,3.5937,3.6562,3.5867,3.3923,0.0,0.0,0.0,0.0,0.0,0.0,0.0,0.0,0.0,0.0,0.0,0.0,0.0,0.0,0.0,0.0,0.0,0.0,0.0,0.0,0.0,0.0,0.0,0.0,0.0,0.0,0.0,0.0,0.0,0.0,0.0,0.0,0.0,0.0,0.0,0.0,0.0,0.0,0.0,0.0,0.0,0.0,0.0,0.0,0.0,0.0,0.0,0.0,0.0,0.0,0.0,0.0,0.0,0.0,0.0,0.0,0.0,0.0,0.0,0.0,0.0,0.0,0.0,0.0,0.0,0.0,0.0,0.0,0.0,0.0,0.0,0.0,0.0,0.0,0.0,0.0,0.0,0.0,0.0,0.0,0.0,0.0,0.0,0.0,0.0,0.0,0.0,0.0,0.0,0.0,0.0,0.0,0.0,0.0,0.0,0.0,0.0,0.0,0.0,0.0,0.0,0.0,0.0,0.0,0.0,0.0,0.0,0.0,3.3194,3.5012,3.4212,3.3846,3.4005,3.4429,3.3646,0.0,0.0,0.0,0.0,0.0,0.0,0.0,0.0,0.0,0.0,0.0,0.0,0.0,0.0,0.0,0.0,0.0,0.0,0.0,0.0,0.0,0.0,0.0,0.0,0.0,0.0,0.0,0.0,0.0,0.0,0.0,0.0,0.0,0.0,0.0,0.0,0.0,0.0,0.0,0.0,0.0,0.0,0.0,0.0,0.0,0.0,0.0,0.0,3.2564,0.0,0.0,0.0,0.0,0.0,0.0,0.0,0.0,0.0,0.0,0.0,0.0,0.0,0.0,0.0,0.0,0.0,0.0,0.0,0.0,0.0,0.0,0.0,0.0,0.0,0.0,0.0,0.0,0.0,0.0,0.0,0.0,0.0,0.0,0.0,0.0,0.0,0.0,0.0,0.0,0.0,0.0,0.0,0.0,0.0,0.0,0.0,0.0,0.0,0.0,0.0,0.0,0.0,0.0,0.0,0.0,0.0,0.0,0.0,3.2593,3.3803,3.3046,3.2778,3.3161,3.3195,3.2324,0.0,0.0,0.0,0.0,0.0,0.0,0.0,0.0,0.0,0.0,0.0,0.0,0.0,0.0,0.0,0.0,0.0,0.0,0.0,0.0,0.0,0.0,0.0,0.0,0.0,0.0,0.0,0.0,0.0,0.0,0.0,0.0,0.0,0.0,0.0,0.0,0.0,0.0,0.0,0.0,0.0,0.0,0.0,0.0,0.0,0.0,0.0,0.0,0.0,0.0,0.0,0.0,0.0,0.0,0.0,0.0,0.0,0.0,0.0,0.0,0.0,0.0,0.0,0.0,0.0,0.0,0.0,0.0,0.0,0.0,0.0,0.0,0.0,0.0,0.0,0.0,0.0,0.0,0.0,0.0,0.0,0.0,0.0,0.0,0.0,0.0,0.0,0.0,0.0,0.0,0.0,0.0,0.0,0.0,0.0,0.0,0.0,0.0,0.0,0.0,0.0,0.0,0.0,0.0,0.0,0.0,0.0,3.1174,3.1976,3.2916,3.2146,3.2049,3.2761,3.2154,3.0895,2.9017,0.0,0.0,0.0,0.0,0.0,0.0,0.0,0.0,0.0,0.0,0.0,0.0,0.0,0.0,0.0,0.0,0.0,0.0,0.0,0.0,0.0,0.0,0.0,0.0,0.0,0.0,0.0,0.0,0.0,0.0,0.0,0.0,0.0,0.0,0.0,0.0,0.0,0.0,3.0864,3.3014,0.0,0.0,0.0,0.0,0.0,0.0,0.0,0.0,3.5825,0.0,0.0,0.0,0.0,0.0,0.0,0.0,0.0,0.0,0.0,0.0,0.0,0.0,0.0,0.0,0.0,0.0,0.0,0.0,0.0,0.0,0.0,0.0,0.0,0.0,0.0,0.0,0.0,0.0,0.0,0.0,0.0,0.0,0.0,0.0,0.0,0.0,0.0,0.0,0.0,0.0,0.0,0.0,0.0,0.0,0.0,0.0,0.0,0.0,0.0,0.0,0.0,0.0,0.0,0.0,0.0,3.0467,2.9944,3.0456,3.2047,3.1274,3.0882,3.1041,3.1516,3.0645,2.8324,0.0,0.0,0.0,0.0,0.0,0.0,0.0,0.0,0.0,0.0,0.0,0.0,0.0,0.0,0.0,0.0,0.0,0.0,0.0,0.0,0.0,0.0,0.0,0.0,0.0,0.0,0.0,0.0,0.0,0.0,0.0,0.0,0.0,0.0,0.0,0.0,0.0,0.0,0.0,3.3885,3.5701,0.0,0.0,0.0,0.0,0.0,0.0,0.0,0.0,3.6561,0.0,0.0,0.0,0.0,0.0,0.0,0.0,0.0,0.0,0.0,0.0,0.0,0.0,0.0,0.0,0.0,0.0,0.0,0.0,0.0,0.0,0.0,0.0,0.0,0.0,0.0,0.0,0.0,0.0,0.0,0.0,0.0,0.0,0.0,0.0,0.0,0.0,0.0,0.0,0.0,0.0,0.0,0.0,0.0,0.0,0.0,0.0,0.0,0.0,0.0,0.0,0.0,0.0,0.0,0.0,2.9151,2.9598,3.0271,3.1198,3.0827,3.0605,3.0611,3.0578,2.9721,0.0,0.0,0.0,0.0,0.0,0.0,0.0,0.0,0.0,0.0,0.0,0.0,0.0,0.0,0.0,0.0,0.0,0.0,0.0,0.0,0.0,0.0,0.0,0.0,0.0,0.0,0.0,0.0,0.0,0.0,0.0,0.0,0.0,0.0,0.0,0.0,0.0,0.0,0.0,0.0,3.4114,3.5895,3.6533,0.0,0.0,0.0,0.0,0.0,0.0,3.6519,3.6577,0.0,0.0,0.0,0.0,0.0,0.0,0.0,0.0,0.0,0.0,0.0,0.0,0.0,0.0,0.0,0.0,0.0,0.0,0.0,0.0,0.0,0.0,0.0,0.0,0.0,0.0,0.0,0.0,0.0,0.0,0.0,0.0,0.0,0.0,0.0,0.0,0.0,0.0,0.0,0.0,0.0,0.0,0.0,0.0,0.0,0.0,0.0,0.0,0.0,0.0,0.0,0.0,0.0,0.0,0.0,2.8025,2.941,3.0294,3.0575,3.0607,3.0609,3.0592,2.9979,2.9105,0.0,0.0,0.0,0.0,0.0,0.0,0.0,0.0,0.0,0.0,0.0,0.0,0.0,0.0,0.0,0.0,0.0,0.0,0.0,0.0,0.0,0.0,0.0,0.0,0.0,0.0,0.0,0.0,0.0,0.0,0.0,0.0,0.0,0.0,0.0,0.0,0.0,0.0,0.0,0.0,0.0,3.6435,3.6441,3.7843,0.0,0.0,0.0,0.0,3.6843,3.6621,0.0,0.0,0.0,0.0,0.0,0.0,0.0,0.0,0.0,0.0,0.0,0.0,0.0,0.0,0.0,0.0,0.0,0.0,0.0,0.0,0.0,0.0,0.0,0.0,0.0,0.0,0.0,0.0,0.0,0.0,0.0,0.0,0.0,0.0,0.0,0.0,0.0,0.0,0.0,0.0,0.0,0.0,0.0,0.0,0.0,0.0,0.0,0.0,0.0,0.0,0.0,0.0,0.0,0.0,0.0,0.0,2.7907,2.8783,2.9679,3.0556,3.0607,3.0609,3.0611,3.0501,2.966,0.0,0.0,0.0,0.0,0.0,0.0,0.0,0.0,0.0,0.0,0.0,0.0,0.0,0.0,0.0,0.0,0.0,0.0,0.0,0.0,0.0,0.0,0.0,0.0,0.0,0.0,0.0,0.0,0.0,0.0,0.0,0.0,0.0,0.0,0.0,0.0,0.0,0.0,0.0,0.0,0.0,3.8311,3.6707,3.7881,3.8766,0.0,0.0,3.7997,3.8826,3.842,0.0,0.0,0.0,0.0,0.0,0.0,0.0,0.0,0.0,0.0,0.0,0.0,0.0,0.0,0.0,0.0,0.0,0.0,0.0,0.0,0.0,0.0,0.0,0.0,0.0,0.0,0.0,0.0,0.0,0.0,0.0,0.0,0.0,0.0,0.0,0.0,0.0,0.0,0.0,0.0,0.0,0.0,0.0,0.0,0.0,0.0,0.0,0.0,0.0,0.0,0.0,0.0,0.0,0.0,0.0,2.758,2.7931,2.9175,3.0102,3.0595,3.0607,3.0609,3.0611,3.0163,2.9243,0.0,0.0,0.0,0.0,0.0,0.0,0.0,0.0,0.0,0.0,0.0,0.0,0.0,0.0,0.0,0.0,0.0,0.0,0.0,0.0,0.0,0.0,0.0,0.0,0.0,0.0,0.0,0.0,0.0,0.0,0.0,0.0,0.0,0.0,0.0,0.0,0.0,0.0,0.0,0.0,0.0,0.0,3.7706,3.9022,0.0,0.0,0.0,3.7914,3.8628,0.0,0.0,0.0,0.0,0.0,0.0,0.0,0.0,0.0,0.0,0.0,0.0,0.0,0.0,0.0,0.0,0.0,0.0,0.0,0.0,0.0,0.0,0.0,0.0,0.0,0.0,0.0,0.0,0.0,0.0,0.0,0.0,0.0,0.0,0.0,0.0,0.0,0.0,0.0,0.0,0.0,0.0,0.0,0.0,0.0,0.0,0.0,0.0,0.0,0.0,0.0,0.0,0.0,0.0,0.0,0.0,0.0,2.7915,2.9529,3.0467,3.0595,3.0607,3.0611,3.0592,3.0018,0.0,0.0,0.0,0.0,0.0,0.0,0.0,0.0,0.0,0.0,0.0,0.0,0.0,0.0,0.0,0.0,0.0,0.0,0.0,0.0,0.0,0.0,0.0,0.0,0.0,0.0,0.0,2.5644,0.0,0.0,0.0,0.0,0.0,0.0,0.0,0.0,0.0,0.0,0.0,0.0,0.0,0.0,3.7629,3.8196,3.9609,4.025,0.0,0.0,3.7624,3.7949,3.6717,3.5608,0.0,0.0,0.0,0.0,0.0,0.0,0.0,0.0,0.0,0.0,0.0,0.0,0.0,0.0,0.0,0.0,0.0,0.0,0.0,0.0,0.0,0.0,0.0,0.0,0.0,0.0,0.0,0.0,0.0,0.0,0.0,0.0,0.0,0.0,0.0,0.0,0.0,0.0,0.0,0.0,0.0,0.0,0.0,0.0,0.0,0.0,0.0,0.0,0.0,0.0,0.0,0.0,0.0,0.0,0.0,2.7946,2.9548,3.0467,3.0614,3.0645,3.0667,3.0611,3.0559,2.9589,0.0,0.0,0.0,0.0,0.0,0.0,0.0,0.0,0.0,0.0,0.0,0.0,0.0,0.0,0.0,0.0,0.0,0.0,0.0,0.0,0.0,0.0,0.0,0.0,0.0,0.0,0.0,0.0,0.0,0.0,0.0,0.0,0.0,0.0,0.0,0.0,0.0,0.0,0.0,0.0,0.0,3.8721,3.7548,3.8752,3.9623,0.0,0.0,3.7441,3.7294,3.6543,3.5348,3.3517,0.0,0.0,0.0,0.0,0.0,0.0,0.0,0.0,0.0,0.0,0.0,0.0,0.0,0.0,0.0,0.0,0.0,0.0,0.0,0.0,0.0,0.0,0.0,0.0,0.0,0.0,0.0,0.0,0.0,0.0,0.0,0.0,0.0,0.0,0.0,0.0,0.0,0.0,0.0,0.0,0.0,0.0,0.0,0.0,0.0,0.0,0.0,0.0,0.0,0.0,0.0,0.0,0.0,2.7849,2.7742,2.949,3.0467,3.0595,3.0626,3.0628,3.0611,3.0617,2.9658,0.0,0.0,0.0,0.0,0.0,0.0,0.0,0.0,0.0,0.0,0.0,0.0,0.0,0.0,0.0,0.0,0.0,0.0,0.0,0.0,0.0,0.0,0.0,0.0,0.0,0.0,0.0,0.0,2.6197,2.6268,2.5678,0.0,0.0,0.0,0.0,0.0,0.0,0.0,0.0,0.0,0.0,3.9007,3.826,3.9471,0.0,0.0,3.8664,3.829,3.7717,3.6749,3.5346,3.333,3.3105,0.0,0.0,0.0,0.0,0.0,0.0,0.0,0.0,0.0,0.0,0.0,0.0,0.0,0.0,0.0,0.0,0.0,0.0,0.0,0.0,0.0,0.0,0.0,0.0,0.0,0.0,0.0,0.0,0.0,0.0,0.0,0.0,0.0,0.0,0.0,0.0,0.0,0.0,0.0,0.0,0.0,0.0,0.0,0.0,0.0,0.0,0.0,0.0,0.0,0.0,0.0,0.0,2.8089,2.7953,2.9557,3.0323,3.0179,3.0161,3.0133,3.0174,3.022,2.948,0.0,0.0,0.0,0.0,0.0,0.0,0.0,0.0,0.0,0.0,0.0,0.0,0.0,0.0,0.0,0.0,0.0,0.0,0.0,0.0,0.0,0.0,0.0,0.0,0.0,0.0,0.0,0.0,2.6377,2.6424,2.5996,0.0,0.0,0.0,0.0,0.0,0.0,0.0,0.0,0.0,0.0,3.8974,3.8838,3.9402,3.9489,3.8588,3.8366,3.8151,3.7849,3.696,3.5647,3.3829,0.0,0.0,0.0,0.0,0.0,0.0,0.0,0.0,0.0,0.0,0.0,0.0,0.0,0.0,0.0,0.0,0.0,0.0,0.0,0.0,0.0,0.0,0.0,0.0,0.0,0.0,0.0,0.0,0.0,0.0,2.5644,0.0,0.0,0.0,0.0,0.0,0.0,0.0,0.0,0.0,0.0,0.0,0.0,0.0,0.0,0.0,0.0,0.0,0.0,0.0,0.0,0.0,0.0,2.8781,2.8783,2.9855,3.0035,2.9275,2.9106,2.911,2.9213,2.9303,2.9053,2.848,0.0,0.0,0.0,0.0,0.0,0.0,0.0,0.0,0.0,0.0,0.0,0.0,0.0,0.0,0.0,0.0,0.0,0.0,0.0,0.0,0.0,0.0,0.0,0.0,0.0,0.0,2.6951,2.6172,2.5977,0.0,0.0,0.0,0.0,0.0,0.0,0.0,0.0,0.0,0.0,3.8974,3.8518,3.8967,3.8136,3.7649,3.7888,3.7088,3.6663,3.7448,3.7116,3.6338,0.0,0.0,0.0,0.0,0.0,0.0,0.0,0.0,0.0,0.0,0.0,0.0,0.0,0.0,0.0,0.0,0.0,0.0,0.0,0.0,0.0,0.0,0.0,0.0,0.0,0.0,0.0,2.85,2.8125,0.0,0.0,0.0,0.0,0.0,0.0,0.0,0.0,0.0,0.0,0.0,3.3769,3.4922,0.0,0.0,0.0,0.0,0.0,0.0,0.0,0.0,0.0,0.0,0.0,0.0,2.9272,2.8698,3.0167,3.0447,2.931,2.9236,2.8996,2.8567,2.9021,2.9046,2.8531,0.0,0.0,0.0,0.0,0.0,0.0,0.0,0.0,0.0,0.0,0.0,0.0,0.0,0.0,0.0,0.0,0.0,0.0,0.0,0.0,0.0,0.0,0.0,0.0,0.0,2.8884,0.0,0.0,0.0,0.0,0.0,0.0,0.0,0.0,0.0,0.0,0.0,3.7948,3.9553,3.9825,3.9471,3.8325,3.8633,3.8728,0.0,0.0,0.0,0.0,0.0,0.0,0.0,0.0,0.0,0.0,0.0,0.0,0.0,0.0,3.871,3.7775,3.7723,3.7957,3.8408,0.0,0.0,0.0,0.0,0.0,0.0,0.0,0.0,0.0,0.0,0.0,0.0,0.0,0.0,3.0528,0.0,2.9394,0.0,0.0,0.0,0.0,0.0,0.0,0.0,0.0,3.3628,3.4878,3.5543,3.6651,3.697,0.0,3.6916,3.5196,0.0,0.0,0.0,0.0,0.0,0.0,0.0,0.0,3.0207,2.9425,3.0544,3.0403,2.8929,2.8878,2.851,2.7753,2.8656,2.8983,2.8613,2.8647,2.84,0.0,0.0,0.0,0.0,0.0,0.0,0.0,0.0,0.0,0.0,0.0,0.0,0.0,0.0,0.0,0.0,0.0,0.0,0.0,0.0,0.0,0.0,0.0,2.9695,0.0,0.0,0.0,0.0,0.0,0.0,0.0,0.0,0.0,3.8157,3.8722,3.9499,4.0467,4.0459,3.9856,3.8494,0.0,0.0,0.0,0.0,0.0,0.0,0.0,3.8681,3.7717,3.8223,3.8699,3.867,3.9446,4.0087,4.0087,0.0,0.0,3.8836,3.8935,3.9193,3.9358,4.0097,4.0923,4.171,4.2577,4.3258,0.0,0.0,0.0,0.0,0.0,0.0,0.0,0.0,3.2732,3.2455,0.0,3.0957,0.0,0.0,0.0,0.0,0.0,3.291,0.0,0.0,3.5824,3.7102,3.717,3.7284,3.7675,3.8327,3.9084,3.8493,3.6608,3.507,0.0,0.0,0.0,0.0,0.0,0.0,3.1528,3.0901,3.0924,2.9997,2.8107,2.8067,2.7692,2.6887,2.8126,2.883,2.8836,3.0065,3.0219,2.8941,2.9531,0.0,0.0,0.0,0.0,0.0,0.0,0.0,0.0,0.0,0.0,0.0,0.0,0.0,0.0,0.0,0.0,0.0,0.0,0.0,0.0,2.9809,0.0,0.0,0.0,0.0,0.0,0.0,0.0,0.0,0.0,0.0,4.0015,4.0505,4.1273,4.2144,0.0,0.0,0.0,0.0,3.7728,3.8285,3.7877,3.7845,3.8621,3.9974,4.0308,3.8596,0.0,0.0,4.0203,4.0037,4.0054,4.007,4.0037,4.0037,3.9986,3.9985,4.0218,4.0664,4.0834,4.1296,4.2386,4.2941,4.3518,3.3208,0.0,0.0,0.0,0.0,3.4414,3.5013,3.6114,3.4847,3.4007,3.3459,3.2918,0.0,0.0,0.0,0.0,0.0,0.0,3.3301,3.4355,3.5636,3.6625,3.7292,3.7826,3.8166,3.8318,3.8549,3.8216,3.7343,3.6848,3.5567,3.3578,0.0,0.0,0.0,0.0,3.2072,3.101,3.1461,3.0568,2.8119,2.8086,2.7679,2.6815,2.7602,2.8198,2.8493,2.9511,3.006,3.0076,2.9851,0.0,0.0,0.0,0.0,0.0,0.0,0.0,0.0,0.0,0.0,0.0,0.0,0.0,0.0,0.0,0.0,0.0,0.0,0.0,3.1203,3.0641,3.0882,0.0,0.0,0.0,0.0,0.0,0.0,0.0,0.0,0.0,4.1497,4.1604,4.1795,0.0,0.0,4.0214,3.9492,3.9481,3.9463,3.9252,3.8401,0.0,0.0,3.8964,3.8679,3.9084,3.9129,3.9067,3.9277,3.9295,3.948,3.9986,3.9681,3.9308,3.9326,3.9732,4.012,4.0336,4.0607,4.1198,4.2189,4.3025,4.3815,3.416,3.3658,3.4338,3.5071,3.5786,3.5646,3.6208,3.7219,3.6149,3.5447,3.501,3.4612,3.3687,3.2401,3.2305,0.0,0.0,0.0,3.3945,3.4668,3.5195,3.5547,3.5801,3.652,3.7013,3.7279,3.7475,3.7592,3.7583,3.7509,3.6331,3.4283,0.0,0.0,3.2798,3.2678,3.2216,3.1427,3.1539,3.0473,2.8176,2.7479,2.7028,2.6831,2.7498,2.8026,2.8395,2.953,3.0302,3.0567,3.0227,3.005,0.0,0.0,0.0,0.0,0.0,0.0,0.0,0.0,0.0,0.0,0.0,3.1777,0.0,0.0,0.0,0.0,3.1537,3.2102,3.3157,3.339,0.0,0.0,0.0,0.0,0.0,0.0,0.0,4.0898,4.1896,4.2355,4.1855,4.1466,4.1438,4.1981,4.1059,4.0084,3.9452,0.0,3.9176,3.8688,3.8034,3.7811,3.8504,3.8069,3.7967,3.8886,3.8173,3.7746,3.8415,3.857,3.8739,3.9023,3.887,3.8565,3.8565,3.8935,3.927,3.9481,3.9928,4.0616,4.1505,4.2382,4.331,3.4287,3.4117,3.4391,3.4946,3.5762,3.6551,3.6348,3.5599,3.6557,3.6479,3.5644,3.5908,3.5554,3.477,3.4724,0.0,3.4603,3.5398,3.5312,3.4609,3.4609,3.418,3.3457,3.4168,3.4847,3.5519,3.5978,3.652,3.7051,3.68,3.5942,3.447,3.4394,3.4262,3.3922,3.2655,3.199,3.1944,3.1243,2.9994,2.8134,2.6521,2.6044,2.6783,2.766,2.8198,2.8464,2.9942,3.0753,3.059,3.059,3.0673,3.0847,0.0,0.0,0.0,0.0,0.0,0.0,0.0,0.0,0.0,0.0,0.0,0.0,0.0,0.0,0.0,3.5368,0.0,3.5898,3.7205,0.0,0.0,0.0,4.0031,4.0727,4.2047,4.2456,4.1339,0.0,0.0,4.1242,4.0438,4.0415,4.1505,4.0408,3.9431,3.9238,3.846,3.7666,3.733,3.709,3.6975,3.7007,3.7307,3.764,3.7811,3.7241,3.6797,3.7381,3.7564,3.759,3.7722,3.7675,3.7593,3.7621,3.7509,3.7672,3.8113,3.8965,3.9789,4.0675,4.1557,4.2346,3.3466,3.33,3.3461,3.4334,3.563,3.583,3.5483,3.4809,3.5082,3.5079,3.4896,3.5683,3.5812,3.5463,3.5449,3.5397,3.5315,3.4889,3.4659,3.457,3.3945,3.3555,3.3418,3.3544,3.3677,3.379,3.3666,3.3392,3.3045,3.2803,3.2238,3.137,3.102,3.1235,3.2046,3.2004,3.1587,3.0735,3.084,2.998,2.8136,2.6518,2.6041,2.6776,2.7653,2.8288,2.8703,2.9526,3.0168,3.0567,3.0398,3.0331,3.0387,2.9946,0.0,0.0,0.0,0.0,0.0,0.0,0.0,0.0,0.0,3.6036,3.4299,0.0,3.5635,0.0,3.7174,3.7833,3.8438,3.8522,0.0,0.0,4.1428,4.1493,4.2405,4.2742,4.2257,4.0596,4.1032,4.0877,3.9299,3.9089,3.8993,3.8707,3.8638,3.8572,3.8465,3.8317,3.7986,3.7432,3.6863,3.6612,3.6863,3.6623,3.6182,3.5703,3.5128,3.4908,3.5222,3.5334,3.5491,3.598,3.5672,3.538,3.5374,3.4874,3.4864,3.5661,3.7715,3.9815,4.0861,4.1592,4.2233,3.2502,3.2331,3.2791,3.3221,3.3578,3.4145,3.4115,3.3676,3.3846,3.3954,3.4033,3.4959,3.5308,3.5177,3.5374,3.5292,3.4949,3.4372,3.3847,3.334,3.292,3.2539,3.2226,3.2532,3.2647,3.2615,3.2511,3.2185,3.1616,3.1274,3.0749,2.9969,2.973,2.9667,2.9811,3.0369,3.054,3.0314,2.9869,2.9142,2.8106,2.6527,2.6051,2.6793,2.766,2.8318,2.8785,2.9363,2.9645,2.9487,2.9606,2.9664,2.9679,2.9989,3.0134,0.0,0.0,0.0,0.0,0.0,0.0,0.0,0.0,0.0,0.0,0.0,3.7605,3.8252,3.9649,4.0714,4.1123,4.1455,4.2333,4.4016,4.3284,4.2954,4.3649,4.3206,4.2221,4.0685,4.0583,4.0027,3.8413,3.8096,3.7792,3.711,3.7075,3.7228,3.744,3.7316,3.6964,3.6493,3.6165,3.5978,3.6197,3.5226,3.4559,3.4659,3.4115,3.3744,3.4206,3.4148,3.4228,3.4745,3.4435,3.416,3.4472,3.4131,3.4029,3.5031,3.647,3.7946,3.897,3.9546,4.0044,3.1454,3.1326,3.2031,3.1741,3.0901,3.2044,3.2426,3.2294,3.2724,3.3006,3.3258,3.4083,3.438,3.432,3.4691,3.4563,3.398,3.3692,3.2929,3.1814,3.1812,3.1403,3.0723,3.1397,3.1706,3.17,3.183,3.1616,3.1154,3.0717,3.0094,2.9239,2.9257,2.8737,2.7826,2.847,2.9305,3.0183,2.8913,2.8251,2.8248,2.68,2.6387,2.7129,2.7869,2.8487,2.9014,2.9578,2.9454,2.8559,2.904,2.9347,2.9302,2.9972,3.0509,0.0,3.2458,0.0,0.0,0.0,0.0,0.0,0.0,0.0,0.0,4.0072,4.0186,4.0209,4.2342,4.3708,4.3733,4.4588,4.5232,4.5362,4.4491,4.393,4.4112,4.3202,4.2086,4.0998,4.0344,3.9407,3.7899,3.7253,3.6734,3.6179,3.5812,3.5811,3.6233,3.6059,3.5681,3.5095,3.5066,3.4966,3.4668,3.3578,3.3064,3.388,3.3312,3.2931,3.3329,3.3175,3.3054,3.3403,3.3274,3.3368,3.4141,3.4012,3.4176,3.4888,3.5195,3.5641,3.6671,3.7188,3.722,3.0535,3.0431,3.0368,3.0095,2.9756,3.0311,3.0519,3.0562,3.1437,3.2357,3.327,3.3479,3.3363,3.3141,3.3165,3.3083,3.2856,3.2129,3.1804,3.177,3.1099,3.073,3.0624,3.0715,3.0682,3.0506,3.0275,2.9714,2.8839,2.8586,2.807,2.7247,2.7247,2.73,2.7418,0.0,0.0,0.0,2.9341,2.9081,2.9051,2.8266,2.8184,2.8945,2.9028,0.0,3.0148,3.0715,3.0814,3.0411,3.0957,0.0,0.0,0.0,0.0,0.0,0.0,0.0,0.0,0.0,0.0,0.0,4.1127,4.0573,4.1572,4.2888,4.3478,4.2955,4.4421,4.5408,4.5425,4.4698,4.4326,4.4463,4.3599,4.2847,4.2504,4.2026,4.1299,4.015,3.9051,3.7931,3.6823,3.6328,3.5843,3.5132,3.4849,3.4747,3.4769,3.5274,3.5347,3.4601,3.3922,3.3344,3.3023,3.2617,3.2126,3.1884,3.1492,3.1213,3.1041,3.0914,3.0783,3.0976,3.1324,3.1737,3.1983,3.2391,3.296,3.3525,3.3647,3.4266,3.6233,3.6888,3.7196,2.9943,0.0,2.9661,2.9448,0.0,2.9418,2.9588,2.9767,3.0598,3.1321,3.1937,3.2361,3.2389,3.2101,3.2348,3.2214,3.1792,3.1303,3.1043,3.0905,3.0629,3.0521,3.0541,3.0417,3.009,2.959,2.9136,2.8248,2.7091,2.6845,2.6528,2.615,2.615,2.6555,2.73,2.8094,2.8895,2.9696,2.944,2.9303,2.9291,2.8656,2.8691,2.9473,0.0,0.0,0.0,0.0,0.0,0.0,0.0,0.0,0.0,0.0,0.0,3.4531,3.541,3.6503,3.789,3.8347,3.9749,4.2406,4.2337,4.248,4.3319,4.4137,4.4626,4.4701,4.5084,4.5291,4.5176,4.4151,4.3517,4.3635,4.2699,4.1838,4.1427,4.0814,3.9936,3.8823,3.797,3.7051,3.5837,3.5813,3.5369,3.4297,3.4247,3.4214,3.3875,3.4155,3.4206,3.3679,3.2872,3.243,3.257,3.1982,3.1657,3.1526,3.1176,3.0757,3.0487,3.0234,3.0166,3.0397,3.061,3.0787,3.1255,3.1528,3.1787,3.2182,3.2311,3.2674,3.4086,3.5124,3.5962,2.9586,2.9484,2.9296,2.9119,2.8975,2.8957,2.9144,2.9513,0.0,0.0,0.0,3.1191,3.1361,3.1085,3.1506,3.1337,3.0715,3.0659,3.0392,3.0021,3.0297,3.0412,3.0398,3.0095,2.9554,2.8822,2.8203,2.7221,2.5935,2.5651,2.5492,2.5496,2.562,2.6292,2.748,2.8651,2.937,2.9691,2.9574,2.9516,2.9524,2.8988,2.9043,2.9726,3.0293,3.0981,3.177,3.2359,3.2398,3.186,3.2182,3.2641,3.325,3.3676,3.4721,3.6565,3.7654,3.8484,3.9125,3.9996,4.0954,4.2017,4.2916,4.3728,4.4414,4.4338,4.4547,4.5276,4.4809,4.444,4.4315,4.3374,4.2794,4.2899,4.172,4.0844,4.0572,3.9696,3.8709,3.7649,3.7024,3.6227,3.5069,3.5002,3.4785,3.3599,3.3487,3.3596,3.2957,3.2888,3.2966,3.2702,3.1987,3.1698,3.2084,3.152,3.1087,3.145,3.0974,3.0578,3.0455,3.0179,3.0069,3.026,3.0234,3.0504,3.0998,3.1174,3.1107,3.1415,3.1513,3.1589,3.1949,3.316,3.4282,2.9431,2.9368,2.8785,2.8731,2.8975,2.8888,2.914,2.9696,3.0073,3.0235,3.0238,3.0358,3.017,2.9758,2.9802,2.9734,2.9622,2.962,2.9729,0.0,3.0054,3.0068,3.004,2.9327,2.8739,2.8216,2.7456,2.6702,2.602,2.5661,2.5366,2.5219,2.5777,2.6842,2.821,2.9152,2.9652,2.9713,3.0098,3.0366,3.0405,3.0396,3.0469,3.0684,3.0644,3.1012,3.1853,3.2513,3.3038,3.3442,3.4227,3.4585,3.4454,3.4289,3.4906,3.654,3.7121,3.8309,4.0403,4.0527,4.0966,4.2015,4.3014,4.3577,4.3553,4.3393,4.3349,4.3554,4.3609,4.3579,4.3493,4.2723,4.2106,4.2017,4.0627,3.9637,3.9688,3.8868,3.8102,3.7636,3.6179,3.4993,3.4391,3.347,3.2882,3.2448,3.2343,3.1931,3.1444,3.1631,3.1987,3.1788,3.1141,3.0698,3.0847,3.0475,3.0231,3.0014,2.9905,2.964,2.9476,2.935,2.9302,2.9284,2.9921,3.0388,3.0457,3.1269,3.1539,3.1589,3.1638,3.1822,3.1844,3.2428,3.2828,2.886,2.8837,2.8547,2.8515,2.8682,2.8855,2.9129,2.9532,2.9701,2.9825,2.9914,2.9926,2.9741,2.9468,2.9425,2.933,2.92,2.933,2.9513,2.9681,2.9799,2.9827,2.9742,2.8867,2.8089,2.7431,2.6521,2.564,2.4793,2.4598,2.4768,2.5322,2.6672,2.7745,2.8417,2.9249,2.9687,2.9713,3.0232,3.0535,3.0597,3.0671,3.0762,3.0918,3.1133,3.1473,3.1891,3.2539,3.3244,3.398,3.4235,3.4736,3.5499,3.5277,3.5581,3.662,3.6996,3.7633,3.877,3.9127,3.9496,4.0019,4.0931,4.1432,4.1354,4.245,4.3153,4.3127,4.2893,4.2679,4.2613,4.1534,4.0761,4.0603,3.9473,3.8616,3.8234,3.7818,3.7217,3.6476,3.5215,3.4187,3.3813,3.294,3.2145,3.1789,3.139,3.0993,3.062,3.0905,3.1184,3.1025,3.066,3.0436,3.0398,3.0182,2.9975,2.988,2.9604,2.9377,2.9233,2.9209,2.9225,2.9225,2.9731,3.0018,2.9936,3.0358,3.0678,3.0716,3.0697,3.0808,3.0947,3.1196,3.1708,2.829,2.829,2.8192,2.8192,2.8342,2.8815,2.9134,2.9289,2.9222,2.932,2.9531,2.9591,2.9507,2.9328,2.931,2.92,2.9044,2.9203,2.9333,2.9402,2.9567,2.9631,2.9497,2.8575,2.7753,2.7043,2.6145,2.5207,2.4436,2.4277,2.4787,2.5954,2.7404,2.826,2.8565,2.9308,2.9696,2.9729,3.0213,3.0525,3.0595,3.067,3.0742,3.0937,3.1367,3.1711,3.1896,3.2384,3.3045,3.3832,3.3704,3.4289,3.5664,3.5587,3.5769,3.6504,3.6824,3.7043,3.7318,3.792,3.8306,3.8322,3.9024,3.9442,3.9486,4.0998,4.2152,4.2167,4.1736,4.1415,4.1039,4.0136,3.9328,3.914,3.8469,3.7794,3.7147,3.6881,3.644,3.5455,3.438,3.3604,3.3349,3.2572,3.1692,3.1149,3.0791,3.0597,3.053,3.0585,3.0597,3.0529,3.0448,3.0398,3.0398,3.0254,3.01,3.0028,2.9744,2.955,2.9495,2.9476,2.9455,2.9493,2.9625,2.977,2.9713,2.9853,2.9945,2.9986,3.0037,3.0022,3.0233,3.0452,3.0879,2.7954,2.7897,2.7589,2.7619,2.8037,2.87,2.9017,2.8984,2.8659,2.8737,2.9044,2.932,2.9278,2.9058,2.9062,2.904,2.8975,2.904,2.9191,2.9379,2.9421,2.9425,2.9339,2.8515,2.7974,2.7624,2.6838,2.6334,2.6143,2.5964,2.6278,2.7055,2.7319,2.7973,2.887,2.9438,2.9696,2.9713,3.0174,3.0467,3.0602,3.0621,3.0715,3.0879,3.084,3.1164,3.1799,3.1888,3.2242,3.2949,3.2987,3.3402,3.4256,3.416,3.4698,3.6189,3.635,3.6806,3.7757,3.8171,3.8225,3.8322,3.8496,3.8633,3.8516,3.8705,3.9056,3.9557,3.9777,3.958,3.8762,3.859,3.8516,3.8437,3.7676,3.7095,3.6988,3.6456,3.5914,3.571,3.4147,3.3171,3.3379,3.1832,3.0505,3.0598,3.0599,3.0607,3.0584,3.0623,3.0658,3.0578,3.0487,3.0398,3.0398,3.0398,3.0259,3.0067,2.9983,2.9832,2.9737,2.9672,2.9661,2.9697,2.9829,2.9908,2.9896,3.0007,3.0215,3.0066,3.0142,3.0349,3.0432,3.0518,3.0779,2.753,2.7512,2.7378,2.7631,2.821,2.8515,2.8639,2.8603,2.8268,2.8203,2.8342,2.8486,2.8674,2.8975,2.8975,2.8975,2.8975,2.8975,2.9053,2.9168,2.9149,2.9167,2.9058,2.8341,2.7877,2.7728,2.6976,2.6609,2.6677,2.694,2.7283,2.7611,2.8062,2.8552,2.9026,2.9458,2.9708,2.9713,3.0174,3.0436,3.0529,3.0569,3.0689,3.0859,3.0762,3.0819,3.108,3.1079,3.1403,3.2122,3.2186,3.2571,3.3372,3.3321,3.3731,3.474,3.5324,3.5785,3.6249,3.6581,3.6765,3.6756,3.7441,3.7773,3.7695,3.804,3.8225,3.7963,3.8407,3.8608,3.8291,3.7923,3.7676,3.7578,3.6926,3.642,3.6367,3.615,3.5909,3.5606,3.4177,3.3109,3.2966,3.1506,3.0388,3.0398,3.0487,3.0558,3.0601,3.0623,3.0651,3.0637,3.0583,3.0506,3.0417,3.0398,3.0359,3.0259,3.0087,2.9946,2.9996,2.9889,2.9896,2.9905,3.0071,3.0182,3.0155,3.0215,3.0355,3.0254,3.0286,3.0417,3.0487,3.054,3.0598,2.7147,2.7178,2.7365,2.7747,2.8264,2.8368,2.8394,2.8322,2.7911,2.7779,2.789,2.7897,2.8228,2.8773,2.8839,2.8905,2.8994,2.8975,2.8975,2.8975,2.8975,2.8975,2.892,2.8429,2.8109,2.8045,2.7559,2.7266,2.7317,2.782,2.8136,2.8227,2.8723,2.8975,2.9044,2.9456,2.9696,2.9748,3.0174,3.0417,3.051,3.0567,3.0672,3.082,3.0781,3.0717,3.0642,3.0558,3.0794,3.1333,3.1352,3.1718,3.2487,3.2577,3.2954,3.3871,3.473,3.5205,3.521,3.5519,3.5718,3.5762,3.6504,3.6914,3.6914,3.7297,3.7266,3.6762,3.7118,3.7443,3.7492,3.7129,3.6875,3.6797,3.6309,3.5976,3.5965,3.5974,3.5926,3.56,3.4216,3.2904,3.2256,3.134,3.0744,3.0456,3.0467,3.0543,3.0591,3.0625,3.0726,3.0971,3.0849,3.0583,3.0506,3.0744,3.0725,3.0828,3.0797,3.0978,3.0729,3.0682,3.0499,3.0748,3.058,3.0374,3.0318,3.0355,3.0398,3.0398,3.0398,3.0417,3.0525,3.0568,3.0645,2.6725,2.6824,2.753,2.7869,2.7954,2.8219,2.8412,2.837,2.7654,2.7522,2.7876,2.7869,2.8075,2.8402,2.842,2.8658,2.8952,2.8975,2.8975,2.8975,2.8975,2.8975,2.8975,2.8938,2.892,2.8847,2.8718,2.8718,2.8773,2.8865,2.8938,2.8943,2.8975,2.8975,2.9067,2.9475,2.9696,2.9748,3.0174,3.0448,3.0506,3.0568,3.0642,3.0703,3.082,3.082,3.0698,3.0614,3.0602,3.0583,3.0564,3.0871,3.1646,3.178,3.2492,3.3975,3.4949,3.5455,3.5484,3.5614,3.5718,3.5742,3.5976,3.6094,3.6152,3.6095,3.6012,3.5797,3.5853,3.5842,3.5919,3.608,3.6055,3.6055,3.6016,3.5976,3.5974,3.5979,3.5911,3.5546,3.4293,3.28,3.1025,3.1205,3.1205,3.0821,3.0564,3.0664,3.0858,3.0818,3.1171,3.1585,3.1378,3.071,3.0729,3.106,3.153,3.1751,3.2026,3.2558,3.2436,3.2237,3.1859,3.1417,3.0956,3.066,3.0475,3.0398,3.0398,3.0398,3.0398,3.0448,3.0564,3.0602,3.0666,2.6708,2.6758,2.7286,2.7517,2.753,2.766,2.7971,2.8268,2.7359,2.7255,2.7683,2.7339,2.7348,2.7736,2.7964,2.8412,2.8952,2.8975,2.8975,2.8975,2.8975,2.8975,2.8975,2.8975,2.8975,2.8975,2.8975,2.8975,2.8975,2.8975,2.8975,2.8975,2.8975,2.8975,2.9071,2.9456,2.9696,2.9748,3.0174,3.0417,3.0506,3.0544,3.0607,3.0646,3.0814,3.082,3.0703,3.0647,3.0568,3.0487,3.0436,3.0544,3.0883,3.1395,3.2165,3.3269,3.4206,3.4905,3.543,3.5641,3.5699,3.5723,3.5879,3.5996,3.5976,3.5831,3.5713,3.5666,3.5584,3.5526,3.5534,3.5629,3.5723,3.5781,3.5879,3.5937,3.5957,3.597,3.5917,3.5558,3.4583,3.3346,3.2384,3.2281,3.2338,3.209,3.2013,3.2057,3.2216,3.2278,3.2377,3.2714,3.2658,3.2416,3.2396,3.1912,3.1921,3.2428,3.2821,3.284,3.2795,3.2795,3.2487,3.1833,3.1345,3.0891,3.0717,3.0564,3.0525,3.0398,3.0398,3.0467,3.0583,3.0604,3.0703,2.6708,2.6758,2.7147,2.7303,2.7338,2.7546,2.7912,2.8315,2.7743,2.7723,2.8044,2.7775,2.7842,2.8268,2.867,2.9161,2.9685,2.9549,2.9536,2.9766,2.9774,2.9774,2.9747,2.9517,2.9517,2.9692,2.9485,2.9389,2.9347,2.9104,2.8994,2.8975,2.9232,2.9397,2.949,3.0111,3.0525,3.0612,3.0978,3.1237,3.1218,3.1306,3.139,3.1462,3.1606,3.1348,3.082,3.0679,3.0614,3.0535,3.0467,3.0564,3.0852,3.1896,3.2736,3.3333,3.4148,3.4866,3.5411,3.5622,3.5718,3.5723,3.5879,3.5976,3.5957,3.5801,3.5703,3.5654,3.5584,3.5507,3.5507,3.5545,3.5596,3.5669,3.5802,3.588,3.5895,3.5942,3.5706,3.5224,3.4615,3.3821,3.3115,3.2909,3.2858,3.2897,3.2897,3.2968,3.3087,3.3186,3.3395,3.3652,3.3457,3.3652,3.3828,3.3574,3.3086,3.3445,3.3853,3.3699,3.3487,3.3449,3.3006,3.2326,3.173,3.1268,3.0948,3.0775,3.0621,3.0475,3.0417,3.0487,3.0565,3.0625,3.0801,2.6759,2.6877,2.7149,2.7393,2.7535,2.8107,2.8399,2.8576,2.8764,2.8839,2.8975,2.9219,2.9437,3.0017,3.0248,3.0894,3.1089,3.0607,3.0612,3.1136,3.1201,3.1201,3.1149,3.0496,3.0538,3.1117,3.0535,3.0207,3.0173,2.9586,2.926,2.9274,2.9898,3.0228,3.0222,3.1343,3.2053,3.2123,3.2407,3.2718,3.2872,3.2774,3.2831,3.3012,3.3088,3.2461,3.1094,3.0918,3.0923,3.0777,3.0717,3.0929,3.1795,3.307,3.4077,3.4159,3.4931,3.5372,3.5507,3.5622,3.5718,3.5742,3.5879,3.5976,3.5918,3.5801,3.569,3.5628,3.5545,3.5507,3.5507,3.5507,3.552,3.5597,3.5739,3.5847,3.5871,3.5888,3.552,3.4738,3.4424,3.3872,3.3237,3.3211,3.3288,3.3276,3.3244,3.3288,3.3462,3.3577,3.377,3.4219,3.4316,3.4434,3.4902,3.5254,3.4824,3.4592,3.495,3.5064,3.4776,3.4603,3.3737,3.3019,3.203,3.1549,3.1198,3.1044,3.0891,3.0775,3.0679,3.0671,3.0895,3.1055,3.1035,2.7774,2.8215,2.7811,2.7981,2.8441,2.8714,2.9089,2.9479,2.9191,2.9272,2.9655,2.9625,2.9642,2.9951,3.0534,3.1247,3.1838,3.1832,3.1703,3.1477,3.1427,3.1469,3.14,3.1176,3.1176,3.1348,3.1146,3.1035,3.0968,3.0751,3.0646,3.0728,3.0862,3.112,3.1305,3.189,3.2297,3.2496,3.2757,3.2891,3.291,3.2987,3.3068,3.3199,3.3262,3.3027,3.2656,3.2539,3.248,3.2428,3.2382,3.2454,3.2737,3.3141,3.3667,3.4154,3.443,3.4943,3.5507,3.5649,3.5747,3.582,3.5937,3.5957,3.5907,3.5805,3.5716,3.5655,3.5545,3.5507,3.5507,3.5507,3.5526,3.5526,3.5622,3.5742,3.5788,3.5854,3.5759,3.5488,3.5257,3.5026,3.4795,3.4661,3.4526,3.4545,3.457,3.4609,3.4712,3.4685,3.501,3.5391,3.5254,3.5078,3.543,3.5644,3.5449,3.5176,3.5463,3.5655,3.5526,3.5334,3.4487,3.3624,3.264,3.1942,3.158,3.1448,3.1391,3.1133,3.0999,3.1168,3.1463,3.1445,3.1289,2.8535,2.8924,2.8467,2.8535,2.9045,2.9265,2.9671,3.0057,2.9897,3.0049,3.0442,3.0472,3.0523,3.0773,3.1422,3.2107,3.272,3.2957,3.2779,3.2339,3.2284,3.2261,3.2291,3.2305,3.2082,3.188,3.1836,3.1836,3.1806,3.1538,3.1396,3.1397,3.1704,3.1973,3.2305,3.2862,3.326,3.3536,3.3767,3.3872,3.3872,3.3916,3.3974,3.4087,3.4155,3.4219,3.4316,3.4316,3.3988,3.3511,3.3535,3.3664,3.3643,3.3921,3.4289,3.4629,3.4802,3.5059,3.5592,3.5727,3.581,3.5904,3.5964,3.6142,3.6219,3.6224,3.6232,3.6449,3.618,3.5963,3.5944,3.5622,3.5641,3.5925,3.5757,3.5708,3.5754,3.5846,3.5853,3.5756,3.5651,3.5637,3.5592,3.5545,3.5507,3.5507,3.5507,3.5507,3.5584,3.5584,3.5754,3.5849,3.5762,3.5723,3.5898,3.5976,3.5957,3.582,3.5763,3.5755,3.5641,3.5655,3.5187,3.4367,3.3453,3.2613,3.221,3.2301,3.2269,3.1864,3.1395,3.133,3.1427,3.1378,3.125,2.9076,2.913,2.9059,2.9146,2.9316,2.9895,3.0217,3.0311,3.0903,3.1207,3.1346,3.1823,3.2161,3.2586,3.3099,3.3611,3.3826,3.4018,3.4045,3.3981,3.3925,3.3852,3.3542,3.3513,3.3183,3.2742,3.2658,3.2676,3.2651,3.2089,3.1524,3.1792,3.2389,3.2838,3.3261,3.4207,3.4813,3.5089,3.5431,3.5608,3.5507,3.5512,3.5455,3.5463,3.5488,3.5547,3.5625,3.5664,3.5078,3.3848,3.4269,3.4592,3.4698,3.5291,3.5558,3.556,3.5669,3.5712,3.5792,3.6025,3.6177,3.6308,3.643,3.6376,3.6979,3.7093,3.7233,3.7608,3.7161,3.6771,3.6656,3.6271,3.6194,3.6573,3.6433,3.6165,3.5986,3.6091,3.6323,3.6125,3.5854,3.5766,3.5874,3.5738,3.5622,3.5526,3.557,3.5705,3.5603,3.5682,3.5739,3.5818,3.5879,3.5957,3.6016,3.6016,3.5996,3.5976,3.5918,3.5859,3.5703,3.5684,3.5762,3.4968,3.4277,3.3457,3.3047,3.3184,3.291,3.2382,3.1939,3.1542,3.168,3.2051,3.2051,3.0125,3.0548,3.004,3.0125,3.0598,3.0857,3.0942,3.1021,3.1698,3.2002,3.2253,3.3434,3.367,3.3523,3.4787,3.5227,3.4917,3.5293,3.5634,3.5653,3.5643,3.4852,3.4017,3.3825,3.3733,3.3532,3.3595,3.3458,3.3476,3.3275,3.3164,3.3175,3.344,3.377,3.4315,3.5149,3.5797,3.6323,3.7006,3.6949,3.6449,3.6378,3.6108,3.5636,3.5731,3.584,3.5898,3.5957,3.5859,3.541,3.5467,3.5579,3.5508,3.5703,3.584,3.5809,3.5779,3.6074,3.6641,3.6837,3.7164,3.7812,3.7734,3.793,3.7937,3.7945,3.7969,3.8012,3.7747,3.7651,3.7623,3.7439,3.7497,3.7646,3.7609,3.7366,3.6965,3.7431,3.787,3.7821,3.7598,3.7221,3.6749,3.6458,3.6194,3.5872,3.5993,3.6166,3.5949,3.6131,3.6381,3.5908,3.584,3.5957,3.6016,3.6016,3.6016,3.6016,3.5976,3.5976,3.5703,3.5449,3.5566,3.5408,3.4941,3.4219,3.4141,3.4199,3.3613,3.2988,3.3044,3.2988,3.3516,3.3906,3.3691,3.0987,3.1596,3.0869,3.0987,3.1613,3.1641,3.1827,3.2171,3.257,3.2756,3.3076,3.4191,3.4553,3.4268,3.5617,3.6046,3.5679,3.6064,3.6258,3.6268,3.6214,3.5708,3.5036,3.4853,3.4862,3.4844,3.4798,3.4871,3.4871,3.4844,3.4844,3.489,3.4969,3.5251,3.5732,3.6279,3.6816,3.7245,3.7762,3.77,3.7296,3.7224,3.7084,3.668,3.6689,3.6784,3.6934,3.7051,3.6797,3.6211,3.5996,3.5976,3.5957,3.5937,3.6055,3.6297,3.6367,3.6797,3.7559,3.7795,3.8029,3.8457,3.8613,3.8711,3.879,3.8839,3.8804,3.9069,3.8781,3.8569,3.8546,3.8556,3.8368,3.8161,3.8792,3.8798,3.7732,3.808,3.8459,3.8502,3.8362,3.8132,3.75,3.7338,3.7035,3.6815,3.7012,3.6724,3.6353,3.6741,3.6767,3.6227,3.5937,3.6055,3.6074,3.6055,3.6016,3.6016,3.6016,3.6016,3.584,3.5488,3.5644,3.5723,3.543,3.5156,3.4941,3.4726,3.4355,3.4048,3.4244,3.4316,3.4551,3.4726,3.4648,3.1816,3.2381,3.1698,3.1799,3.2357,3.2411,3.2739,3.3263,3.3457,3.3524,3.3792,3.4629,3.5119,3.4978,3.6253,3.656,3.6431,3.6688,3.6688,3.6772,3.6754,3.6628,3.6565,3.6083,3.6028,3.6038,3.6258,3.6138,3.6009,3.6121,3.6203,3.6094,3.6311,3.6733,3.6864,3.7368,3.7808,3.8089,3.8416,3.8411,3.82,3.8123,3.7988,3.7733,3.7772,3.7938,3.8144,3.8281,3.7832,3.6348,3.6269,3.6426,3.6387,3.6348,3.666,3.7246,3.7441,3.7793,3.8555,3.873,3.8828,3.9043,3.9023,3.9062,3.9583,3.9714,3.9819,4.0142,3.9826,3.9484,3.9427,3.9441,3.9157,3.8877,3.9807,3.9818,3.9052,3.8629,3.8643,3.8658,3.8627,3.8473,3.8286,3.8176,3.8089,3.7469,3.7723,3.7647,3.7358,3.7579,3.715,3.6285,3.6172,3.6211,3.6172,3.6094,3.6055,3.6016,3.6016,3.6016,3.6016,3.5859,3.5918,3.5879,3.5684,3.543,3.5156,3.4961,3.4844,3.4844,3.4883,3.4746,3.4687,3.4805,3.4805,3.3034,3.3152,3.3,3.3034,3.3152,3.3144,3.3246,3.3491,3.4023,3.4259,3.461,3.5959,3.6198,3.5739,3.7207,3.7863,3.7349,3.7753,3.8175,3.8175,3.8193,3.8175,3.7856,3.7009,3.6376,3.6391,3.634,3.634,3.6358,3.6476,3.6311,3.6387,3.6648,3.6668,3.7243,3.7998,3.8495,3.9026,3.9569,3.9508,3.9084,3.8992,3.8738,3.8253,3.8195,3.8258,3.8359,3.8418,3.8301,3.8105,3.8027,3.8027,3.7891,3.7891,3.8047,3.8223,3.834,3.8711,3.9394,3.9668,3.9922,4.0391,4.0332,4.0494,4.0485,4.0449,4.0442,4.0508,4.0331,4.0177,4.0142,4.0215,4.0027,3.9969,4.0181,4.0468,4.0254,4.0185,4.0124,4.0136,4.0082,3.9904,3.9238,3.9069,3.8796,3.8315,3.8334,3.8493,3.8488,3.845,3.7773,3.6907,3.6894,3.7012,3.6953,3.6855,3.6719,3.666,3.6582,3.6523,3.6523,3.6328,3.6445,3.6269,3.5976,3.5723,3.5449,3.5566,3.5527,3.5508,3.5469,3.5391,3.5312,3.5215,3.5098,3.3609,3.3863,3.3541,3.3609,3.388,3.3931,3.41,3.4472,3.4827,3.5013,3.5239,3.6342,3.6658,3.6608,3.7729,3.8123,3.8181,3.8469,3.8689,3.8652,3.867,3.8689,3.8634,3.7955,3.7412,3.7418,3.7448,3.7422,3.7422,3.7393,3.7503,3.7434,3.7562,3.7858,3.8115,3.8817,3.9308,3.9653,4.02,4.0258,3.9931,3.9854,3.9758,3.9292,3.9292,3.9514,4.0078,3.9785,3.9941,4.0117,4.0,3.9394,3.873,3.8633,3.8789,3.9141,3.9219,3.9629,4.0254,4.0527,4.0703,4.1152,4.1094,4.0957,4.083,4.0728,4.0635,4.0527,4.0489,4.0489,4.0489,4.0489,4.0489,4.0489,4.0489,4.0527,4.0611,4.0707,4.0759,4.074,4.0616,4.0391,4.0085,3.98,3.9762,3.9392,3.9392,3.9527,3.9027,3.8922,3.8586,3.8027,3.7923,3.7891,3.7832,3.7715,3.7578,3.7598,3.7656,3.7617,3.7617,3.7324,3.7031,3.6719,3.6348,3.6035,3.584,3.6016,3.6133,3.5898,3.5859,3.5976,3.5976,3.582,3.5723,3.41,3.4607,3.3998,3.41,3.4607,3.4658,3.4979,3.552,3.5757,3.5791,3.5932,3.644,3.7207,3.7485,3.8098,3.8583,3.8999,3.9129,3.9331,3.932,3.932,3.9326,3.9239,3.9153,3.9061,3.9038,3.8634,3.856,3.856,3.8817,3.8726,3.8891,3.9231,3.9389,3.9612,4.0037,4.0507,4.0665,4.0989,4.1139,4.1024,4.1004,4.0969,4.0931,4.1001,4.1309,4.1706,4.1591,4.1621,4.2383,4.1894,4.082,3.9805,3.9101,3.9258,4.0078,4.0098,4.0391,4.0859,4.1113,4.1191,4.1289,4.1269,4.1269,4.126,4.1116,4.0947,4.0758,4.0662,4.0489,4.0489,4.0489,4.0489,4.0489,4.0489,4.0489,4.0508,4.06,4.066,4.0646,4.0636,4.0481,4.0431,4.0296,4.0412,4.0489,4.0469,4.035,3.9815,3.9495,3.9231,3.8984,3.8818,3.8418,3.8301,3.8691,3.8516,3.8301,3.8457,3.8476,3.8457,3.8086,3.7637,3.7109,3.6738,3.6582,3.6641,3.6914,3.6855,3.6406,3.6523,3.6973,3.6816,3.6445,3.6465,3.5318,3.5419,3.5301,3.5334,3.5436,3.5436,3.5571,3.5723,3.6366,3.6586,3.6729,3.7686,3.8105,3.8548,3.9417,4.0091,4.0372,4.0432,4.0515,4.0517,4.048,4.0486,4.0419,4.04,4.0529,4.0322,3.9606,3.8927,3.9038,3.9313,3.9675,3.9841,4.0325,4.0732,4.0985,4.1575,4.1666,4.1761,4.214,4.239,4.239,4.2393,4.2393,4.2393,4.2406,4.2672,4.2868,4.2913,4.3015,4.334,4.3262,4.3008,4.2324,4.1328,4.0918,4.0898,4.0976,4.1113,4.1289,4.1289,4.1582,4.1933,4.2046,4.2318,4.2464,4.2124,4.1643,4.1335,4.0931,4.0546,4.0489,4.0639,4.0566,4.0546,4.0696,4.0681,4.0662,4.0739,4.0816,4.0931,4.0777,4.0546,4.0508,4.0489,4.0489,4.0489,4.0489,4.0523,4.0296,4.0173,4.0125,3.9869,3.9636,3.9121,3.8672,3.9258,3.9473,3.9004,3.8965,3.8984,3.8887,3.8652,3.8262,3.8184,3.7988,3.7851,3.791,3.7871,3.7812,3.7559,3.7812,3.8066,3.7754,3.7461,3.7734,3.6806,3.6789,3.6806,3.6806,3.6806,3.6789,3.6789,3.6857,3.7195,3.7364,3.7543,3.7996,3.8597,3.9063,3.9554,4.0311,4.0964,4.113,4.1107,4.1112,4.1112,4.1107,4.1144,4.1162,4.1119,4.0914,4.0304,3.9937,3.9992,4.0304,4.0519,4.0601,4.0964,4.1193,4.1445,4.1761,4.2161,4.2446,4.2838,4.3126,4.3126,4.3126,4.3124,4.3104,4.3179,4.333,4.366,4.3316,4.3506,4.3849,4.3691,4.3559,4.3314,4.2922,4.2169,4.1914,4.1816,4.1816,4.1816,4.1855,4.2207,4.2871,4.2864,4.2915,4.3088,4.2758,4.2316,4.1835,4.1582,4.1174,4.1212,4.1158,4.1386,4.1751,4.179,4.1774,4.1797,4.1777,4.17,4.1527,4.1066,4.0777,4.0508,4.0489,4.0489,4.0489,4.0489,4.0546,4.062,4.0622,4.0596,4.0528,4.0273,4.0117,3.9648,3.9941,4.0293,3.9863,3.9629,3.9648,3.9785,3.9746,3.9863,3.9941,3.9668,3.9277,3.8574,3.834,3.8516,3.8691,3.8613,3.8574,3.8555,3.8574,3.8809,3.7922,3.7922,3.7922,3.7922,3.7922,3.7905,3.7872,3.7922,3.8058,3.8125,3.8159,3.836,3.8894,3.9528,4.0005,4.0592,4.1522,4.1662,4.1717,4.1735,4.1735,4.1653,4.1622,4.157,4.1711,4.1849,4.1699,4.1405,4.1001,4.1222,4.1328,4.1452,4.1456,4.1599,4.1841,4.2411,4.2451,4.2776,4.3155,4.3499,4.3573,4.359,4.3605,4.3605,4.3588,4.3989,4.4451,4.4182,4.4239,4.4476,4.4346,4.398,4.3927,4.3901,4.3583,4.2978,4.2717,4.2605,4.2598,4.2598,4.2941,4.371,4.3673,4.3684,4.3722,4.3605,4.3008,4.2277,4.2043,4.2056,4.2056,4.2059,4.2367,4.2733,4.2929,4.3025,4.2893,4.2797,4.272,4.2297,4.1546,4.12,4.1123,4.0889,4.0966,4.0508,4.0489,4.0566,4.0635,4.0725,4.0773,4.0896,4.0898,4.0996,4.082,4.0703,4.0879,4.0684,4.0566,4.0566,4.0859,4.1113,4.123,4.123,4.1172,4.0684,3.9746,3.9101,3.9512,3.9648,3.9277,3.9277,3.9609,3.9648,3.9707,3.7922,3.7922,3.7939,3.7922,3.7973,3.8007,3.7956,3.8058,3.8633,3.887,3.8903,3.9478,3.9831,4.0212,4.1086,4.2085,4.2813,4.2983,4.2928,4.2892,4.2947,4.2965,4.3114,4.3224,4.2949,4.2873,4.3002,4.2341,4.1772,4.1937,4.2136,4.2224,4.2687,4.3146,4.2919,4.3268,4.3933,4.4267,4.4593,4.492,4.5127,4.5143,4.5143,4.5163,4.5163,4.5143,4.524,4.5066,4.5259,4.5411,4.5494,4.5484,4.5577,4.5599,4.518,4.4462,4.3812,4.3277,4.3318,4.3345,4.3689,4.4356,4.4457,4.4793,4.4836,4.4489,4.3835,4.3066,4.2929,4.2941,4.2922,4.2931,4.3032,4.3205,4.3489,4.3393,4.3319,4.3797,4.372,4.3566,4.297,4.2374,4.2008,4.1716,4.1405,4.0889,4.0546,4.0716,4.0911,4.1203,4.1431,4.1675,4.1777,4.1855,4.1933,4.1816,4.1738,4.1582,4.1582,4.1582,4.1816,4.2109,4.2207,4.2207,4.2207,4.207,4.1289,4.0879,4.0898,4.0898,4.0879,4.0879,4.0957,4.0898,4.084,3.914,3.914,3.914,3.914,3.914,3.914,3.914,3.9208,3.9462,3.9597,3.9648,3.9901,4.0237,4.0703,4.1768,4.2541,4.305,4.3375,4.3479,4.3479,4.3479,4.3479,4.3442,4.3479,4.3479,4.3479,4.3461,4.3204,4.2671,4.2671,4.2962,4.2981,4.3275,4.3406,4.3497,4.3807,4.4022,4.4315,4.4756,4.5227,4.551,4.5586,4.5586,4.5586,4.5586,4.5586,4.5586,4.5586,4.5605,4.568,4.568,4.5699,4.5719,4.5699,4.5507,4.5257,4.4886,4.4515,4.4212,4.4143,4.4562,4.5059,4.524,4.5372,4.5547,4.5278,4.4643,4.3857,4.3778,4.3792,4.3789,4.3775,4.4088,4.428,4.4261,4.4318,4.4335,4.4509,4.4682,4.4566,4.4393,4.3739,4.3143,4.2832,4.2502,4.204,4.1813,4.1963,4.2179,4.2443,4.2629,4.2767,4.2812,4.2812,4.2891,4.2891,4.2871,4.2773,4.2793,4.2793,4.2812,4.2969,4.3086,4.3144,4.3144,4.293,4.2617,4.248,4.2324,4.2461,4.2617,4.2422,4.2246,4.25,4.2363,4.0087,4.0087,4.0087,4.0087,4.0087,4.0087,4.0054,4.0054,4.0037,4.0054,4.0087,4.0121,4.0417,4.1013,4.1895,4.248,4.2732,4.325,4.3444,4.3479,4.3479,4.3479,4.3479,4.3479,4.3479,4.3479,4.3479,4.3387,4.3424,4.3424,4.3387,4.3479,4.3424,4.3479,4.3534,4.3731,4.3948,4.4311,4.4808,4.5244,4.5528,4.5586,4.5586,4.5586,4.5586,4.5586,4.5586,4.5586,4.5586,4.5586,4.5605,4.5605,4.5624,4.5605,4.5605,4.549,4.5384,4.5252,4.4989,4.4947,4.5259,4.5528,4.5738,4.5605,4.5586,4.5566,4.5432,4.4645,4.4624,4.4622,4.4603,4.4622,4.4853,4.5163,4.5374,4.5528,4.5547,4.5316,4.5201,4.5124,4.5009,4.5009,4.447,4.4066,4.364,4.3176,4.3099,4.3208,4.3322,4.3458,4.3442,4.3457,4.3437,4.3418,4.3457,4.3594,4.3711,4.3848,4.3848,4.373,4.3574,4.3769,4.4004,4.4043,4.4082,4.4336,4.4375,4.4043,4.3691,4.3379,4.3203,4.3437,4.3516,4.375,4.3633,4.0087,4.0087,4.0087,4.0087,4.0087,4.0087,4.0087,4.0087,4.0087,4.0087,4.0087,4.0121,4.0368,4.092,4.149,4.2121,4.2655,4.325,4.3373,4.3408,4.3479,4.3479,4.3479,4.3479,4.3479,4.3479,4.3479,4.3479,4.3479,4.3479,4.3479,4.3479,4.3479,4.3479,4.3497,4.3587,4.3915,4.4318,4.4813,4.5207,4.5454,4.5586,4.5586,4.5586,4.5586,4.5586,4.5586,4.5586,4.5586,4.5586,4.5586,4.5586,4.5586,4.5586,4.5586,4.5586,4.5586,4.5509,4.5413,4.5393,4.5509,4.5586,4.5624,4.5624,4.5586,4.5586,4.549,4.5393,4.524,4.5316,4.5391,4.5509,4.5449,4.5507,4.5586,4.5586,4.5586,4.5566,4.549,4.5547,4.5509,4.5393,4.5355,4.4836,4.447,4.4006,4.3877,4.3962,4.3976,4.407,4.398,4.3945,4.3906,4.3867,4.3828,4.4023,4.4414,4.4492,4.4473,4.4258,4.4004,4.4336,4.4902,4.5019,4.5137,4.5644,4.5879,4.5117,4.4433,4.3926,4.3828,4.4277,4.4375,4.4414,4.418,4.0087,4.0087,4.0087,4.0087,4.0087,4.0087,4.0087,4.0087,4.0087,4.0087,4.0087,4.0121,4.0204,4.0528,4.0949,4.1358,4.1707,4.2637,4.2887,4.3137,4.3261,4.3461,4.3479,4.3516,4.3479,4.3552,4.3534,4.3479,4.3479,4.3644,4.3497,4.3479,4.3626,4.3479,4.3479,4.3513,4.3804,4.4177,4.4602,4.4953,4.5265,4.5513,4.5586,4.5586,4.5586,4.5586,4.5586,4.5586,4.5586,4.5586,4.5586,4.5586,4.5586,4.5586,4.5586,4.5586,4.5586,4.5586,4.5586,4.5586,4.5586,4.5586,4.5586,4.5586,4.5586,4.5586,4.5586,4.5566,4.5586,4.5586,4.5586,4.5566,4.5566,4.5586,4.5586,4.5586,4.5586,4.5586,4.5586,4.5586,4.5586,4.5528,4.5547,4.5509,4.518,4.487,4.4775,4.4688,4.4715,4.4783,4.476,4.4805,4.4805,4.4922,4.4922,4.5078,4.5215,4.5156,4.5098,4.498,4.4863,4.5332,4.582,4.5957,4.5918,4.6055,4.5996,4.5664,4.5293,4.4961,4.5078,4.543,4.5371,4.5117,4.4844,4.0087,4.0087,4.0087,4.0087,4.0087,4.0087,4.0087,4.0087,4.0087,4.0087,4.0087,4.0087,4.0087,4.0254,4.0655,4.0903,4.1268,4.1943,4.2445,4.2777,4.3048,4.3483,4.3736,4.3954,4.4103,4.4103,4.4213,4.4305,4.4378,4.4232,4.4342,4.436,4.4176,4.4103,4.3479,4.3513,4.3679,4.402,4.4395,4.4748,4.5118,4.5419,4.5586,4.5586,4.5586,4.5586,4.5586,4.5586,4.5586,4.5586,4.5586,4.5586,4.5586,4.5586,4.5586,4.5586,4.5586,4.5586,4.5586,4.5586,4.5586,4.5586,4.5586,4.5586,4.5586,4.5586,4.5586,4.5586,4.5586,4.5586,4.5586,4.5586,4.5586,4.5586,4.5586,4.5586,4.5586,4.5586,4.5586,4.5586,4.5586,4.5586,4.5586,4.5586,4.5526,4.5315,4.5301,4.5324,4.5491,4.5589,4.5726,4.5801,4.5898,4.6055,4.6211,4.5957,4.5703,4.5781,4.5762,4.5918,4.6016,4.6289,4.6289,4.6172,4.6172,4.6269,4.6172,4.5937,4.6035,4.6152,4.6133,4.5996,4.5996,4.5723,4.5625,4.0087,4.0087,4.0087,4.0087,4.0087,4.0087,4.0087,4.0087,4.0087,4.0087,4.0087,4.0087,4.0138,4.0289,4.0748,4.1009,4.1284,4.1798,4.2391,4.2899,4.3396,4.3761,4.4306,4.4743,4.4893,4.5645,4.5571,4.5406,4.5626,4.5424,4.5535,4.5571,4.5333,4.4966,4.3663,4.3534,4.3716,4.4023,4.4467,4.4884,4.5033,4.5362,4.5568,4.5586,4.5586,4.5586,4.5586,4.5586,4.5586,4.5586,4.5586,4.5586,4.5586,4.5586,4.5586,4.5586,4.5586,4.5586,4.5586,4.5586,4.5586,4.5586,4.5586,4.5586,4.5586,4.5586,4.5586,4.5586,4.5586,4.5586,4.5586,4.5586,4.5586,4.5586,4.5586,4.5586,4.5586,4.5586,4.5586,4.5586,4.5586,4.5586,4.5586,4.5605,4.568,4.568,4.5757,4.5893,4.5982,4.6056,4.6093,4.6172,4.6269,4.6289,4.6289,4.6289,4.6211,4.6289,4.6289,4.6289,4.6289,4.6289,4.6289,4.6289,4.6289,4.6289,4.6289,4.625,4.6289,4.6289,4.6289,4.623,4.6289,4.623,4.6016,4.0087,4.0087,4.0087,4.0087,4.0087,4.0087,4.0087,4.0087,4.0087,4.0087,4.0087,4.0087,4.0426,4.0765,4.1036,4.1391,4.1934,4.2945,4.354,4.3616,4.4165,4.4967,4.5403,4.5479,4.5682,4.5846,4.5938,4.6012,4.5828,4.6067,4.5957,4.5902,4.6085,4.5627,4.5223,4.504,4.5,4.4672,4.499,4.5264,4.4933,4.5341,4.5643,4.5663,4.5663,4.5661,4.5605,4.5586,4.5586,4.5586,4.5586,4.5586,4.5586,4.5586,4.5586,4.5586,4.5586,4.5586,4.5586,4.5586,4.5586,4.5586,4.5586,4.5586,4.5586,4.5586,4.5586,4.5586,4.5586,4.5586,4.5586,4.5586,4.5586,4.5586,4.5586,4.5586,4.5586,4.5586,4.5586,4.5586,4.5586,4.5586,4.5586,4.5586,4.5661,4.568,4.5699,4.5776,4.587,4.5936,4.5996,4.6113,4.6211,4.6269,4.6289,4.6289,4.6289,4.6289,4.6289,4.6289,4.6289,4.6289,4.6289,4.6289,4.6289,4.6289,4.6289,4.6289,4.6289,4.6289,4.6289,4.6289,4.6289,4.6211,4.6055,4.0476,4.0493,4.0747,4.0832,4.0747,4.0307,4.0087,4.0087,4.0087,4.0206,4.0443,4.0493,4.0881,4.1424,4.1627,4.1728,4.2375,4.3026,4.368,4.3829,4.4476,4.5128,4.5661,4.6103,4.643,4.6483,4.6726,4.6801,4.6893,4.6783,4.6838,4.6893,4.6727,4.6819,4.658,4.6232,4.5608,4.5365,4.5649,4.5896,4.5791,4.6001,4.624,4.6144,4.6065,4.5969,4.5719,4.5605,4.5605,4.5624,4.5605,4.5586,4.5586,4.5586,4.5586,4.5586,4.5586,4.5586,4.5586,4.5586,4.5586,4.5586,4.5586,4.5586,4.5586,4.5586,4.5586,4.5586,4.5586,4.5586,4.5586,4.5586,4.5586,4.5586,4.5586,4.5586,4.5586,4.5586,4.5586,4.5586,4.5663,4.5643,4.5605,4.5586,4.5605,4.5605,4.5605,4.5757,4.5873,4.586,4.5927,4.6055,4.6152,4.6211,4.6269,4.6289,4.6289,4.6289,4.6289,4.6289,4.6289,4.6289,4.6289,4.6289,4.6289,4.6289,4.6289,4.6289,4.6289,4.6289,4.6289,4.6289,4.6289,4.6183,4.6027,4.1238,4.1339,4.1999,4.2219,4.2016,4.0832,4.0257,4.0256,4.0239,4.0646,4.1238,4.1213,4.1654,4.2236,4.232,4.2439,4.2698,4.2822,4.3302,4.358,4.4331,4.5132,4.5954,4.6409,4.687,4.7693,4.8031,4.7774,4.8177,4.7902,4.7939,4.8086,4.7902,4.7884,4.7497,4.6984,4.6269,4.6158,4.6321,4.6485,4.644,4.6975,4.6973,4.6877,4.6837,4.6604,4.6277,4.5932,4.5836,4.574,4.5643,4.5605,4.5586,4.5586,4.5586,4.5663,4.572,4.5797,4.5988,4.6065,4.5853,4.595,4.5797,4.5682,4.5586,4.5586,4.5586,4.5586,4.5586,4.5586,4.5586,4.5586,4.5586,4.5586,4.5586,4.5586,4.5586,4.5586,4.5586,4.5643,4.5778,4.5797,4.572,4.5682,4.62,4.6086,4.6201,4.6432,4.6394,4.5873,4.5925,4.5976,4.6074,4.6172,4.623,4.6328,4.6289,4.6289,4.6289,4.6289,4.6289,4.6308,4.6289,4.6289,4.6289,4.6289,4.6289,4.6289,4.6289,4.6289,4.6308,4.623,4.6221,4.6127,4.6018,4.1965,4.2016,4.2219,4.2303,4.2236,4.1847,4.1644,4.1679,4.1648,4.1801,4.1999,4.1997,4.2404,4.3081,4.3098,4.342,4.3892,4.4451,4.5075,4.5269,4.5192,4.616,4.6813,4.7097,4.7409,4.7727,4.8084,4.8379,4.8288,4.8324,4.8324,4.8288,4.8324,4.8324,4.8159,4.7827,4.7259,4.6966,4.7095,4.7067,4.7016,4.7367,4.7379,4.7467,4.7626,4.7395,4.7221,4.6721,4.6586,4.6509,4.5913,4.5643,4.5586,4.5624,4.574,4.6491,4.6606,4.6759,4.7237,4.7354,4.7105,4.6623,4.6527,4.6086,4.5836,4.5663,4.5663,4.5586,4.5586,4.5586,4.5586,4.5586,4.5719,4.5815,4.5853,4.5911,4.595,4.6065,4.6065,4.6142,4.624,4.6317,4.6201,4.6719,4.7162,4.6913,4.6855,4.7067,4.7028,4.6527,4.6304,4.6386,4.6426,4.6641,4.6406,4.6426,4.6348,4.6289,4.6484,4.6543,4.6406,4.6406,4.6328,4.6387,4.6504,4.6426,4.6289,4.6367,4.6601,4.6348,4.6308,4.6211,4.6138,4.6074,4.5969,4.2438,4.2794,4.3081,4.32,4.32,4.32,4.32,4.3102,4.2584,4.2447,4.276,4.2718,4.316,4.377,4.3893,4.4096,4.4524,4.5052,4.5614,4.5812,4.6446,4.6982,4.7404,4.7833,4.7962,4.8101,4.8323,4.871,4.8508,4.8343,4.8324,4.8324,4.8324,4.8324,4.8269,4.8177,4.8012,4.7772,4.772,4.7646,4.7671,4.7767,4.7927,4.8037,4.8275,4.8299,4.8145,4.7548,4.7432,4.7375,4.6738,4.6623,4.6604,4.666,4.6719,4.7356,4.7395,4.7567,4.7871,4.7951,4.7758,4.7528,4.7355,4.7144,4.6547,4.6163,4.5836,4.5586,4.5586,4.5586,4.5586,4.5624,4.5873,4.6084,4.62,4.6296,4.645,4.6623,4.67,4.6777,4.6874,4.7009,4.7298,4.7835,4.8028,4.7663,4.7529,4.7664,4.7663,4.7372,4.7237,4.7298,4.7233,4.7246,4.6989,4.6901,4.709,4.7226,4.7422,4.7344,4.69,4.6738,4.6875,4.6855,4.6816,4.6875,4.707,4.6933,4.6992,4.6855,4.6794,4.6717,4.6533,4.6106,4.6005,4.2724,4.3445,4.4282,4.4451,4.4553,4.4468,4.4468,4.4418,4.3186,4.2861,4.3415,4.3524,4.3861,4.435,4.4401,4.4553,4.4925,4.5411,4.5971,4.5903,4.6448,4.7084,4.7765,4.8277,4.8243,4.8675,4.9035,4.923,4.8763,4.8783,4.8893,4.8453,4.8489,4.8489,4.8343,4.8324,4.8214,4.8177,4.8179,4.82,4.8542,4.8754,4.8877,4.877,4.8799,4.8798,4.8452,4.8241,4.8202,4.8201,4.8047,4.7931,4.7873,4.7852,4.7931,4.8182,4.8222,4.8471,4.8642,4.8759,4.851,4.8318,4.8183,4.799,4.7432,4.6854,4.6506,4.6065,4.6028,4.6046,4.6046,4.6123,4.6296,4.67,4.6989,4.7124,4.7317,4.7413,4.7432,4.7567,4.7836,4.7932,4.7836,4.8317,4.8894,4.8452,4.851,4.8606,4.851,4.8392,4.8123,4.8105,4.7874,4.7798,4.7913,4.7874,4.8116,4.8301,4.8321,4.8079,4.7559,4.7462,4.748,4.7486,4.7543,4.7897,4.8066,4.7891,4.7812,4.7988,4.7863,4.7482,4.7086,4.6645,4.6073,4.3162,4.3448,4.4243,4.457,4.457,4.457,4.457,4.4553,4.4231,4.4113,4.4282,4.4311,4.4412,4.4722,4.4773,4.4976,4.5466,4.5855,4.6411,4.6792,4.714,4.7394,4.7742,4.8228,4.8405,4.8802,4.9301,4.9888,4.9896,4.9958,4.9829,4.9349,4.9242,4.9022,4.8453,4.8434,4.8434,4.8324,4.8306,4.8399,4.8624,4.8781,4.8888,4.9039,4.9178,4.9529,4.9338,4.918,4.9144,4.9048,4.8375,4.8144,4.8086,4.8125,4.8491,4.8933,4.9106,4.9356,4.9644,4.974,4.9548,4.9221,4.901,4.8644,4.8202,4.7757,4.7313,4.6854,4.6565,4.6583,4.6602,4.6681,4.6873,4.7373,4.7835,4.8009,4.8202,4.8241,4.824,4.849,4.8817,4.8779,4.8644,4.8875,4.9394,4.974,4.999,5.0106,4.9971,4.9759,4.897,4.8779,4.8356,4.8309,4.8549,4.8787,4.8972,4.8883,4.8787,4.8508,4.8236,4.8028,4.7895,4.8182,4.8381,4.872,4.8853,4.8672,4.8691,4.9011,4.8729,4.8275,4.8075,4.7717,4.6775,4.2925,4.3366,4.4253,4.457,4.457,4.457,4.457,4.466,4.4936,4.5106,4.5094,4.5122,4.5257,4.55,4.5551,4.5652,4.621,4.6566,4.7089,4.7539,4.792,4.8095,4.8294,4.8489,4.8997,4.9415,4.9912,5.0441,5.089,5.075,5.042,5.0178,5.0013,4.9685,4.8987,4.8859,4.8673,4.8324,4.8398,4.8563,4.871,4.879,4.8816,4.9011,4.9295,4.9711,4.9853,4.9698,4.9771,4.974,4.9433,4.9394,4.9394,4.9394,4.9567,4.9836,5.0029,5.0163,5.0548,5.0606,5.0471,5.0067,4.9952,4.9606,4.9644,4.9182,4.8489,4.8028,4.7488,4.7409,4.7412,4.7471,4.7911,4.841,4.8719,4.8913,4.9298,4.9586,4.9567,4.9644,4.9837,4.9837,4.976,4.9798,5.0221,5.0221,5.0606,5.0625,5.0664,5.0683,4.999,4.9529,4.9144,4.9221,4.9643,4.9738,4.9757,4.9567,4.9317,4.9238,4.9073,4.8564,4.8318,4.876,4.9176,4.9503,4.9556,4.9457,4.9729,5.0104,4.9606,4.8974,4.8848,4.874,4.8009,4.2332,4.3229,4.4064,4.444,4.4457,4.4587,4.4654,4.4863,4.5422,4.5841,4.6058,4.6052,4.6414,4.6608,4.6786,4.6853,4.7022,4.731,4.7785,4.8192,4.864,4.868,4.8931,4.9382,4.9644,5.0139,5.0722,5.1043,5.1426,5.1393,5.1375,5.1041,5.0805,5.057,4.9981,4.9706,4.9499,4.9114,4.9077,4.9205,4.9114,4.8948,4.903,4.9061,4.9198,4.9396,4.9769,4.9955,5.0174,5.0268,5.0355,5.0317,5.0337,5.0279,5.0356,5.051,5.0491,5.0567,5.0683,5.0683,5.0644,5.0606,5.0683,5.0664,5.0587,5.024,4.9548,4.9105,4.8603,4.8275,4.8259,4.8355,4.8835,4.9296,4.9548,4.974,5.0202,5.0683,5.0741,5.0741,5.0702,5.0721,5.0644,5.0702,5.0683,5.0683,5.0683,5.0683,5.0683,5.0683,5.0375,5.0202,5.0067,5.0279,5.0529,5.0414,5.026,5.0279,5.0029,5.0029,4.9913,4.949,4.9336,4.9567,4.9946,5.0186,5.0332,5.0326,5.069,5.0856,5.0408,4.9803,4.9708,4.9548,4.926,4.1478,4.2316,4.3169,4.3562,4.368,4.4327,4.4908,4.5415,4.5677,4.6316,4.7192,4.7383,4.7315,4.6802,4.6786,4.7056,4.7716,4.8003,4.8376,4.8781,4.8883,4.8968,4.9097,4.9402,4.9972,5.0608,5.1387,5.2091,5.2163,5.2435,5.2357,5.182,5.1742,5.1381,5.0707,5.0505,5.0417,5.0068,5.005,5.0251,5.0218,5.0071,4.9926,5.0208,5.0708,5.0842,5.0916,5.0703,5.0835,5.0899,5.0867,5.0777,5.0818,5.0856,5.0894,5.1106,5.1068,5.0933,5.0971,5.0914,5.0914,5.0683,5.0683,5.0683,5.0644,5.0625,5.0183,5.0106,4.9644,4.9239,4.9163,4.9144,4.9471,5.0029,5.0394,5.0471,5.0721,5.1202,5.1529,5.1414,5.1318,5.1125,5.0818,5.0798,5.0683,5.0683,5.0683,5.0702,5.0875,5.0818,5.0741,5.0856,5.0894,5.0683,5.0644,5.0625,5.0529,5.0644,5.0664,5.0471,5.0394,5.051,5.0452,5.0279,5.0471,5.0731,5.0883,5.0778,5.0871,5.0914,5.0895,5.0625,5.0491,5.0298,4.9933]},{"header":{"parameterUnit":"m.s-1","parameterCategory":1,"la1":31.0,"la2":29.5877,"lo1":-88.7671,"lo2":-86.6584,"dy":0.0162,"dx":0.0185,"nx":115,"ny":88,"refTime":"2023-09-18T12:00:00:Z","depth":0,"parameterNumber":3,"parameterNumberName":"V-component_of_WINDS"},"data":[0.0,0.0,0.0,0.0,0.0,0.0,0.0,0.0,0.0,0.0,0.0,0.0,0.0,0.0,0.0,0.0,0.0,0.0,0.0,0.0,0.0,0.0,0.0,0.0,0.0,0.0,0.0,0.0,0.0,0.0,0.0,0.0,0.0,0.0,0.0,0.0,0.0,0.0,0.0,0.0,0.0,0.0,0.0,0.0,0.0,0.0,0.0,0.0,0.0,0.0,0.0,0.0,0.0,0.0,0.0,0.0,0.0,0.0,0.0,0.0,0.0,0.0,0.0,0.0,0.0,0.0,0.0,0.0,0.0,0.0,0.0,0.0,0.0,0.0,0.0,0.0,0.0,0.0,0.0,0.0,0.0,0.0,0.0,0.0,0.0,0.0,0.0,0.0,0.0,0.0,0.0,0.0,0.0,0.0,0.0,0.0,0.0,0.0,0.0,0.0,0.0,0.0,0.0,0.0,0.0,0.0,0.0,0.0,0.0,0.0,0.0,0.0,0.0,0.0,0.0,0.0,0.0,0.0,0.0,0.0,0.0,0.0,0.0,0.0,0.0,0.0,0.0,0.0,0.0,0.0,0.0,0.0,0.0,0.0,0.0,0.0,0.0,0.0,0.0,0.0,0.0,0.0,0.0,0.0,0.0,0.0,0.0,0.0,0.0,0.0,0.0,0.0,0.0,0.0,0.0,0.0,0.0,0.0,0.0,0.0,0.0,0.0,0.0,0.0,0.0,0.0,0.0,0.0,0.0,0.0,0.0,0.0,0.0,0.0,0.0,0.0,0.0,0.0,0.0,0.0,0.0,0.0,0.0,0.0,0.0,0.0,0.0,0.0,0.0,0.0,0.0,0.0,0.0,0.0,0.0,0.0,0.0,0.0,0.0,0.0,0.0,0.0,0.0,0.0,0.0,0.0,0.0,0.0,0.0,0.0,0.0,0.0,0.0,0.0,0.0,0.0,0.0,0.0,0.0,0.0,0.0,0.0,0.0,0.0,0.0,0.0,0.0,0.0,0.0,0.0,0.0,0.0,0.0,0.0,0.0,0.0,0.0,0.0,0.0,0.0,0.0,0.0,0.0,0.0,0.0,0.0,0.0,0.0,0.0,0.0,0.0,0.0,0.0,0.0,0.0,0.0,0.0,0.0,0.0,0.0,0.0,0.0,0.0,0.0,0.0,0.0,0.0,0.0,0.0,0.0,0.0,0.0,0.0,0.0,0.0,0.0,0.0,0.0,0.0,0.0,0.0,0.0,0.0,0.0,0.0,0.0,0.0,0.0,0.0,0.0,0.0,0.0,0.0,0.0,0.0,0.0,0.0,0.0,0.0,0.0,0.0,0.0,0.0,0.0,0.0,0.0,0.0,0.0,0.0,0.0,0.0,0.0,0.0,0.0,0.0,0.0,0.0,0.0,0.0,0.0,0.0,0.0,0.0,0.0,0.0,0.0,0.0,0.0,0.0,0.0,0.0,0.0,0.0,0.0,0.0,0.0,0.0,0.0,0.0,0.0,0.0,0.0,0.0,0.0,0.0,0.0,0.0,0.0,0.0,0.0,0.0,0.0,0.0,0.0,0.0,0.0,0.0,0.0,0.0,0.0,0.0,0.0,0.0,0.0,0.0,0.0,0.0,0.0,0.0,0.0,0.0,0.0,0.0,0.0,0.0,0.0,0.0,0.0,0.0,0.0,0.0,0.0,0.0,0.0,0.0,0.0,0.0,0.0,0.0,0.0,0.0,0.0,0.0,0.0,0.0,0.0,0.0,0.0,0.0,0.0,0.0,0.0,0.0,0.0,0.0,0.0,0.0,0.0,0.0,0.0,0.0,0.0,0.0,0.0,0.0,0.0,0.0,0.0,0.0,0.0,0.0,0.0,0.0,0.0,0.0,0.0,0.0,0.0,0.0,0.0,0.0,0.0,0.0,0.0,0.0,0.0,0.0,0.0,0.0,0.0,0.0,0.0,0.0,0.0,0.0,0.0,0.0,0.0,0.0,0.0,0.0,0.0,0.0,0.0,0.0,0.0,0.0,0.0,0.0,0.0,0.0,0.0,0.0,0.0,0.0,0.0,0.0,0.0,0.0,0.0,0.0,0.0,0.0,0.0,0.0,0.0,0.0,0.0,0.0,0.0,0.0,0.0,0.0,0.0,0.0,0.0,0.0,0.0,0.0,0.0,0.0,0.0,0.0,0.0,0.0,0.0,0.0,0.0,0.0,0.0,0.0,0.0,0.0,0.0,0.0,0.0,0.0,0.0,0.0,0.0,0.0,0.0,0.0,0.0,0.0,0.0,0.0,0.0,0.0,0.0,0.0,0.0,0.0,0.0,0.0,0.0,0.0,0.0,0.0,0.0,0.0,0.0,0.0,0.0,0.0,0.0,0.0,0.0,0.0,0.0,0.0,0.0,0.0,0.0,0.0,0.0,0.0,0.0,0.0,0.0,0.0,0.0,0.0,0.0,0.0,0.0,0.0,0.0,0.0,0.0,0.0,0.0,0.0,0.0,0.0,0.0,0.0,0.0,0.0,0.0,0.0,0.0,0.0,0.0,0.0,0.0,0.0,0.0,0.0,0.0,0.0,0.0,0.0,0.0,0.0,0.0,0.0,0.0,0.0,0.0,0.0,0.0,0.0,0.0,0.0,0.0,0.0,0.0,0.0,0.0,0.0,0.0,0.0,0.0,0.0,0.0,0.0,0.0,0.0,0.0,0.0,0.0,0.0,0.0,0.0,0.0,0.0,0.0,0.0,0.0,0.0,0.0,0.0,0.0,0.0,0.0,0.0,0.0,0.0,0.0,0.0,0.0,0.0,0.0,0.0,0.0,0.0,0.0,0.0,0.0,0.0,0.0,0.0,0.0,0.0,0.0,0.0,0.0,0.0,0.0,0.0,0.0,0.0,0.0,0.0,0.0,0.0,0.0,0.0,0.0,0.0,0.0,0.0,0.0,0.0,0.0,0.0,0.0,0.0,0.0,0.0,0.0,0.0,0.0,0.0,0.0,0.0,0.0,0.0,0.0,0.0,0.0,0.0,0.0,0.0,0.0,0.0,0.0,0.0,0.0,0.0,0.0,0.0,0.0,0.0,0.0,0.0,0.0,0.0,0.0,0.0,0.0,0.0,0.0,0.0,0.0,0.0,0.0,0.0,0.0,0.0,0.0,0.0,0.0,0.0,0.0,0.0,0.0,0.0,0.0,0.0,0.0,0.0,0.0,0.0,0.0,0.0,0.0,0.0,0.0,0.0,0.0,0.0,0.0,0.0,0.0,0.0,0.0,0.0,0.0,0.0,0.0,0.0,0.0,0.0,0.0,0.0,0.0,0.0,0.0,0.0,0.0,0.0,0.0,0.0,0.0,0.0,0.0,0.0,0.0,0.0,0.0,0.0,0.0,0.0,0.0,0.0,0.0,0.0,0.0,0.0,0.0,0.0,0.0,0.0,0.0,0.0,0.0,0.0,0.0,0.0,0.0,0.0,0.0,0.0,0.0,0.0,0.0,0.0,0.0,0.0,0.0,0.0,0.0,0.0,0.0,0.0,0.0,0.0,0.0,0.0,0.0,0.0,0.0,0.0,0.0,0.0,0.0,0.0,0.0,0.0,0.0,0.0,0.0,0.0,0.0,0.0,0.0,0.0,0.0,0.0,0.0,0.0,0.0,0.0,0.0,0.0,0.0,0.0,0.0,0.0,0.0,0.0,0.0,0.0,0.0,0.0,0.0,0.0,0.0,0.0,0.0,0.0,0.0,0.0,0.0,0.0,0.0,0.0,0.0,0.0,0.0,0.0,0.0,0.0,0.0,0.0,0.0,0.0,0.0,0.0,0.0,0.0,0.0,0.0,0.0,0.0,0.0,0.0,0.0,0.0,0.0,0.0,0.0,0.0,0.0,0.0,0.0,0.0,0.0,0.0,0.0,0.0,0.0,0.0,0.0,0.0,0.0,0.0,0.0,0.0,0.0,0.0,0.0,0.0,0.0,0.0,0.0,0.0,0.0,0.0,0.0,0.0,0.0,0.0,0.0,0.0,0.0,0.0,0.0,0.0,0.0,0.0,0.0,0.0,0.0,0.0,0.0,0.0,0.0,0.0,0.0,0.0,0.0,0.0,0.0,0.0,0.0,0.0,0.0,0.0,0.0,0.0,0.0,0.0,0.0,0.0,0.0,0.0,0.0,0.0,0.0,0.0,0.0,0.0,0.0,0.0,0.0,0.0,0.0,0.0,0.0,0.0,0.0,0.0,0.0,0.0,0.0,0.0,0.0,0.0,0.0,0.0,0.0,0.0,0.0,0.0,0.0,0.0,0.0,0.0,0.0,0.0,0.0,0.0,0.0,0.0,0.0,0.0,0.0,0.0,0.0,0.0,0.0,0.0,0.0,0.0,0.0,0.0,0.0,0.0,0.0,0.0,0.0,0.0,0.0,0.0,0.0,0.0,0.0,0.0,0.0,0.0,0.0,0.0,0.0,0.0,0.0,0.0,0.0,0.0,0.0,0.0,0.0,0.0,0.0,0.0,0.0,0.0,0.0,0.0,0.0,0.0,0.0,0.0,0.0,0.0,0.0,0.0,0.0,0.0,0.0,0.0,0.0,0.0,0.0,0.0,0.0,0.0,0.0,0.0,0.0,0.0,0.0,0.0,0.0,0.0,0.0,0.0,0.0,0.0,0.0,0.0,0.0,0.0,0.0,0.0,0.0,0.0,0.0,0.0,0.0,0.0,0.0,0.0,0.0,0.0,0.0,0.0,0.0,0.0,0.0,0.0,0.0,0.0,0.0,0.0,0.3067,0.3388,0.1178,0.0,0.0,0.0,0.0,0.0,0.0,0.0,0.0,0.0,0.0,0.0,0.0,0.0,0.0,0.0,0.0,0.0,0.0,0.0,0.0,0.0,0.0,0.0,0.0,0.0,0.0,0.0,0.0,0.0,0.0,0.0,0.0,0.0,0.0,0.0,0.0,0.0,0.0,0.0,0.0,0.0,0.0,0.0,0.0,0.0,0.0,0.0,0.0,0.0,0.0,0.0,0.0,0.0,0.0,0.0,0.0,0.0,0.0,0.0,0.0,0.0,0.0,0.0,0.0,0.0,0.0,0.0,0.0,0.0,0.0,0.0,0.0,0.0,0.0,0.0,0.0,0.0,0.0,0.0,0.0,0.0,0.0,0.0,0.0,0.0,0.0,0.0,0.0,0.0,0.0,0.0,0.0,0.0,0.0,0.0,0.0,0.0,0.0,0.0,0.0,0.0,0.0,0.0,0.0,0.0,0.0,0.0,0.0,0.0,0.0,0.0,0.0,0.0,0.0,0.3104,0.1006,0.0,0.0,0.0,0.0,0.0,0.0,0.0,0.0,0.0,0.0,0.0,0.0,0.0,0.0,0.0,0.0,0.0,0.0,0.0,0.0,0.0,0.0,0.0,0.0,0.0,0.0,0.0,0.0,0.0,0.0,0.0,0.0,0.0,0.0,0.0,0.0,0.0,0.0,0.0,0.0,0.0,0.0,0.0,0.0,0.0,0.0,0.0,0.0,0.0,0.0,0.0,0.0,0.0,0.0,0.0,0.0,0.0,0.0,0.0,0.0,0.0,0.0,0.0,0.0,0.0,0.0,0.0,0.0,0.0,0.0,0.0,0.0,0.0,0.0,0.0,0.0,0.0,0.0,0.0,0.0,0.0,0.0,0.0,0.0,0.0,0.0,0.0,0.0,0.0,0.0,0.0,0.0,0.0,0.0,0.0,0.0,0.0,0.0,0.0,0.0,0.0,0.0,0.0,0.0,0.0,0.0,0.0,0.0,0.0,0.0,0.0,0.2003,0.6148,0.5858,0.0,0.0,0.0,0.0,0.0,0.0,0.0,0.0,0.0,0.0,0.0,0.0,0.0,0.0,0.0,0.0,0.0,0.0,0.0,0.0,0.0,0.0,0.0,0.0,0.0,0.0,0.0,0.0,0.0,0.0,0.0,0.0,0.0,0.0,0.0,0.0,0.0,0.0,0.0,0.0,0.0,0.0,0.0,0.0,0.0,0.0,0.0,0.0,0.0,0.0,0.0,0.0,0.0,0.0,0.0,0.0,0.0,0.0,0.0,0.0,0.0,0.0,0.0,0.0,0.0,0.0,0.0,0.0,0.0,0.0,0.0,0.0,0.0,0.0,0.0,0.0,0.0,0.0,0.0,0.0,0.0,0.0,0.0,0.0,0.0,0.0,0.0,0.0,0.0,0.0,0.0,0.0,0.0,0.0,0.0,0.0,0.0,0.0,0.0,0.0,0.0,0.0,0.0,0.0,0.0,0.0,0.0,0.0,0.0,0.0,0.0,0.0,0.0821,0.2562,0.2549,0.1778,0.0,0.0,0.0,0.0,0.0,0.0,0.0,0.0,0.0,0.0,0.0,0.0,0.0,0.0,0.0,0.0,0.0,0.0,0.0,0.0,0.0,0.0,0.0,0.0,0.0,0.0,0.0,0.0,0.0,0.0,0.0,0.0,0.0,0.0,0.0,0.0,0.0,0.0,0.0,0.0,0.0,0.0,0.0,0.0,0.0,0.0,0.0,0.0,0.0,0.0,0.0,0.0,0.0,0.0,0.0,0.0,0.0,0.0,0.0,0.0,0.0,0.0,0.0,0.0,0.0,0.0,0.0,0.0,0.0,0.0,0.0,0.0,0.0,0.0,0.0,0.0,0.0,0.0,0.0,0.0,0.0,0.0,0.0,0.0,0.0,0.0,0.0,0.0,0.0,0.0,0.0,0.0,0.0,0.0,0.0,0.0,0.0,0.0,0.0,0.0,0.0,0.0,0.0,0.0,0.0,0.0,0.0,0.0,0.0,0.0,0.0,0.0,0.0,0.0,0.0,0.0,0.0,0.0,0.0,0.0,0.0,0.0,0.0,0.0,0.0,0.0,0.0,0.0,0.0,0.0,0.0,0.0,0.0,0.0,0.0,0.0,0.0,0.0,0.0,0.0,0.0,0.0,0.0,0.0,0.0,0.0,0.0,0.0,0.0,0.0,0.0,0.0,0.0,0.0,0.0,0.0,0.0,0.0,0.0,0.0,0.0,0.0,0.0,0.0,0.0,0.0,0.0,0.0,0.0,0.0,0.0,0.0,0.0,0.0,0.0,0.0,0.0,0.0,0.0,0.0,0.0,0.0,0.0,0.0,0.0,0.0,0.0,0.0,0.0,0.0,0.0,0.0,0.0,0.0,0.0,0.0,0.0,0.0,0.0,0.0,0.0,0.0,0.0,0.0,0.0,0.0,0.0,0.0,0.0,0.0,0.0,0.0,0.0,0.0,0.0,0.0,0.0,0.0,0.0,0.0,0.0,0.0,0.0,0.0,0.0,0.0,0.0,0.0,0.0,0.0,0.0,0.0,0.0,0.0,0.0,0.0,0.0,0.0,0.0,0.0,0.0,0.0,0.0,0.0,0.0,0.0,0.0,0.0,0.0,0.0,0.0,0.0,0.0,0.0,0.0,0.0,0.0,0.0,0.0,0.0,0.0,0.0,0.0,0.0,0.0,0.0,0.0,0.0,0.0,0.0,0.0,0.0,0.0,0.0,0.0,0.0,0.0,0.0,0.0,0.0,0.0,0.0,0.0,0.0,0.0,0.0,0.0,0.0,0.0,0.0,0.0,0.0,0.0,0.0,0.0,0.0,0.0,0.0,0.0,0.0,0.0,0.0,0.0,0.0,0.0,0.0,0.0,0.0,0.0,0.0,0.0,0.0,0.0,0.0,0.0,0.0,0.0,0.0,0.0,0.0,0.0,0.0,0.0,0.0,0.0,0.0,0.0,0.0,0.0,0.0,0.0,0.0,0.0,0.0,0.0,0.0,0.0,0.0,0.0,0.0,0.0,0.0,0.0,0.0,0.0,0.0,0.0,0.0,0.0,0.0,0.0,0.0,0.0,0.0,0.0,0.0,0.0,0.0,0.0,0.0,0.0,0.0,0.0,0.0,0.0,0.0,0.0,0.0,0.0,0.0,0.0,0.0,0.0,0.0,0.0,0.0,0.0,0.0,0.0,0.0,0.0,0.0,0.0,0.0,0.0,0.0,0.0,0.0,0.0,0.0,0.0,0.0,0.0,0.0,0.0,0.0,0.0,0.0,0.0,0.0,0.0,0.0,0.0,0.0,0.0,0.0,0.0,0.0,0.0,0.0,0.0,0.0,0.0,0.0,0.0,0.0,0.0,0.0,0.0,0.0,0.0,0.0,0.0,0.0,0.0,0.0,0.0,0.0,0.0,0.0,0.0,0.0,0.0,0.0,0.0,0.0,0.0,0.0,0.0,0.0,0.0,0.0,0.0,0.0,0.0,0.0,0.0,0.0,0.0,0.0,0.0,0.0,0.0,0.0,0.0,0.0,0.0,0.0,0.0,0.0,0.0,0.0,0.0,0.0,0.0,0.0,0.0,0.0,0.0,0.0,0.0,0.0,0.0,0.0,0.0,0.0,0.0,0.0,0.0,0.0,0.0,0.0,0.0,0.0,0.0,0.0,0.0,0.0,0.0,0.0,0.0,0.0,0.0,0.0,0.0,0.0,0.0,0.0,0.0,0.0,0.0,0.0,0.0,0.0,0.0,0.0,0.0,0.0,0.0,0.0,0.0,0.0,0.0,0.0,0.0,0.0,0.0,0.0,0.0,0.0,0.0,0.0,0.0,0.0,0.0,0.0,0.0,0.0,0.0,0.0,0.0,0.0,0.0,0.0,0.0,0.0,0.0,0.0,0.0,0.0,0.0,0.0,0.0,0.0,0.0,0.0,0.0,0.0,0.0,0.0,0.0,0.0,0.0,0.0,0.0,0.0,0.0,0.0,0.0,0.0,0.0,0.0,0.0,0.0,0.0,0.0,0.0,0.0,0.0,0.0,0.0,0.0,0.0,0.0,0.0,0.0,0.0,0.0,0.0,0.0,0.0,0.0,0.0,0.0,0.0,0.0,0.0,0.0,0.0,0.0,0.0,0.0,0.0,0.0,0.0,0.0,0.0,0.0,0.0,0.0,0.0,0.0,0.0,0.0,0.0,0.0,0.0,0.0,0.0,0.0,0.0,0.0,0.0,0.0,0.0,0.0,0.0,0.0,0.0,0.0,0.0,0.0,0.0,0.0,0.0,0.0,0.0,0.0,0.0,0.0,0.0,0.0,0.0,0.0,0.0,0.0,0.0,0.0,0.0,0.0,0.0,0.0,0.0,0.0,0.0,0.0,0.0,0.0,0.0,0.0,0.0,0.0,0.0,0.0,0.0,0.0,0.0,0.0,0.0,0.0,0.0,0.0,0.0,0.0,0.0,0.0,0.0,0.0,0.0,0.0,0.0,0.0,0.0,0.0,0.0,0.0,0.0,0.0,0.0,0.0,0.0,0.0,0.0,0.0,0.0,0.0,0.0,0.0,0.0,0.0,0.0,0.0,0.0,0.0,0.0,0.0,0.0,0.0,0.0,0.0,0.0,0.0,0.0,0.0,0.0,0.0,0.0,0.0,0.0,0.0,0.0,0.0,0.0,0.0,0.0,0.0,0.0,0.0,0.0,0.0,0.0,0.0,0.0,0.0,0.0,0.0,0.0,0.0,0.0,0.0,0.0,0.0,0.0,0.0,0.0,0.0,0.0,0.0,0.0,0.0,0.0,0.0,0.0,0.0,0.0,0.0,0.0,0.0,0.0,0.0,0.0,0.0,0.0,0.0,0.0,0.0,0.0,0.0,0.0,0.0,0.0,0.0,0.0,0.0,0.0,0.0,0.0,0.0,0.0,0.0,0.0,0.0,0.0,0.0,0.0,0.0,0.0,0.0,0.0,0.0,0.0,0.0,0.0,0.0,0.0,0.0,0.0,0.0,0.0,0.0,0.0,0.0,0.0,0.0,0.0,0.0,0.0,0.0,0.0,0.0,0.0,0.0,0.0,0.0,-0.05,-0.1598,0.0,0.0,0.0,0.0,0.0,0.0,0.0,0.0,0.0,0.0,0.0,0.0,0.0,0.0,0.0,0.0,0.0,0.0,0.0,0.0,0.0,0.0,0.0,0.0,0.0,0.0,0.0,0.0,0.0,0.0,0.0,0.0,0.0,0.0,0.0,0.0,0.0,0.0,0.0,0.0,0.0,0.0,0.0,0.0,0.0,0.0,0.0,0.0,0.0,0.0,0.0,0.0,0.0,0.0,0.0,0.0,0.0,0.0,0.0,0.0,0.0,0.0,0.0,0.0,0.0,0.0,0.0,0.0,0.0,0.0,0.0,0.0,0.0,0.0,0.0,0.0,0.0,0.0,0.0,0.0,0.0,0.0,0.0,0.0,0.0,0.0,0.0,0.0,0.0,0.0,0.0,0.0,0.0,0.0,0.0,0.0,0.0,0.0,0.0,0.0,0.0,0.0,0.0,0.0,0.0,0.0,0.0,0.0,0.0,0.0,0.0,0.0,0.0,-0.1657,0.0,0.0,0.0,0.0,0.0,0.0,0.0,0.0,0.0,0.0,0.0,0.0,0.0,0.0,0.0,0.0,0.0,0.0,0.0,0.0,0.0,0.0,0.0,0.0,0.0,0.0,0.0,0.0,0.0,0.0,0.0,0.0,0.0,0.0,0.0,0.0,0.0,0.0,0.0,0.0,0.0,0.0,0.0,0.0,0.0,0.0,0.0,0.0,0.0,0.0,0.0,0.0,0.0,0.0,0.0,0.0,0.0,0.0,0.0,0.0,0.0,0.0,0.0,0.0,0.0,0.0,0.0,0.0,0.0,0.0,0.0,0.0,0.0,0.0,0.0,0.0,0.0,0.0,0.0,0.0,0.0,0.0,0.0,0.0,0.0,0.0,0.0,0.0,0.0,0.0,0.0,0.0,0.0,0.0,0.0,0.0,0.0,0.0,0.0,0.0,0.0,0.0,0.0,0.0,0.0,0.0,0.0,0.0,0.0,0.0,-0.3021,-0.4615,-0.4607,-0.42,-0.4267,0.0,0.0,0.0,0.0,0.0,0.0,0.0,0.0,0.0,0.0,0.0,0.0,0.0,0.0,0.0,0.0,0.0,0.0,0.0,0.0,0.0,0.0,0.0,0.0,0.0,0.0,0.0,0.0,0.0,0.0,0.0,0.0,0.0,0.0,0.0,0.0,0.0,0.0,0.0,0.0,0.0,0.0,0.0,0.0,0.0,0.0,0.0,0.0,0.0,0.0,0.0,0.0,0.0,0.0,0.0,0.0,0.0,0.0,0.0,0.0,0.0,0.0,0.0,0.0,0.0,0.0,0.0,0.0,0.0,0.0,0.0,0.0,0.0,0.0,0.0,0.0,0.0,0.0,0.0,0.0,0.0,0.0,0.0,0.0,0.0,0.0,0.0,0.0,0.0,0.0,0.0,0.0,0.0,0.0,0.0,0.0,0.0,0.0,0.0,0.0,0.0,0.0,0.0,0.0,0.0,0.0,0.0,0.0,0.1802,0.0,-0.3846,-0.6066,-0.6276,-0.5988,-0.551,0.0,0.0,0.0,0.0,0.0,0.0,0.0,0.0,0.0,0.0,0.0,0.0,0.0,0.0,0.0,0.0,0.0,0.0,0.0,0.0,0.0,0.0,0.0,0.0,0.0,0.0,0.0,0.0,0.0,0.0,0.0,0.0,0.0,0.0,0.0,0.0,0.0,0.0,0.0,0.0,0.0,0.0,0.0,0.0,0.0,0.0,0.0,0.0,0.0,0.0,0.0,0.0,0.0,0.0,0.0,0.0,0.0,0.0,0.0,0.0,0.0,0.0,0.0,0.0,0.0,0.0,0.0,0.0,0.0,0.0,0.0,0.0,0.0,0.0,0.0,0.0,0.0,0.0,0.0,0.0,0.0,0.0,0.0,0.0,0.0,0.0,0.0,0.0,0.0,0.0,0.0,0.0,0.0,0.0,0.0,0.0,0.0,0.0,0.0,0.0,0.0,0.0,0.0,0.0,0.0,0.0,0.0,0.0,0.4382,0.0402,-0.3233,-0.5451,-0.6118,-0.6244,-0.5905,0.0,0.0,0.0,0.0,0.0,0.0,0.0,0.0,0.0,0.0,0.0,0.0,0.0,0.0,0.0,0.0,0.0,0.0,0.0,0.0,0.0,0.0,0.0,0.0,0.0,0.0,0.0,0.0,0.0,0.0,0.0,0.0,0.0,0.0,0.0,0.0,0.0,0.0,0.0,0.0,0.0,0.0,0.0,0.0,0.0,0.0,0.0,0.0,0.0,0.0,0.0,0.0,0.0,0.0,0.0,0.0,0.0,0.0,0.0,0.0,0.0,0.0,0.0,0.0,0.0,0.0,0.0,0.0,0.0,0.0,0.0,0.0,0.0,0.0,0.0,0.0,0.0,0.0,0.0,0.0,0.0,0.0,0.0,0.0,0.0,0.0,0.0,0.0,0.0,0.0,0.0,0.0,0.0,0.0,0.0,0.0,0.0,0.0,0.0,0.0,0.0,0.0,0.0,0.0,0.0,0.0,0.0,0.0,0.5035,0.2448,-0.1344,-0.4006,-0.5538,-0.5607,-0.5555,0.0,0.0,0.0,0.0,0.0,0.0,0.0,0.0,0.0,0.0,0.0,0.0,0.0,0.0,0.0,0.0,0.0,0.0,0.0,0.0,0.0,0.0,0.0,0.0,0.0,0.0,0.0,0.0,0.0,0.0,0.0,0.0,0.0,0.0,0.0,0.0,0.0,0.0,0.0,0.0,0.0,0.0,0.0,0.0,0.0,0.0,0.0,0.0,-0.5742,0.0,0.0,0.0,0.0,0.0,0.0,0.0,0.0,0.0,0.0,0.0,0.0,0.0,0.0,0.0,0.0,0.0,0.0,0.0,0.0,0.0,0.0,0.0,0.0,0.0,0.0,0.0,0.0,0.0,0.0,0.0,0.0,0.0,0.0,0.0,0.0,0.0,0.0,0.0,0.0,0.0,0.0,0.0,0.0,0.0,0.0,0.0,0.0,0.0,0.0,0.0,0.0,0.0,0.0,0.0,0.0,0.0,0.0,0.0,0.5089,0.3106,0.0144,-0.2724,-0.5252,-0.5406,-0.5409,0.0,0.0,0.0,0.0,0.0,0.0,0.0,0.0,0.0,0.0,0.0,0.0,0.0,0.0,0.0,0.0,0.0,0.0,0.0,0.0,0.0,0.0,0.0,0.0,0.0,0.0,0.0,0.0,0.0,0.0,0.0,0.0,0.0,0.0,0.0,0.0,0.0,0.0,0.0,0.0,0.0,0.0,0.0,0.0,0.0,0.0,0.0,0.0,0.0,0.0,0.0,0.0,0.0,0.0,0.0,0.0,0.0,0.0,0.0,0.0,0.0,0.0,0.0,0.0,0.0,0.0,0.0,0.0,0.0,0.0,0.0,0.0,0.0,0.0,0.0,0.0,0.0,0.0,0.0,0.0,0.0,0.0,0.0,0.0,0.0,0.0,0.0,0.0,0.0,0.0,0.0,0.0,0.0,0.0,0.0,0.0,0.0,0.0,0.0,0.0,0.0,0.0,0.0,0.0,0.0,0.0,0.0,0.5637,0.4993,0.3532,0.1193,-0.161,-0.4896,-0.5237,-0.5309,-0.5051,0.0,0.0,0.0,0.0,0.0,0.0,0.0,0.0,0.0,0.0,0.0,0.0,0.0,0.0,0.0,0.0,0.0,0.0,0.0,0.0,0.0,0.0,0.0,0.0,0.0,0.0,0.0,0.0,0.0,0.0,0.0,0.0,0.0,0.0,0.0,0.0,0.0,0.0,-0.2632,-0.4787,0.0,0.0,0.0,0.0,0.0,0.0,0.0,0.0,-0.6478,0.0,0.0,0.0,0.0,0.0,0.0,0.0,0.0,0.0,0.0,0.0,0.0,0.0,0.0,0.0,0.0,0.0,0.0,0.0,0.0,0.0,0.0,0.0,0.0,0.0,0.0,0.0,0.0,0.0,0.0,0.0,0.0,0.0,0.0,0.0,0.0,0.0,0.0,0.0,0.0,0.0,0.0,0.0,0.0,0.0,0.0,0.0,0.0,0.0,0.0,0.0,0.0,0.0,0.0,0.0,0.0,0.5372,0.5415,0.5439,0.5291,0.1844,-0.1011,-0.3057,-0.464,-0.5266,-0.4931,0.0,0.0,0.0,0.0,0.0,0.0,0.0,0.0,0.0,0.0,0.0,0.0,0.0,0.0,0.0,0.0,0.0,0.0,0.0,0.0,0.0,0.0,0.0,0.0,0.0,0.0,0.0,0.0,0.0,0.0,0.0,0.0,0.0,0.0,0.0,0.0,0.0,0.0,0.0,-0.401,-0.6617,0.0,0.0,0.0,0.0,0.0,0.0,0.0,0.0,-0.7605,0.0,0.0,0.0,0.0,0.0,0.0,0.0,0.0,0.0,0.0,0.0,0.0,0.0,0.0,0.0,0.0,0.0,0.0,0.0,0.0,0.0,0.0,0.0,0.0,0.0,0.0,0.0,0.0,0.0,0.0,0.0,0.0,0.0,0.0,0.0,0.0,0.0,0.0,0.0,0.0,0.0,0.0,0.0,0.0,0.0,0.0,0.0,0.0,0.0,0.0,0.0,0.0,0.0,0.0,0.0,0.5075,0.5352,0.5474,0.5501,0.2833,0.0067,-0.2611,-0.4298,-0.5107,0.0,0.0,0.0,0.0,0.0,0.0,0.0,0.0,0.0,0.0,0.0,0.0,0.0,0.0,0.0,0.0,0.0,0.0,0.0,0.0,0.0,0.0,0.0,0.0,0.0,0.0,0.0,0.0,0.0,0.0,0.0,0.0,0.0,0.0,0.0,0.0,0.0,0.0,0.0,0.0,-0.291,-0.7548,-0.8016,0.0,0.0,0.0,0.0,0.0,0.0,-0.8347,-0.8866,0.0,0.0,0.0,0.0,0.0,0.0,0.0,0.0,0.0,0.0,0.0,0.0,0.0,0.0,0.0,0.0,0.0,0.0,0.0,0.0,0.0,0.0,0.0,0.0,0.0,0.0,0.0,0.0,0.0,0.0,0.0,0.0,0.0,0.0,0.0,0.0,0.0,0.0,0.0,0.0,0.0,0.0,0.0,0.0,0.0,0.0,0.0,0.0,0.0,0.0,0.0,0.0,0.0,0.0,0.0,0.4942,0.5186,0.5342,0.5322,0.3623,0.1002,-0.2609,-0.4213,-0.5001,0.0,0.0,0.0,0.0,0.0,0.0,0.0,0.0,0.0,0.0,0.0,0.0,0.0,0.0,0.0,0.0,0.0,0.0,0.0,0.0,0.0,0.0,0.0,0.0,0.0,0.0,0.0,0.0,0.0,0.0,0.0,0.0,0.0,0.0,0.0,0.0,0.0,0.0,0.0,0.0,0.0,-0.7247,-0.9255,-0.9523,0.0,0.0,0.0,0.0,-0.893,-0.9727,0.0,0.0,0.0,0.0,0.0,0.0,0.0,0.0,0.0,0.0,0.0,0.0,0.0,0.0,0.0,0.0,0.0,0.0,0.0,0.0,0.0,0.0,0.0,0.0,0.0,0.0,0.0,0.0,0.0,0.0,0.0,0.0,0.0,0.0,0.0,0.0,0.0,0.0,0.0,0.0,0.0,0.0,0.0,0.0,0.0,0.0,0.0,0.0,0.0,0.0,0.0,0.0,0.0,0.0,0.0,0.0,0.5046,0.514,0.5233,0.5319,0.3623,0.1002,-0.2611,-0.4422,-0.523,0.0,0.0,0.0,0.0,0.0,0.0,0.0,0.0,0.0,0.0,0.0,0.0,0.0,0.0,0.0,0.0,0.0,0.0,0.0,0.0,0.0,0.0,0.0,0.0,0.0,0.0,0.0,0.0,0.0,0.0,0.0,0.0,0.0,0.0,0.0,0.0,0.0,0.0,0.0,0.0,0.0,-0.3773,-1.0007,-0.9533,-0.8594,0.0,0.0,-1.1526,-1.0403,-1.2206,0.0,0.0,0.0,0.0,0.0,0.0,0.0,0.0,0.0,0.0,0.0,0.0,0.0,0.0,0.0,0.0,0.0,0.0,0.0,0.0,0.0,0.0,0.0,0.0,0.0,0.0,0.0,0.0,0.0,0.0,0.0,0.0,0.0,0.0,0.0,0.0,0.0,0.0,0.0,0.0,0.0,0.0,0.0,0.0,0.0,0.0,0.0,0.0,0.0,0.0,0.0,0.0,0.0,0.0,0.0,0.4987,0.524,0.5276,0.5308,0.5326,0.3623,0.1002,-0.2611,-0.4441,-0.5552,0.0,0.0,0.0,0.0,0.0,0.0,0.0,0.0,0.0,0.0,0.0,0.0,0.0,0.0,0.0,0.0,0.0,0.0,0.0,0.0,0.0,0.0,0.0,0.0,0.0,0.0,0.0,0.0,0.0,0.0,0.0,0.0,0.0,0.0,0.0,0.0,0.0,0.0,0.0,0.0,0.0,0.0,-1.028,-1.0274,0.0,0.0,0.0,-1.287,-1.2644,0.0,0.0,0.0,0.0,0.0,0.0,0.0,0.0,0.0,0.0,0.0,0.0,0.0,0.0,0.0,0.0,0.0,0.0,0.0,0.0,0.0,0.0,0.0,0.0,0.0,0.0,0.0,0.0,0.0,0.0,0.0,0.0,0.0,0.0,0.0,0.0,0.0,0.0,0.0,0.0,0.0,0.0,0.0,0.0,0.0,0.0,0.0,0.0,0.0,0.0,0.0,0.0,0.0,0.0,0.0,0.0,0.0,0.5426,0.5406,0.5372,0.5326,0.3623,0.0935,-0.2609,-0.4486,0.0,0.0,0.0,0.0,0.0,0.0,0.0,0.0,0.0,0.0,0.0,0.0,0.0,0.0,0.0,0.0,0.0,0.0,0.0,0.0,0.0,0.0,0.0,0.0,0.0,0.0,0.0,0.0,0.0,0.0,0.0,0.0,0.0,0.0,0.0,0.0,0.0,0.0,0.0,0.0,0.0,0.0,-0.5624,-1.0413,-1.0799,-1.0973,0.0,0.0,-1.3694,-1.4,-1.4649,-1.5483,0.0,0.0,0.0,0.0,0.0,0.0,0.0,0.0,0.0,0.0,0.0,0.0,0.0,0.0,0.0,0.0,0.0,0.0,0.0,0.0,0.0,0.0,0.0,0.0,0.0,0.0,0.0,0.0,0.0,0.0,0.0,0.0,0.0,0.0,0.0,0.0,0.0,0.0,0.0,0.0,0.0,0.0,0.0,0.0,0.0,0.0,0.0,0.0,0.0,0.0,0.0,0.0,0.0,0.0,0.0,0.5369,0.541,0.5372,0.5329,0.3627,0.1004,-0.2611,-0.4431,-0.5618,0.0,0.0,0.0,0.0,0.0,0.0,0.0,0.0,0.0,0.0,0.0,0.0,0.0,0.0,0.0,0.0,0.0,0.0,0.0,0.0,0.0,0.0,0.0,0.0,0.0,0.0,0.0,0.0,0.0,0.0,0.0,0.0,0.0,0.0,0.0,0.0,0.0,0.0,0.0,0.0,0.0,-0.5442,-1.0413,-1.0747,-1.0895,0.0,0.0,-1.3627,-1.3574,-1.523,-1.6671,-1.7078,0.0,0.0,0.0,0.0,0.0,0.0,0.0,0.0,0.0,0.0,0.0,0.0,0.0,0.0,0.0,0.0,0.0,0.0,0.0,0.0,0.0,0.0,0.0,0.0,0.0,0.0,0.0,0.0,0.0,0.0,0.0,0.0,0.0,0.0,0.0,0.0,0.0,0.0,0.0,0.0,0.0,0.0,0.0,0.0,0.0,0.0,0.0,0.0,0.0,0.0,0.0,0.0,0.0,0.5036,0.5393,0.5399,0.5372,0.5326,0.3625,0.1003,-0.2611,-0.4439,-0.5564,0.0,0.0,0.0,0.0,0.0,0.0,0.0,0.0,0.0,0.0,0.0,0.0,0.0,0.0,0.0,0.0,0.0,0.0,0.0,0.0,0.0,0.0,0.0,0.0,0.0,0.0,0.0,0.0,0.166,0.3225,0.4412,0.0,0.0,0.0,0.0,0.0,0.0,0.0,0.0,0.0,0.0,-0.5222,-0.9628,-1.0484,0.0,0.0,-1.3031,-1.3278,-1.4667,-1.4568,-1.5003,-1.68,-1.8068,0.0,0.0,0.0,0.0,0.0,0.0,0.0,0.0,0.0,0.0,0.0,0.0,0.0,0.0,0.0,0.0,0.0,0.0,0.0,0.0,0.0,0.0,0.0,0.0,0.0,0.0,0.0,0.0,0.0,0.0,0.0,0.0,0.0,0.0,0.0,0.0,0.0,0.0,0.0,0.0,0.0,0.0,0.0,0.0,0.0,0.0,0.0,0.0,0.0,0.0,0.0,0.0,0.6035,0.5434,0.5678,0.562,0.5321,0.357,0.1184,-0.1912,-0.418,-0.5664,0.0,0.0,0.0,0.0,0.0,0.0,0.0,0.0,0.0,0.0,0.0,0.0,0.0,0.0,0.0,0.0,0.0,0.0,0.0,0.0,0.0,0.0,0.0,0.0,0.0,0.0,0.0,0.0,0.1902,0.3537,0.4525,0.0,0.0,0.0,0.0,0.0,0.0,0.0,0.0,0.0,0.0,-0.401,-0.8167,-0.9733,-1.123,-1.3193,-1.3117,-1.3323,-1.4814,-1.4188,-1.4222,-1.6045,0.0,0.0,0.0,0.0,0.0,0.0,0.0,0.0,0.0,0.0,0.0,0.0,0.0,0.0,0.0,0.0,0.0,0.0,0.0,0.0,0.0,0.0,0.0,0.0,0.0,0.0,0.0,0.0,0.0,0.0,0.0,0.0,0.0,0.0,0.0,0.0,0.0,0.0,0.0,0.0,0.0,0.0,0.0,0.0,0.0,0.0,0.0,0.0,0.0,0.0,0.0,0.0,0.0,0.8185,0.5465,0.6278,0.6179,0.5162,0.3509,0.1717,-0.0574,-0.3663,-0.5911,-0.7035,0.0,0.0,0.0,0.0,0.0,0.0,0.0,0.0,0.0,0.0,0.0,0.0,0.0,0.0,0.0,0.0,0.0,0.0,0.0,0.0,0.0,0.0,0.0,0.0,0.0,0.0,-0.0294,0.0,0.1418,0.0,0.0,0.0,0.0,0.0,0.0,0.0,0.0,0.0,0.0,0.2896,-0.1682,-0.6172,-0.8455,-1.0264,-1.1946,-1.3225,-1.3982,-1.3722,-1.4434,-1.4959,0.0,0.0,0.0,0.0,0.0,0.0,0.0,0.0,0.0,0.0,0.0,0.0,0.0,0.0,0.0,0.0,0.0,0.0,0.0,0.0,0.0,0.0,0.0,0.0,0.0,0.0,0.0,-0.0933,0.0,0.0,0.0,0.0,0.0,0.0,0.0,0.0,0.0,0.0,0.0,0.0,0.0,0.0,0.0,0.0,0.0,0.0,0.0,0.0,0.0,0.0,0.0,0.0,0.0,0.0,0.9582,0.7288,0.7034,0.6402,0.53,0.4565,0.1647,-0.3571,-0.4791,-0.6042,-0.7312,0.0,0.0,0.0,0.0,0.0,0.0,0.0,0.0,0.0,0.0,0.0,0.0,0.0,0.0,0.0,0.0,0.0,0.0,0.0,0.0,0.0,0.0,0.0,0.0,0.0,-0.1135,0.0,0.0,0.0,0.0,0.0,0.0,0.0,0.0,0.0,0.0,0.0,-0.174,0.5559,0.2785,-0.1292,-0.4706,-0.6638,-0.8674,0.0,0.0,0.0,0.0,0.0,0.0,0.0,0.0,0.0,0.0,0.0,0.0,0.0,0.0,-2.2013,-2.0724,-2.0163,-1.9549,-1.8423,0.0,0.0,0.0,0.0,0.0,0.0,0.0,0.0,0.0,0.0,0.0,0.0,0.0,0.0,0.1533,0.0,0.0,0.0,0.0,0.0,0.0,0.0,0.0,0.0,0.0,-0.6005,-0.5135,-0.2408,-0.08,0.1291,0.0,0.5764,0.6444,0.0,0.0,0.0,0.0,0.0,0.0,0.0,0.0,1.0771,0.949,0.8184,0.688,0.5427,0.4574,0.2181,-0.1819,-0.4219,-0.5962,-0.7068,-0.701,-0.695,0.0,0.0,0.0,0.0,0.0,0.0,0.0,0.0,0.0,0.0,0.0,0.0,0.0,0.0,0.0,0.0,0.0,0.0,0.0,0.0,0.0,0.0,0.0,-0.1361,0.0,0.0,0.0,0.0,0.0,0.0,0.0,0.0,0.0,-0.3087,-0.484,-0.2675,0.5507,0.4074,0.0783,-0.303,0.0,0.0,0.0,0.0,0.0,0.0,0.0,-1.3224,-1.4008,-1.6422,-1.9295,-2.2552,-2.312,-2.3144,-2.3144,0.0,0.0,-2.2422,-2.1693,-2.1059,-2.0707,-2.021,-1.941,-1.7705,-1.645,-1.5106,0.0,0.0,0.0,0.0,0.0,0.0,0.0,0.0,0.6734,0.4417,0.0,0.0,0.0,0.0,0.0,0.0,0.0,0.0,0.0,0.0,-0.4716,-0.6877,-0.6387,-0.2117,0.1233,0.3606,0.5928,0.6874,0.6537,0.6263,0.0,0.0,0.0,0.0,0.0,0.0,1.171,1.2094,0.9676,0.741,0.5463,0.3633,0.3155,0.3898,-0.209,-0.5735,-0.6459,-0.7775,-0.7885,-0.6615,-0.675,0.0,0.0,0.0,0.0,0.0,0.0,0.0,0.0,0.0,0.0,0.0,0.0,0.0,0.0,0.0,0.0,0.0,0.0,0.0,0.0,-0.539,0.0,0.0,0.0,0.0,0.0,0.0,0.0,0.0,0.0,0.0,0.0611,-0.3366,-0.2796,0.5923,0.0,0.0,0.0,0.0,-0.7847,-1.008,-1.249,-1.4056,-1.4153,-1.4549,-1.4771,-1.4334,0.0,0.0,-2.2746,-2.3115,-2.3125,-2.3135,-2.3115,-2.3115,-2.3086,-2.2969,-2.2639,-2.1621,-2.1257,-2.0477,-1.8211,-1.6483,-1.4772,-0.1886,0.0,0.0,0.0,0.0,0.0,0.0688,0.2051,0.5208,0.5996,0.4851,0.1437,0.0,0.0,0.0,0.0,0.0,0.0,0.0,0.0,-0.14,-0.2,-0.1954,-0.066,0.1166,0.3268,0.5675,0.7083,0.7682,0.7664,0.7398,0.6984,0.0,0.0,0.0,0.0,1.2151,1.2137,0.992,0.7621,0.5402,0.3635,0.1754,-0.0234,-0.3573,-0.5994,-0.7303,-0.9022,-0.9622,-0.8766,-0.7512,0.0,0.0,0.0,0.0,0.0,0.0,0.0,0.0,0.0,0.0,0.0,0.0,0.0,0.0,0.0,0.0,0.0,0.0,0.0,-0.5362,-0.5403,-0.5029,0.0,0.0,0.0,0.0,0.0,0.0,0.0,0.0,0.0,0.5463,0.118,0.0365,0.0,0.0,0.5027,-0.0086,-0.4411,-0.7939,-1.0243,-1.22,0.0,0.0,-1.4182,-1.4558,-1.6189,-1.9085,-2.1655,-2.2906,-2.3146,-2.314,-2.3086,-2.2794,-2.258,-2.2705,-2.2939,-2.2931,-2.2589,-2.1933,-2.0541,-1.8126,-1.5873,-1.3605,-0.3064,0.2206,0.5439,0.5163,0.2581,0.1634,0.1739,0.2521,0.3401,0.4431,0.531,0.1587,0.2356,0.6298,0.628,0.0,0.0,0.0,0.0,0.0,0.0,0.0,0.0,0.1754,0.2669,0.3262,0.6103,0.7734,0.8246,0.8574,0.8806,0.8707,0.0,0.0,0.7874,1.0539,1.2045,1.2142,0.9869,0.7598,0.5413,0.2949,0.0413,-0.2112,-0.4171,-0.5957,-0.7675,-0.9028,-0.97,-0.9638,-0.8454,-0.7912,0.0,0.0,0.0,0.0,0.0,0.0,0.0,0.0,0.0,0.0,0.0,-0.5246,0.0,0.0,0.0,0.0,-0.549,-0.5661,-0.54,-0.5663,0.0,0.0,0.0,0.0,0.0,0.0,0.0,0.8135,0.8524,0.8714,0.8231,0.5091,0.3899,0.6743,0.5497,0.3243,0.0344,0.0,-0.7881,-1.0005,-1.1266,-1.2377,-1.3258,-1.3201,-1.4007,-1.6807,-1.9555,-2.1574,-2.2291,-2.2606,-2.2705,-2.2644,-2.2441,-2.2266,-2.2266,-2.2366,-2.2331,-2.1997,-2.1007,-1.9373,-1.698,-1.4593,-1.2215,-0.3755,0.0521,0.4528,0.6398,0.6386,0.4245,0.4463,0.5957,0.2156,0.1354,0.2649,0.0862,0.2252,0.6053,0.6201,0.0,0.6101,0.2243,0.0,0.0,0.0,0.0,0.0,0.4271,0.5208,0.342,0.6831,0.8431,0.8384,0.9346,1.0137,1.0703,1.0351,0.902,0.7056,0.9828,1.1643,1.2103,0.9701,0.7339,0.5214,0.1796,-0.0739,-0.2225,-0.401,-0.5801,-0.7494,-0.8163,-0.8746,-0.9499,-0.9499,-0.9159,-0.8482,0.0,0.0,0.0,0.0,0.0,0.0,0.0,0.0,0.0,0.0,0.0,0.0,0.0,0.0,0.0,-0.5918,0.0,-0.5445,-0.6059,0.0,0.0,0.0,-0.4915,0.3027,0.8364,1.0881,0.9259,0.0,0.0,0.9332,0.8044,0.7217,0.7225,0.3358,0.043,0.0086,-0.4042,-0.7663,-0.9481,-0.9938,-1.0428,-1.1491,-1.2032,-1.3421,-1.6441,-1.8975,-2.0713,-2.1149,-2.1578,-2.1922,-2.1889,-2.1971,-2.2034,-2.183,-2.1438,-2.099,-2.0052,-1.911,-1.7715,-1.541,-1.3103,-1.1149,-0.3887,0.0145,0.4257,0.6054,0.6122,0.5755,0.5699,0.5825,0.5087,0.3301,0.0685,0.0234,0.1407,0.3962,0.5535,0.6321,0.6227,0.5059,0.2956,0.0,0.0,0.0,0.0,0.3896,0.5485,0.5276,0.6849,0.8325,0.9398,1.0343,1.1179,1.1963,1.3247,1.2938,1.0956,1.1255,1.1263,1.1035,0.9282,0.6715,0.3392,0.1158,-0.0852,-0.2519,-0.4318,-0.5755,-0.6693,-0.7981,-0.9008,-0.9638,-1.0097,-1.0296,-1.0315,-1.0093,0.0,0.0,0.0,0.0,0.0,0.0,0.0,0.0,0.0,-0.5949,-0.5432,0.0,-0.5087,0.0,-0.5224,-0.6331,-0.5488,-0.6706,0.0,0.0,-0.7865,-0.5187,0.1759,0.7633,1.0634,0.9093,1.0135,1.0667,0.9981,0.9024,0.8377,0.8404,0.6726,0.3714,-0.0923,-0.445,-0.704,-0.847,-0.8765,-0.9213,-1.0396,-1.1988,-1.3708,-1.5896,-1.8678,-2.0358,-1.9928,-1.9889,-2.0285,-2.1194,-2.0908,-2.0633,-2.0837,-2.0338,-1.9127,-1.7683,-1.7788,-1.7415,-1.4269,-1.232,-1.0726,-0.1917,0.0917,0.4828,0.6683,0.6984,0.6328,0.6169,0.6394,0.612,0.4244,0.1412,0.2368,0.2934,0.331,0.5999,0.678,0.6162,0.6061,0.4757,0.2551,0.079,0.0,0.0,0.2846,0.4734,0.5678,0.7208,0.8549,0.9817,1.1152,1.2267,1.3265,1.434,1.447,1.3664,1.2424,1.1342,1.0586,0.8283,0.5665,0.2768,0.0926,-0.0455,-0.1521,-0.401,-0.5504,-0.5856,-0.7526,-0.8711,-0.9297,-1.0122,-1.0724,-1.1023,-1.0915,-1.0745,0.0,0.0,0.0,0.0,0.0,0.0,0.0,0.0,0.0,0.0,0.0,-0.4951,-0.1503,-0.2773,-0.4459,-0.6421,-0.8434,-0.9288,-0.8158,-0.7925,-0.5465,0.0571,0.5497,0.8974,1.0238,1.1159,1.1478,1.1015,1.003,0.916,0.8824,0.7627,0.4819,-0.0327,-0.4087,-0.6767,-0.7923,-0.7687,-0.7812,-0.8941,-1.077,-1.2579,-1.4268,-1.7195,-1.9286,-1.8863,-1.8928,-1.9464,-2.0365,-2.0082,-1.9425,-1.9108,-1.8919,-1.7999,-1.6335,-1.6238,-1.5621,-1.3039,-1.1527,-0.9984,0.1373,0.2741,0.6154,0.784,0.8208,0.6592,0.6376,0.7012,0.6065,0.4565,0.2837,0.517,0.5292,0.3986,0.6901,0.7425,0.6145,0.6092,0.6029,0.561,0.2294,0.048,0.0067,0.2058,0.3963,0.5804,0.7642,0.9066,1.0048,1.1868,1.332,1.4499,1.4507,1.48,1.5266,1.3351,1.1617,1.0246,0.7075,0.4538,0.272,0.0936,0.0,0.0,-0.3484,-0.5344,-0.5181,-0.6897,-0.8099,-0.8595,-0.9787,-1.0681,-1.1028,-1.1132,-1.1029,0.0,-0.9461,0.0,0.0,0.0,0.0,0.0,0.0,0.0,0.0,-0.5365,-0.3427,0.0702,0.037,-0.1908,-0.6536,-0.9579,-1.0547,-0.8715,-0.7945,-0.5686,-0.0866,0.2926,0.6948,1.1273,1.2334,1.2519,1.204,1.0947,0.9757,0.8769,0.7368,0.4953,0.1107,-0.3313,-0.6613,-0.746,-0.6816,-0.6718,-0.7765,-0.9233,-1.0743,-1.2331,-1.4832,-1.7234,-1.7442,-1.7733,-1.8322,-1.8899,-1.873,-1.8117,-1.6836,-1.7051,-1.6854,-1.5079,-1.4758,-1.4129,-1.2092,-1.0751,-0.928,0.4973,0.6191,0.7854,0.8772,0.8955,0.7277,0.6626,0.6706,0.5827,0.3615,0.0871,0.4111,0.6259,0.7347,0.7505,0.7334,0.6909,0.6756,0.6398,0.5745,0.4787,0.2824,0.0267,0.3364,0.5825,0.7465,0.79,0.9226,1.136,1.243,1.3691,1.5181,1.5181,1.5288,1.5276,0.0,0.0,0.0,0.6438,0.4541,0.2733,0.0925,0.0,0.0,-0.35,0.0,-0.5384,-0.6459,-0.7185,-0.7442,-0.9096,0.0,0.0,0.0,0.0,0.0,0.0,0.0,0.0,0.0,0.0,0.0,-0.6882,-0.6881,-0.6584,0.0468,0.5531,0.6324,0.2522,-0.0396,-0.1487,-0.5686,-0.9119,-1.0572,-0.887,-0.6117,-0.2507,0.1927,0.6172,0.9547,1.1198,1.2324,1.2679,1.1107,0.9688,0.9168,0.7487,0.5348,0.2813,-0.2621,-0.6153,-0.6335,-0.6134,-0.6255,-0.7245,-0.8284,-0.9822,-1.1763,-1.2405,-1.3491,-1.4723,-1.458,-1.4765,-1.604,-1.5875,-1.5394,-1.4407,-1.5018,-1.5369,-1.4144,-1.3851,-1.3411,-1.186,-1.0665,-0.9533,0.7466,0.0,0.8998,0.9356,0.0,0.8994,0.8345,0.7837,0.6156,0.4054,0.1883,0.3401,0.5493,0.7929,0.799,0.7883,0.7633,0.766,0.6882,0.5589,0.547,0.4425,0.2739,0.509,0.6671,0.7584,0.8149,0.9383,1.1152,1.2022,1.3371,1.5098,1.5098,1.5177,1.5288,1.1279,0.8834,0.8027,0.6258,0.451,0.2691,0.0938,0.0,0.0,0.0,0.0,0.0,0.0,0.0,0.0,0.0,0.0,0.0,0.0,0.0,-1.147,-1.1165,-0.9866,-0.7537,-0.7021,-0.683,-0.6811,-0.2682,0.0,0.0378,0.5126,0.7969,0.7882,0.4341,0.1384,-0.0,-0.464,-0.8065,-0.9176,-0.8784,-0.7471,-0.5087,-0.0712,0.4197,0.8696,1.0352,1.1416,1.2778,1.112,0.9643,0.927,0.7592,0.4809,0.0887,-0.2388,-0.4731,-0.5712,-0.5796,-0.5937,-0.6552,-0.7678,-0.8779,-1.0167,-1.1424,-1.2193,-1.2395,-1.3146,-1.3827,-1.4255,-1.4355,-1.4112,-1.2787,-1.3302,-1.3739,-1.2839,-1.2565,-1.2216,-1.1075,-1.0155,-0.9468,0.9045,1.0296,0.9945,1.0098,1.0618,1.0611,0.9964,0.8882,0.0,0.0,0.0,0.383,0.5248,0.7967,0.8516,0.8617,0.8446,0.8503,0.7437,0.5429,0.5547,0.5568,0.5428,0.6465,0.7164,0.7588,0.8354,0.9373,1.0676,1.1487,1.2779,1.4352,1.4569,1.4649,1.4381,0.8828,0.6578,0.7817,0.6286,0.4543,0.2713,0.0949,0.0,0.0,0.0,-0.1827,-0.5745,-0.5779,-0.5785,-0.5905,-0.8248,-1.0527,-1.2349,-1.2091,-1.2125,-1.259,-1.2965,-1.1399,-0.7428,-0.7232,-0.7313,-0.7126,0.1686,0.7318,0.7931,0.7918,0.7855,0.7882,0.5899,0.34,0.029,-0.4559,-0.7449,-0.7179,-0.8204,-0.8496,-0.7337,-0.3648,0.1775,0.7745,0.9575,1.0559,1.2075,1.0701,0.9483,0.9081,0.75,0.4274,-0.0863,-0.2805,-0.4121,-0.5399,-0.564,-0.5589,-0.5874,-0.6988,-0.804,-0.85,-1.059,-1.1738,-1.1235,-1.227,-1.3231,-1.2689,-1.3146,-1.2713,-1.1512,-1.1655,-1.1941,-1.1279,-1.1005,-1.0723,-0.9997,-0.9352,-0.8866,0.928,0.9542,1.0905,1.1101,1.0618,1.0514,0.9609,0.8027,0.6187,0.5877,0.6634,0.7078,0.8367,1.0101,0.9468,0.9162,0.9127,0.9197,0.7827,0.0,0.6183,0.6117,0.5432,0.6033,0.7366,0.9168,0.8723,0.9259,1.0778,1.1559,1.2372,1.3268,1.3634,1.331,1.212,0.9191,0.7737,0.7962,0.626,0.4538,0.2727,0.0929,0.0,0.0,0.0,-0.1965,-0.6047,-0.6026,-0.5974,-0.6047,-0.7588,-0.8944,-0.9798,-1.164,-1.3051,-1.3753,-1.3419,-1.1439,-0.7397,-0.7146,-0.7131,-0.6655,0.169,0.739,0.7974,0.7651,0.7449,0.7289,0.72,0.5351,0.0474,-0.4208,-0.6952,-0.7126,-0.7255,-0.7346,-0.7177,-0.4772,-0.0499,0.5961,0.8686,1.0117,1.0761,0.9756,0.8888,0.8846,0.7244,0.4204,0.0274,-0.3046,-0.4923,-0.5534,-0.5491,-0.5413,-0.5578,-0.6269,-0.7188,-0.7972,-0.9,-1.0206,-1.0438,-1.09,-1.1248,-1.1022,-1.0817,-1.0612,-1.0711,-1.0009,-0.9869,-1.0036,-0.9748,-0.92,-0.8981,-0.8236,-0.7579,1.0647,1.071,1.1461,1.1593,1.1226,1.0717,0.9888,0.8748,0.8376,0.7922,0.7736,0.8864,0.9592,0.986,0.949,0.953,0.9983,0.953,0.8882,0.8231,0.7637,0.6681,0.5647,0.693,0.8187,0.9178,0.9003,0.9332,1.027,1.0632,1.1353,1.2419,1.2722,1.2498,1.1626,0.8942,0.7678,0.7962,0.6288,0.4973,0.4164,0.1406,0.0,0.0,0.0,-0.1787,-0.5623,-0.5884,-0.5937,-0.6145,-0.7277,-0.842,-0.9761,-1.0533,-1.1905,-1.3874,-1.3192,-1.0969,-0.7098,-0.6987,-0.7142,-0.6877,-0.0714,0.4538,0.7292,0.7485,0.7318,0.712,0.7563,0.5619,0.0558,-0.1995,-0.4194,-0.6704,-0.7049,-0.707,-0.6656,-0.4979,-0.1462,0.3673,0.6447,0.8365,0.9696,0.8749,0.8238,0.8667,0.7031,0.4149,0.0534,-0.3044,-0.5358,-0.5471,-0.5406,-0.5435,-0.5428,-0.6141,-0.6645,-0.6624,-0.814,-0.9192,-0.964,-0.9773,-0.9849,-0.9849,-0.9303,-0.8963,-0.9367,-0.8848,-0.8652,-0.8735,-0.873,-0.8255,-0.7716,-0.6916,-0.6379,1.2081,1.2081,1.2258,1.2258,1.1958,1.0989,1.0174,0.9658,1.0276,0.981,0.8888,1.0045,1.0232,0.96,0.9594,0.9983,1.0428,0.9913,0.9957,1.0412,0.904,0.7663,0.681,0.8194,0.8884,0.8983,0.9194,0.9487,0.9749,0.9932,1.0586,1.1623,1.1916,1.1851,1.1469,0.8612,0.7404,0.7827,0.6284,0.5382,0.5326,0.2616,0.0,0.0,0.0,-0.1731,-0.5123,-0.5637,-0.5827,-0.6194,-0.6857,-0.7759,-0.914,-0.9203,-1.0172,-1.2037,-1.1876,-1.0186,-0.7001,-0.6857,-0.6582,-0.5471,-0.2131,0.155,0.5023,0.6585,0.7148,0.7056,0.7265,0.5636,0.1702,0.0175,-0.1459,-0.4806,-0.6437,-0.7005,-0.6634,-0.4447,-0.1352,0.2557,0.4755,0.676,0.8006,0.7895,0.7462,0.755,0.6475,0.4164,0.0999,-0.2206,-0.4164,-0.5246,-0.5369,-0.5428,-0.5428,-0.5881,-0.6056,-0.5498,-0.721,-0.8264,-0.8527,-0.8731,-0.9005,-0.8947,-0.8285,-0.7977,-0.7962,-0.7582,-0.7536,-0.7615,-0.7489,-0.7138,-0.6564,-0.5988,-0.5514,1.2887,1.3009,1.3606,1.3545,1.2704,1.1233,1.0561,1.0478,1.0573,1.053,1.0428,1.0527,1.0584,1.0504,1.0434,1.0498,1.0618,1.0498,1.0481,1.0476,0.963,0.949,0.9817,0.9196,0.9089,0.9579,0.9636,0.965,0.9774,1.0293,1.0818,1.1137,1.1316,1.116,1.0508,0.8302,0.7404,0.7962,0.6276,0.5372,0.5396,0.5055,0.3364,0.0,0.0,-0.1701,-0.5108,-0.5408,-0.554,-0.581,-0.6039,-0.6266,-0.6581,-0.7886,-0.833,-0.7281,-0.8643,-0.8582,-0.6658,-0.6559,-0.5032,-0.1171,0.0,0.0,0.0,0.4495,0.6711,0.6797,0.7014,0.5915,0.3562,0.1348,0.0,0.0,-0.4376,-0.7127,-0.6522,-0.3029,0.0549,0.281,0.4723,0.6223,0.7171,0.7203,0.6693,0.6156,0.574,0.4643,0.2474,0.0334,-0.2278,-0.457,-0.5376,-0.5428,-0.5428,-0.5428,-0.554,-0.5505,-0.6237,-0.7093,-0.7483,-0.7812,-0.8156,-0.8096,-0.7437,-0.7111,-0.7246,-0.6859,-0.6079,-0.6597,-0.6338,-0.5693,-0.5572,-0.5312,-0.5289,1.3726,1.3717,1.4025,1.3476,1.2266,1.1593,1.1281,1.1267,1.078,1.111,1.1958,1.2018,1.1512,1.0618,1.0618,1.0618,1.0618,1.0618,1.0575,1.0544,1.0251,1.0257,1.0504,0.9897,0.9803,1.0161,0.9885,0.9751,0.9908,1.0207,1.0405,1.053,1.0772,1.0746,1.0421,0.8656,0.7752,0.7962,0.6276,0.5435,0.5246,0.4364,0.2618,0.0,0.0,-0.1144,-0.361,-0.4784,-0.5467,-0.5664,-0.5748,-0.5816,-0.5884,-0.6779,-0.7016,-0.6439,-0.7026,-0.7688,-0.8036,-0.7111,-0.4596,-0.0321,0.0,0.0,0.0,0.2827,0.5032,0.6268,0.6686,0.5942,0.3771,0.1407,0.0,0.0,-0.1854,-0.3828,-0.6331,-0.2686,0.0784,0.288,0.4651,0.5913,0.6259,0.6195,0.5907,0.5428,0.5376,0.4703,0.2947,0.1136,-0.1405,-0.4442,-0.5393,-0.5379,-0.5432,-0.5428,-0.5422,-0.554,-0.6121,-0.6776,-0.6994,-0.7107,-0.7246,-0.7456,-0.6666,-0.6141,-0.6272,-0.6079,-0.5557,-0.5881,-0.5818,-0.5432,-0.5376,-0.4564,-0.43,1.451,1.4451,1.4094,1.3235,1.2143,1.1896,1.1834,1.1804,1.1419,1.1935,1.2931,1.3009,1.2274,1.1045,1.0926,1.0807,1.0624,1.0618,1.0618,1.0618,1.0618,1.0618,1.0598,1.0347,1.037,1.0486,1.0167,1.0059,1.0146,1.0194,1.0241,1.0274,1.0454,1.0618,1.0428,0.8865,0.8027,0.7832,0.6276,0.5432,0.5243,0.4092,0.2347,0.0,0.0,-0.0603,-0.1941,-0.4159,-0.543,-0.5525,-0.5528,-0.5593,-0.5728,-0.5891,-0.6108,-0.6201,-0.628,-0.6923,-0.8372,-0.7146,-0.4465,0.0,0.0,0.0,0.0,0.1873,0.3999,0.5987,0.6461,0.593,0.4437,0.1702,0.0,0.0,0.0,0.0,-0.3859,-0.1256,0.149,0.2958,0.4657,0.5728,0.5688,0.5597,0.549,0.5439,0.5372,0.5043,0.3418,0.1538,-0.1006,-0.3529,-0.461,-0.5393,-0.5379,-0.549,-0.5487,-0.5575,-0.6056,-0.6443,-0.6672,-0.6522,-0.6344,-0.6396,-0.5737,-0.5561,-0.5756,-0.5557,-0.5428,-0.5428,-0.5428,-0.5432,-0.5382,-0.4228,-0.3627,1.5352,1.5099,1.3726,1.307,1.2887,1.2197,1.1841,1.2042,1.2603,1.298,1.3147,1.307,1.2573,1.1764,1.1772,1.1288,1.0681,1.0618,1.0618,1.0618,1.0618,1.0618,1.0618,1.0604,1.0598,1.0571,1.0524,1.0524,1.0544,1.0577,1.0604,1.0534,1.0618,1.0618,1.0364,0.8871,0.8027,0.7832,0.6276,0.5369,0.5379,0.5252,0.3491,0.0,0.0,0.0,-0.0536,-0.3556,-0.5396,-0.5393,-0.5389,-0.5443,-0.5438,-0.5461,-0.5583,-0.5838,-0.6162,-0.6331,-0.6497,-0.644,-0.4465,0.0,0.0,0.0,0.0,0.1655,0.3785,0.6071,0.6322,0.6159,0.5689,0.284,0.0,0.0,0.0,0.0,-0.0392,0.1099,0.2747,0.3344,0.4667,0.5636,0.5471,0.5573,0.5573,0.5504,0.5389,0.5269,0.4681,0.2223,0.0204,-0.1034,-0.3021,-0.5346,-0.5349,-0.5267,-0.5418,-0.5741,-0.5863,-0.5887,-0.5792,-0.5684,-0.5689,-0.561,-0.5528,-0.5406,-0.5442,-0.5428,-0.5428,-0.5428,-0.5428,-0.5369,-0.5389,-0.5396,-0.4378,1.542,1.5294,1.4204,1.3795,1.3726,1.3416,1.3492,1.3864,1.4318,1.4721,1.4874,1.469,1.4085,1.3304,1.2818,1.1841,1.0681,1.0618,1.0618,1.0618,1.0618,1.0618,1.0618,1.0618,1.0618,1.0618,1.0618,1.0618,1.0618,1.0618,1.0618,1.0618,1.0618,1.0618,1.0295,0.8865,0.8027,0.7832,0.6276,0.5432,0.5379,0.5386,0.4233,0.1874,0.0605,0.0,0.0,-0.2412,-0.4228,-0.5376,-0.5435,-0.5386,-0.5376,-0.5395,-0.5527,-0.5791,-0.5878,-0.6076,-0.6247,-0.6285,-0.4462,0.0,0.0,0.0,0.0,0.0782,0.2497,0.541,0.6274,0.6264,0.6106,0.4849,0.289,0.0,0.0,0.0,0.0,0.1806,0.3142,0.3424,0.4707,0.5805,0.5637,0.5547,0.5557,0.5731,0.5717,0.558,0.5102,0.325,0.1272,0.0143,-0.1069,-0.2338,-0.3619,-0.4201,-0.47,-0.5499,-0.5861,-0.5864,-0.5783,-0.5783,-0.5728,-0.5613,-0.5456,-0.5447,-0.5416,-0.5389,-0.5382,-0.5428,-0.5428,-0.5372,-0.5393,-0.4916,-0.3295,1.542,1.5294,1.451,1.4213,1.4231,1.4339,1.4608,1.4976,1.5537,1.6006,1.6191,1.5955,1.5196,1.4171,1.3293,1.2228,1.0951,1.0755,1.0677,1.0614,1.0763,1.0763,1.0607,1.067,1.067,1.0588,1.0586,1.0624,1.0681,1.0665,1.0624,1.0618,1.0712,1.0772,1.0515,0.9062,0.8179,0.7846,0.6443,0.5508,0.5504,0.545,0.4551,0.2753,0.0966,0.0,0.0,-0.1205,-0.3015,-0.4973,-0.5372,-0.5389,-0.544,-0.5481,-0.5552,-0.5653,-0.5868,-0.6069,-0.6244,-0.6281,-0.4465,0.0,0.0,0.0,0.0,0.0,0.0,0.509,0.6274,0.6261,0.6261,0.6268,0.5082,0.2572,0.2033,0.2037,0.2117,0.3303,0.4068,0.4325,0.5173,0.5811,0.5765,0.5581,0.5646,0.5875,0.5875,0.5813,0.5463,0.3928,0.2042,0.0,0.0,0.0,0.0,0.0,0.0,-0.5073,-0.5969,-0.5942,-0.5905,-0.5898,-0.582,-0.5627,-0.5523,-0.5443,-0.5457,-0.5426,-0.5399,-0.5442,-0.5432,-0.5376,-0.4909,-0.41,0.0,1.5449,1.5361,1.4588,1.4336,1.4487,1.4866,1.4941,1.5274,1.6191,1.665,1.6728,1.6616,1.557,1.4237,1.3309,1.2325,1.1546,1.1216,1.0916,1.0721,1.1125,1.1125,1.0802,1.0949,1.0889,1.0714,1.0663,1.0771,1.0982,1.0768,1.0578,1.0655,1.0882,1.1002,1.1075,0.9508,0.8589,0.8084,0.6667,0.5769,0.5796,0.5558,0.4687,0.2961,0.1083,0.0,0.0,0.0,-0.1824,-0.4944,-0.5416,-0.5454,-0.5606,-0.5682,-0.5703,-0.5563,-0.5924,-0.6237,-0.6261,-0.6281,-0.4465,0.0,0.0,0.0,0.0,0.0,0.2261,0.5404,0.6268,0.6261,0.6261,0.6261,0.6183,0.6197,0.5581,0.5517,0.5361,0.6006,0.6183,0.5891,0.5992,0.5973,0.5861,0.5781,0.5795,0.5867,0.5937,0.6019,0.5825,0.4421,0.2287,0.0,0.0,0.0,0.0,0.0,0.0,-0.4785,-0.5692,-0.6183,-0.6132,-0.6101,-0.5949,-0.5748,-0.5504,-0.5421,-0.5501,-0.5474,-0.5447,-0.5426,-0.541,-0.5339,-0.4824,0.0,0.0,1.6035,1.6208,1.5734,1.567,1.5928,1.6081,1.6291,1.6593,1.6939,1.7071,1.7035,1.6169,1.5431,1.4689,1.3435,1.2704,1.2541,1.1902,1.1461,1.1224,1.1361,1.1532,1.1662,1.1424,1.1193,1.1178,1.1336,1.1296,1.1195,1.0814,1.0702,1.0881,1.0853,1.0944,1.124,1.0055,0.8957,0.7877,0.6516,0.58,0.5803,0.5817,0.546,0.4592,0.0,0.0,0.0,0.0,0.0,-0.5136,-0.5419,-0.5577,-0.5772,-0.5844,-0.5785,-0.5715,-0.5839,-0.6083,-0.6261,-0.6126,-0.4389,0.0,0.0,0.0,0.3853,0.4238,0.4781,0.6207,0.6268,0.6261,0.6261,0.6261,0.6264,0.6264,0.6281,0.5023,0.3052,0.4482,0.6064,0.6257,0.6217,0.6176,0.6135,0.6112,0.6088,0.6091,0.6173,0.618,0.6043,0.5494,0.3603,0.0,0.0,0.0,0.0,0.0,0.0,0.0,-0.4905,-0.6207,-0.6264,-0.623,-0.6081,-0.5325,-0.517,-0.5202,-0.5356,-0.5545,-0.5535,-0.542,-0.5396,-0.5216,-0.4983,0.0,0.0,1.6475,1.6699,1.6436,1.6475,1.6685,1.6811,1.7045,1.7353,1.7435,1.7524,1.7311,1.6202,1.5468,1.5009,1.3744,1.2972,1.2806,1.224,1.1931,1.177,1.175,1.1982,1.2234,1.1918,1.1677,1.1603,1.1666,1.1666,1.1577,1.1168,1.1041,1.1273,1.1227,1.1401,1.1519,1.0283,0.899,0.7897,0.664,0.5973,0.5973,0.6057,0.6067,0.5399,0.2089,0.0,0.0,0.0,-0.1038,-0.3079,-0.3969,-0.4507,-0.4803,-0.5448,-0.5969,-0.595,-0.598,-0.6103,-0.6116,-0.4704,-0.3843,-0.2275,-0.0942,0.1894,0.5413,0.6469,0.6307,0.6427,0.638,0.626,0.6257,0.6281,0.6285,0.6254,0.6305,0.4384,0.1405,0.2271,0.4164,0.4628,0.5249,0.5724,0.6116,0.6268,0.6261,0.6261,0.6261,0.6261,0.6274,0.6274,0.3995,0.1879,0.0,0.0,0.0,0.0,0.0,0.0,-0.3917,-0.5344,-0.6285,-0.6207,-0.6046,-0.3916,-0.3074,-0.3788,-0.4026,-0.5188,-0.5617,-0.5547,-0.5395,-0.5313,-0.4837,-0.2332,0.0,1.6787,1.6733,1.6777,1.6743,1.684,1.7086,1.7271,1.75,1.7842,1.8018,1.7735,1.6655,1.5773,1.5108,1.4049,1.3155,1.2479,1.2466,1.2392,1.2284,1.2264,1.2238,1.2291,1.2198,1.2078,1.1917,1.1806,1.1813,1.1884,1.16,1.1552,1.1729,1.2029,1.2278,1.186,1.0295,0.8841,0.794,0.6887,0.6359,0.6261,0.6342,0.6331,0.6173,0.0,0.0,0.0,0.0,0.0,0.0,-0.1796,-0.2571,-0.2959,-0.4724,-0.5473,-0.5951,-0.6129,-0.5497,-0.4951,-0.3469,-0.2292,-0.4137,-0.1591,0.1906,0.5609,0.6374,0.6481,0.6716,0.6552,0.6401,0.6381,0.6314,0.6301,0.6284,0.5689,0.3642,0.0864,0.0472,0.1348,0.2764,0.361,0.4709,0.6084,0.6302,0.6281,0.6264,0.6352,0.6376,0.6278,0.6051,0.5182,0.337,0.1175,0.0,0.0,0.0,0.0,0.0,0.0,0.0,0.0,0.0,0.0,-0.2522,0.0,0.0,0.0,0.0,0.0,-0.5419,-0.5345,-0.5349,0.0,0.0,0.0,1.7393,1.7637,1.7344,1.7393,1.7666,1.7726,1.7774,1.791,1.8301,1.8477,1.8155,1.6852,1.597,1.5454,1.4055,1.3083,1.2795,1.2846,1.2882,1.2713,1.2447,1.2342,1.2297,1.2311,1.2278,1.2204,1.2145,1.2178,1.2184,1.2111,1.2071,1.2157,1.2171,1.2291,1.1983,0.9996,0.8264,0.7307,0.6859,0.6515,0.6427,0.6496,0.6448,0.6203,0.5101,0.2899,0.0,0.0,0.0,0.0,-0.0387,-0.0699,0.0,0.0,-0.3136,-0.5112,-0.3366,0.0,0.0,-0.3385,-0.366,-0.1734,0.0,0.0,0.4155,0.601,0.6695,0.6788,0.6826,0.6808,0.6634,0.6433,0.6443,0.6384,0.4451,0.2367,0.1856,0.0898,0.0248,0.0908,0.2712,0.4405,0.582,0.6265,0.6301,0.6325,0.6428,0.6458,0.6339,0.6208,0.5518,0.3458,0.0,0.0,0.0,0.0,0.0,0.0,0.0,0.0,0.0,0.0,0.0,-0.0386,0.0,0.0,0.0,0.0,0.0,0.0,-0.4718,0.0,0.0,0.0,0.0,1.7891,1.8242,1.7822,1.7891,1.8252,1.836,1.8468,1.8574,1.8899,1.9007,1.8524,1.6954,1.6112,1.5798,1.403,1.312,1.2986,1.3126,1.3107,1.3022,1.2824,1.2557,1.2407,1.2513,1.2603,1.2596,1.2665,1.2692,1.2692,1.2596,1.2596,1.2527,1.2126,1.1966,1.2129,0.9721,0.7909,0.7071,0.6743,0.6647,0.6576,0.6647,0.6539,0.6468,0.6304,0.4435,0.0,0.0,0.0,0.0,0.0,0.0,0.0,0.0,0.0,-0.3495,0.0,0.0,0.0,-0.2394,-0.2409,0.0,0.0,0.0,0.3479,0.5718,0.7017,0.6977,0.6925,0.6888,0.6797,0.6625,0.6679,0.6729,0.4591,0.2628,0.2143,0.0665,0.1175,0.2355,0.3441,0.4345,0.6191,0.6332,0.6364,0.6491,0.661,0.6558,0.641,0.6231,0.5577,0.3408,0.0,0.0,0.0,0.0,0.0,0.0,0.0,0.0,0.0,0.0,0.0,0.0,0.0,0.0,0.0,0.0,0.0,-0.2232,-0.2996,0.0,0.0,0.0,0.0,1.8369,1.8601,1.8301,1.8359,1.8682,1.8901,1.8997,1.9301,1.9511,1.9551,1.8924,1.7171,1.6376,1.6125,1.4281,1.3307,1.326,1.3353,1.3353,1.3293,1.3287,1.3061,1.2769,1.3133,1.3113,1.3028,1.3107,1.3153,1.3106,1.2969,1.3087,1.287,1.2061,1.1582,1.1358,0.949,0.8036,0.7231,0.686,0.6773,0.6736,0.6722,0.6698,0.6569,0.6575,0.4322,0.0,0.0,0.0,0.0,0.0,0.0,0.0,0.0,0.0,0.0,0.0,0.0,0.0,0.0,0.0,0.0,0.0,0.0,0.3376,0.567,0.7111,0.7078,0.6843,0.6873,0.6863,0.6777,0.6816,0.6943,0.684,0.4889,0.1961,0.0506,0.1941,0.5605,0.4486,0.5236,0.5978,0.6646,0.6459,0.6607,0.6737,0.6723,0.6671,0.6542,0.5387,0.3414,0.0,0.0,0.0,0.0,0.0,0.0,0.0,0.0,0.0,0.0,0.0,0.0,0.0,0.0,0.0,0.0,0.0,0.0,0.0,0.0,0.0,0.0,0.0,1.9072,1.9141,1.9053,1.9072,1.9141,1.9232,1.9291,1.9336,1.9742,1.9879,1.9383,1.783,1.6975,1.6665,1.4844,1.3781,1.3594,1.3741,1.3895,1.3895,1.3901,1.3895,1.3685,1.3837,1.3691,1.3426,1.3227,1.3227,1.3233,1.3366,1.3306,1.3154,1.2708,1.1914,1.0416,0.9386,0.8182,0.7321,0.7066,0.6966,0.6892,0.6963,0.6831,0.6659,0.6649,0.4444,0.0,0.0,0.0,0.0,0.0,0.0,0.0,0.0,0.0,0.0,0.0,0.0,0.0,0.0,0.0,0.0,0.0,0.106,0.3364,0.5775,0.6949,0.7143,0.7021,0.6994,0.7078,0.7001,0.7058,0.7048,0.7085,0.6681,0.5478,0.3869,0.2982,0.2807,0.4655,0.6499,0.6919,0.6977,0.6841,0.6756,0.6759,0.6874,0.6787,0.678,0.5309,0.3473,0.0,0.0,0.0,0.0,0.0,0.0,0.0,0.0,0.0,0.0,0.0,0.0,0.0,0.0,0.0,0.0,0.0,0.0,0.0,0.0,0.0,0.0,0.0,1.9404,1.9551,1.9365,1.9404,1.9561,1.959,1.9687,1.9902,2.0107,2.0215,1.9937,1.8717,1.778,1.6973,1.5531,1.4539,1.3991,1.4001,1.4082,1.4068,1.4075,1.4082,1.4062,1.4096,1.3988,1.3804,1.3722,1.3621,1.3621,1.3702,1.3743,1.3532,1.2934,1.2484,1.12,0.9409,0.7819,0.726,0.7088,0.7099,0.7041,0.7027,0.701,0.684,0.684,0.5553,0.0,0.0,0.0,0.0,0.0,0.0,0.0,0.0,0.0,0.0,0.0,0.0,0.0,0.0,0.0,0.0,0.0,0.0,0.4291,0.6542,0.6982,0.7146,0.7139,0.7139,0.7139,0.7139,0.7139,0.7139,0.7139,0.7146,0.6887,0.5902,0.4914,0.4013,0.5708,0.6669,0.7068,0.7107,0.7101,0.6946,0.6946,0.697,0.6881,0.6688,0.5423,0.3662,0.1407,0.0,0.0,0.0,0.0,0.0,0.0,0.0,0.0,0.0,0.0,0.0,0.0,0.0,0.0,0.0,0.0,0.0,0.0,0.0,0.0,0.0,0.0,1.9687,1.998,1.9629,1.9687,1.998,2.001,2.0195,2.0508,2.0644,2.0664,2.0537,1.958,1.8652,1.7679,1.6467,1.5295,1.4484,1.4242,1.4315,1.4117,1.4117,1.4216,1.4282,1.4347,1.4314,1.4208,1.4062,1.4035,1.4035,1.4128,1.4095,1.3867,1.2936,1.2893,1.2775,1.0168,0.769,0.7262,0.7227,0.7161,0.7141,0.7138,0.7224,0.7217,0.7045,0.7098,0.5954,0.373,0.0,0.0,0.0,0.0,0.0,0.0,0.0,0.0,0.0,0.0,0.0,0.0,0.0,0.0,0.0,0.0,0.6166,0.7065,0.7128,0.7187,0.717,0.7139,0.7139,0.7139,0.7139,0.7139,0.7139,0.7139,0.7143,0.7068,0.6713,0.6802,0.6618,0.6956,0.7129,0.7105,0.7126,0.7139,0.7136,0.7024,0.7021,0.6698,0.5601,0.4097,0.1949,0.0,0.0,0.0,0.0,0.0,0.0,0.0,0.0,0.0,0.0,0.0,0.0,0.0,0.0,0.0,0.0,0.0,0.0,0.0,0.0,0.0,0.0,2.0391,2.0449,2.0381,2.04,2.0459,2.0459,2.0537,2.0625,2.0996,2.1123,2.0992,2.0355,1.9942,1.9115,1.7447,1.5995,1.4994,1.4716,1.4546,1.4248,1.4235,1.4337,1.4811,1.4804,1.4851,1.4676,1.4416,1.4168,1.4208,1.4309,1.4342,1.4109,1.3787,1.3926,1.3416,1.153,0.9047,0.7458,0.7336,0.7379,0.7379,0.7475,0.7475,0.7475,0.7287,0.7237,0.7366,0.6605,0.4426,0.0,0.0,0.0,0.0,0.0,0.0,0.0,0.0,0.0,0.0,0.0,0.0,0.0,0.3679,0.5947,0.7297,0.7428,0.7343,0.7288,0.7217,0.7149,0.7139,0.7074,0.7153,0.7149,0.7084,0.7173,0.717,0.7183,0.7197,0.7217,0.719,0.7149,0.7143,0.7139,0.7139,0.7139,0.7139,0.7054,0.7105,0.6903,0.6355,0.4631,0.2685,0.0,0.0,0.0,0.0,0.0,0.0,0.0,0.0,0.0,0.0,0.0,0.0,0.0,0.0,0.0,0.0,0.0,0.0,0.0,0.0,0.0,0.0,2.125,2.124,2.125,2.125,2.125,2.124,2.124,2.1279,2.1475,2.1572,2.1457,2.117,2.0307,1.9264,1.8235,1.6698,1.5418,1.497,1.486,1.4558,1.4558,1.486,1.5383,1.539,1.517,1.4993,1.4669,1.4536,1.4556,1.4669,1.4648,1.4477,1.4506,1.4385,1.3767,1.237,1.0122,0.8155,0.765,0.7701,0.7701,0.7701,0.7604,0.76,0.7516,0.7445,0.76,0.7638,0.6599,0.4126,0.0,0.1141,0.1986,0.3001,0.2856,0.0,0.0,0.0,0.0,0.0,0.0,0.0,0.6789,0.7664,0.7695,0.7539,0.7461,0.7377,0.7238,0.7075,0.7082,0.7165,0.7111,0.7174,0.7181,0.7272,0.737,0.7366,0.7353,0.7322,0.7241,0.719,0.7143,0.7139,0.7139,0.7139,0.7139,0.7149,0.7071,0.6707,0.6248,0.417,0.0,0.0,0.0,0.0,0.0,0.0,0.0,0.0,0.0,0.0,0.0,0.0,0.0,0.0,0.0,0.0,0.0,0.0,0.0,0.0,0.0,0.0,0.0,2.1894,2.1894,2.1894,2.1894,2.1894,2.1885,2.1865,2.1894,2.1973,2.2012,2.2031,2.2035,2.1118,1.96,1.8655,1.744,1.5318,1.5164,1.5184,1.519,1.519,1.547,1.5665,1.5749,1.5595,1.5335,1.5177,1.507,1.4923,1.5003,1.494,1.4883,1.4987,1.4936,1.4305,1.3576,1.0979,0.8897,0.8193,0.816,0.7977,0.7882,0.7689,0.7689,0.7784,0.7756,0.7838,0.779,0.7801,0.6449,0.4465,0.269,0.4714,0.6855,0.5931,0.244,0.1212,0.1023,0.0,0.0,0.272,0.5561,0.7406,0.7801,0.7808,0.7689,0.7584,0.7455,0.7319,0.7132,0.7132,0.7227,0.728,0.7343,0.7473,0.749,0.7563,0.7546,0.7533,0.7458,0.7326,0.7265,0.7251,0.7118,0.7131,0.7143,0.7139,0.7153,0.6982,0.6177,0.5277,0.3129,0.0,0.0,0.0,0.0,0.0,0.0,0.0,0.0,0.0,0.0,0.0,0.0,0.0,0.0,0.0,0.0,0.0,0.0,0.0,0.0,0.0,0.0,0.0,2.1894,2.1894,2.1904,2.1894,2.1924,2.1943,2.1914,2.1973,2.2305,2.2441,2.2461,2.2793,2.265,2.172,1.9928,1.7972,1.6327,1.5645,1.5625,1.5611,1.5631,1.5638,1.5799,1.5839,1.5738,1.5605,1.5651,1.5411,1.5204,1.5264,1.5232,1.516,1.5431,1.5597,1.5304,1.4899,1.2805,0.9208,0.9174,0.9037,0.816,0.796,0.796,0.7963,0.7963,0.796,0.7977,0.7946,0.798,0.7905,0.7409,0.7102,0.7627,0.7733,0.7865,0.6546,0.5379,0.4549,0.5703,0.4651,0.3726,0.5741,0.6843,0.7697,0.7906,0.7845,0.7729,0.7594,0.7473,0.7282,0.7279,0.757,0.7782,0.7813,0.7668,0.7651,0.7736,0.7723,0.7709,0.7682,0.7577,0.7472,0.7407,0.7262,0.7115,0.7118,0.7149,0.7088,0.6754,0.5882,0.4172,0.1911,0.0,0.0,0.0,0.0,0.0,0.0,0.0,0.0,0.0,0.0,0.0,0.0,0.0,0.0,0.0,0.0,0.0,0.0,0.0,0.0,0.0,0.0,0.0,2.2598,2.2598,2.2598,2.2598,2.2598,2.2598,2.2598,2.2637,2.2783,2.2861,2.2891,2.3037,2.2765,2.1756,1.9588,1.7948,1.685,1.6109,1.5825,1.5825,1.5825,1.5825,1.5812,1.5825,1.5825,1.5825,1.5818,1.5725,1.5531,1.5531,1.5531,1.5538,1.5644,1.5798,1.5832,1.5836,1.4623,1.2394,1.0436,0.8689,0.8127,0.8038,0.8038,0.8038,0.8038,0.8038,0.8038,0.8038,0.8041,0.7952,0.7952,0.7955,0.7959,0.7955,0.7922,0.7878,0.7009,0.6851,0.7498,0.6696,0.6263,0.6232,0.7267,0.7898,0.8031,0.7984,0.7872,0.7832,0.7719,0.7525,0.7426,0.762,0.7873,0.7907,0.7904,0.7914,0.7818,0.7848,0.7879,0.7858,0.7828,0.7712,0.7607,0.7456,0.7303,0.7224,0.7279,0.7211,0.6492,0.5305,0.3261,0.0746,0.0,0.0,0.0,0.0,0.0,0.0,0.0,0.0,0.0,0.0,0.0,0.0,0.0,0.0,0.0,0.0,0.0,0.0,0.0,0.0,0.0,0.0,0.0,2.3144,2.3144,2.3144,2.3144,2.3144,2.3144,2.3125,2.3125,2.3115,2.3125,2.3144,2.3047,2.2403,2.1123,1.9314,1.8141,1.7591,1.6386,1.592,1.5825,1.5825,1.5825,1.5825,1.5825,1.5825,1.5825,1.5825,1.5792,1.5805,1.5805,1.5792,1.5825,1.5805,1.5825,1.5845,1.5701,1.5025,1.3653,1.0036,0.8283,0.8028,0.8038,0.8038,0.8038,0.8038,0.8038,0.8038,0.8038,0.8038,0.8038,0.8041,0.8041,0.8045,0.8041,0.8041,0.8021,0.7595,0.7674,0.7933,0.7723,0.798,0.8028,0.7962,0.8041,0.8038,0.8035,0.8011,0.7973,0.7868,0.7768,0.7764,0.7768,0.7808,0.7963,0.8001,0.8028,0.8031,0.7991,0.797,0.7957,0.7936,0.7936,0.7841,0.777,0.7597,0.7419,0.7406,0.723,0.6378,0.5047,0.3133,0.0,0.0,0.0,0.0,0.0,0.0,0.0,0.0,0.0,0.0,0.0,0.0,0.0,0.0,0.0,0.0,0.0,0.0,0.0,0.0,0.0,0.0,0.0,0.0,2.3144,2.3144,2.3144,2.3144,2.3144,2.3144,2.3144,2.3144,2.3144,2.3144,2.3144,2.3047,2.2492,2.1302,2.0124,1.8864,1.7777,1.6386,1.6001,1.5906,1.5825,1.5825,1.5825,1.5825,1.5825,1.5825,1.5825,1.5825,1.5825,1.5825,1.5825,1.5825,1.5825,1.5825,1.5832,1.5757,1.4694,1.3022,0.9832,0.8379,0.8219,0.8038,0.8038,0.8038,0.8038,0.8038,0.8038,0.8038,0.8038,0.8038,0.8038,0.8038,0.8038,0.8038,0.8038,0.8038,0.8038,0.8024,0.8007,0.8004,0.8024,0.8038,0.8045,0.8045,0.8038,0.8038,0.8021,0.8004,0.7977,0.7991,0.7902,0.8024,0.7912,0.7922,0.8038,0.8038,0.8038,0.8035,0.8021,0.8031,0.8024,0.8004,0.7997,0.7906,0.7841,0.7661,0.6362,0.6179,0.6083,0.5021,0.3268,0.0,0.0,0.0,0.0,0.0,0.0,0.0,0.0,0.0,0.0,0.0,0.0,0.0,0.0,0.0,0.0,0.0,0.0,0.0,0.0,0.0,0.0,0.0,0.0,2.3144,2.3144,2.3144,2.3144,2.3144,2.3144,2.3144,2.3144,2.3144,2.3144,2.3144,2.3047,2.2862,2.212,2.1203,2.0395,1.967,1.777,1.6786,1.6021,1.5853,1.5818,1.5825,1.5838,1.5825,1.5852,1.5845,1.5825,1.5825,1.5885,1.5832,1.5825,1.5879,1.5825,1.5825,1.573,1.4657,1.3086,1.0914,0.9555,0.9106,0.8333,0.8038,0.8038,0.8038,0.8038,0.8038,0.8038,0.8038,0.8038,0.8038,0.8038,0.8038,0.8038,0.8038,0.8038,0.8038,0.8038,0.8038,0.8038,0.8038,0.8038,0.8038,0.8038,0.8038,0.8038,0.8038,0.8035,0.8038,0.8038,0.8038,0.8035,0.8035,0.8038,0.8038,0.8038,0.8038,0.8038,0.8038,0.8038,0.8038,0.8028,0.8031,0.8024,0.7865,0.771,0.6293,0.5289,0.5391,0.4608,0.2738,0.0,0.0,0.0,0.0,0.0,0.0,0.0,0.0,0.0,0.0,0.0,0.0,0.0,0.0,0.0,0.0,0.0,0.0,0.0,0.0,0.0,0.0,0.0,0.0,2.3144,2.3144,2.3144,2.3144,2.3144,2.3144,2.3144,2.3144,2.3144,2.3144,2.3144,2.3144,2.3144,2.2775,2.1845,2.1293,2.0576,1.9115,1.7365,1.6528,1.6202,1.6042,1.5919,1.589,1.6052,1.6052,1.6092,1.6126,1.6152,1.6099,1.6139,1.6146,1.6079,1.6052,1.5825,1.573,1.5146,1.3669,1.2104,1.064,0.9899,0.8726,0.8038,0.8038,0.8038,0.8038,0.8038,0.8038,0.8038,0.8038,0.8038,0.8038,0.8038,0.8038,0.8038,0.8038,0.8038,0.8038,0.8038,0.8038,0.8038,0.8038,0.8038,0.8038,0.8038,0.8038,0.8038,0.8038,0.8038,0.8038,0.8038,0.8038,0.8038,0.8038,0.8038,0.8038,0.8038,0.8038,0.8038,0.8038,0.8038,0.8038,0.8038,0.8038,0.7925,0.7888,0.7378,0.6168,0.5485,0.4189,0.1797,0.0,0.0,0.0,0.0,0.0,0.0,0.0,0.0,0.0,0.0,0.0,0.0,0.0,0.0,0.0,0.0,0.0,0.0,0.0,0.0,0.0,0.0,0.0,0.0,2.3144,2.3144,2.3144,2.3144,2.3144,2.3144,2.3144,2.3144,2.3144,2.3144,2.3144,2.3144,2.3174,2.2911,2.2124,2.1805,2.1491,2.0161,1.8542,1.7441,1.6985,1.6798,1.6236,1.6064,1.6451,1.6613,1.6587,1.6526,1.6607,1.6533,1.6573,1.6587,1.65,1.6366,1.5892,1.5845,1.5159,1.3986,1.2646,1.1399,1.019,0.892,0.8137,0.8038,0.8038,0.8038,0.8038,0.8038,0.8038,0.8038,0.8038,0.8038,0.8038,0.8038,0.8038,0.8038,0.8038,0.8038,0.8038,0.8038,0.8038,0.8038,0.8038,0.8038,0.8038,0.8038,0.8038,0.8038,0.8038,0.8038,0.8038,0.8038,0.8038,0.8038,0.8038,0.8038,0.8038,0.8038,0.8038,0.8038,0.8038,0.8038,0.8038,0.8041,0.7952,0.7952,0.7965,0.7269,0.6258,0.4232,0.1912,0.0,0.0,0.0,0.0,0.0,0.0,0.0,0.0,0.0,0.0,0.0,0.0,0.0,0.0,0.0,0.0,0.0,0.0,0.0,0.0,0.0,0.0,0.0,0.0,2.3144,2.3144,2.3144,2.3144,2.3144,2.3144,2.3144,2.3144,2.3144,2.3144,2.3144,2.3144,2.334,2.3299,2.3217,2.2943,2.2887,2.1062,1.9613,2.0338,1.852,1.6701,1.619,1.6441,1.6853,1.7027,1.6948,1.6747,1.668,1.6767,1.6727,1.6707,1.6888,1.672,1.6572,1.6505,1.6157,1.5382,1.397,1.2553,1.1203,0.9225,0.8048,0.8052,0.8052,0.7949,0.8041,0.8038,0.8038,0.8038,0.8038,0.8038,0.8038,0.8038,0.8038,0.8038,0.8038,0.8038,0.8038,0.8038,0.8038,0.8038,0.8038,0.8038,0.8038,0.8038,0.8038,0.8038,0.8038,0.8038,0.8038,0.8038,0.8038,0.8038,0.8038,0.8038,0.8038,0.8038,0.8038,0.8038,0.8038,0.8038,0.8038,0.8038,0.7949,0.7952,0.7955,0.7969,0.7163,0.5031,0.0,0.0,0.0,0.0,0.0,0.0,0.0,0.0,0.0,0.0,0.0,0.0,0.0,0.0,0.0,0.0,0.0,0.0,0.0,0.0,0.0,0.0,0.0,0.0,0.0,2.3369,2.3379,2.3525,2.3574,2.3525,2.3271,2.3144,2.3144,2.3144,2.3213,2.335,2.3497,2.3722,2.3916,2.4033,2.4092,2.422,2.2878,2.1069,2.2092,2.0152,1.8233,1.7299,1.7123,1.7475,1.7611,1.7238,1.7034,1.7068,1.7027,1.7048,1.7068,1.7123,1.7156,1.7069,1.6941,1.6713,1.6064,1.5053,1.3813,1.1949,0.9883,0.8153,0.8136,0.8019,0.8002,0.7959,0.8041,0.8041,0.8045,0.8041,0.8038,0.8038,0.8038,0.8038,0.8038,0.8038,0.8038,0.8038,0.8038,0.8038,0.8038,0.8038,0.8038,0.8038,0.8038,0.8038,0.8038,0.8038,0.8038,0.8038,0.8038,0.8038,0.8038,0.8038,0.8038,0.8038,0.8038,0.8038,0.8038,0.8052,0.8048,0.8041,0.8038,0.8041,0.8041,0.8041,0.7965,0.7985,0.6139,0.3917,0.0,0.0,0.0,0.0,0.0,0.0,0.0,0.0,0.0,0.0,0.0,0.0,0.0,0.0,0.0,0.0,0.0,0.0,0.0,0.0,0.0,0.0,0.2825,0.6366,2.3809,2.3867,2.4248,2.4375,2.4258,2.3574,2.3242,2.3125,2.3115,2.3349,2.3809,2.4277,2.4414,2.4385,2.4434,2.4502,2.4404,2.4105,2.3024,2.1847,2.1383,1.9976,1.9152,1.8868,1.8344,1.7832,1.7482,1.7388,1.7535,1.7435,1.7448,1.7502,1.7435,1.7428,1.7405,1.7217,1.6955,1.6572,1.6289,1.488,1.2988,1.0092,0.8918,0.8582,0.8364,0.8113,0.8056,0.8099,0.8082,0.8065,0.8048,0.8041,0.8038,0.8038,0.8038,0.8052,0.8062,0.8075,0.8006,0.8019,0.7982,0.7999,0.8075,0.8055,0.8038,0.8038,0.8038,0.8038,0.8038,0.8038,0.8038,0.8038,0.8038,0.8038,0.8038,0.8038,0.8038,0.8038,0.8038,0.8048,0.8072,0.8075,0.8062,0.8055,0.8042,0.8126,0.8147,0.8187,0.818,0.7985,0.5639,0.0,0.0,0.0,0.0,0.0,0.0,0.0,0.0,0.0,0.0,0.0,0.0,0.0,0.0,0.0,0.0,0.0,0.0,0.0,0.0,0.0,0.0908,0.363,0.657,2.4228,2.4258,2.4375,2.4424,2.4385,2.416,2.4043,2.3942,2.3444,2.353,2.4248,2.4985,2.5103,2.4873,2.4883,2.5068,2.4833,2.4513,2.4347,2.3691,2.2902,2.2889,2.2078,2.0846,1.9155,1.7963,1.762,1.7609,1.7575,1.7589,1.7589,1.7575,1.7589,1.7589,1.7528,1.7526,1.7318,1.7094,1.7141,1.5863,1.3815,1.0936,1.0071,0.9549,0.872,0.8464,0.8326,0.8238,0.8214,0.8201,0.8096,0.8048,0.8038,0.8045,0.8065,0.8302,0.8323,0.8245,0.8117,0.8243,0.8306,0.8116,0.8099,0.8126,0.8082,0.8052,0.8052,0.8038,0.8038,0.8038,0.8038,0.8038,0.7959,0.7975,0.7982,0.7992,0.7999,0.8019,0.8019,0.8032,0.8153,0.8167,0.8147,0.8133,0.821,0.8272,0.8262,0.8299,0.8292,0.8099,0.7541,0.4671,0.0,0.0,0.0,0.0,0.0,0.0,0.0,0.0,0.0,0.0,0.0,0.0,0.0,0.0,0.0,0.0,0.0,0.0,0.0,0.0,0.2216,0.4843,0.6768,2.5123,2.4707,2.4873,2.4941,2.4941,2.4941,2.4941,2.4759,2.397,2.4015,2.4687,2.5415,2.555,2.5398,2.5342,2.5459,2.5577,2.536,2.5154,2.4874,2.4307,2.4588,2.4154,2.2432,1.9867,1.8464,1.7707,1.7729,1.7655,1.7595,1.7589,1.7589,1.7589,1.7589,1.7569,1.7535,1.7475,1.7506,1.7251,1.6522,1.4688,1.2576,1.195,1.054,0.9493,0.8843,0.8598,0.8491,0.8364,0.8353,0.8136,0.8116,0.8113,0.8018,0.8133,0.8457,0.857,0.8387,0.8118,0.8347,0.8314,0.8381,0.835,0.8313,0.8208,0.814,0.8082,0.8038,0.8038,0.8038,0.8038,0.8045,0.7985,0.8022,0.8042,0.8059,0.8086,0.8116,0.8129,0.8143,0.8265,0.8289,0.834,0.8327,0.8361,0.8404,0.8488,0.8512,0.8404,0.814,0.8117,0.6858,0.5382,0.0,0.2771,0.174,0.0,0.0,0.0,0.0,0.1126,0.0,0.0,0.0,0.0,0.0,0.0,0.0,0.0,0.0,0.4094,0.4498,0.4583,0.5763,0.7184,2.631,2.5336,2.5566,2.5664,2.5723,2.5674,2.5674,2.5644,2.4808,2.4746,2.5192,2.551,2.5707,2.5605,2.5635,2.5723,2.5937,2.5954,2.5877,2.5839,2.6145,2.6368,2.5531,2.3808,2.1102,1.8929,1.809,1.8406,1.7869,1.7756,1.7796,1.7635,1.7649,1.7649,1.7595,1.7589,1.7549,1.7535,1.7417,1.695,1.6007,1.5022,1.4131,1.1709,1.015,0.9044,0.8871,0.8723,0.8499,0.8391,0.8364,0.8344,0.8226,0.8115,0.8344,0.8496,0.872,0.8547,0.8358,0.8488,0.8663,0.8628,0.8604,0.8462,0.8364,0.8156,0.7991,0.8019,0.8116,0.8016,0.8016,0.8029,0.8059,0.8129,0.818,0.8309,0.8343,0.836,0.8364,0.8387,0.8435,0.8452,0.8435,0.852,0.8511,0.8652,0.8663,0.8789,0.8663,0.8315,0.8269,0.8374,0.7368,0.6081,0.5459,0.4715,0.4845,0.0,0.4759,0.4418,0.3847,0.5617,0.0,0.6357,0.4264,0.1777,0.0,0.0,0.0,0.0,0.482,0.6673,0.7352,0.7388,0.7503,2.7233,2.6886,2.6061,2.5732,2.5732,2.5732,2.5732,2.5723,2.5537,2.5469,2.5566,2.5712,2.5771,2.582,2.585,2.5967,2.625,2.6475,2.6526,2.6608,2.6943,2.7363,2.7149,2.524,2.2315,2.0339,1.942,1.915,1.8408,1.8183,1.8136,1.8084,1.7923,1.7842,1.7635,1.7629,1.7629,1.7589,1.7582,1.7496,1.698,1.5968,1.4714,1.3485,1.2261,1.0754,1.015,0.9337,0.8887,0.8648,0.853,0.8489,0.8479,0.8594,0.8659,0.8849,0.888,0.8703,0.8754,0.8659,0.8848,0.879,0.8752,0.8577,0.8499,0.8206,0.8024,0.8156,0.8106,0.8004,0.8008,0.8126,0.816,0.8247,0.8327,0.8465,0.8608,0.8615,0.8506,0.855,0.8608,0.8601,0.8577,0.8618,0.871,0.8771,0.8815,0.8835,0.8811,0.8662,0.8525,0.8601,0.8744,0.7868,0.7472,0.7074,0.6883,0.7088,0.7074,0.6817,0.635,0.7392,0.8553,0.8496,0.7015,0.4262,0.1813,0.0,0.0,0.4072,0.4799,0.6355,0.7722,0.8092,0.8037,2.8143,2.7494,2.6197,2.5732,2.5732,2.5732,2.5732,2.5655,2.5683,2.578,2.6035,2.6182,2.6261,2.6269,2.6299,2.6357,2.668,2.6885,2.6914,2.7033,2.7389,2.7908,2.7324,2.6328,2.2848,2.0595,1.9787,1.9236,1.8648,1.8346,1.8227,1.8263,1.8203,1.7961,1.7709,1.7662,1.7716,1.7589,1.7615,1.7675,1.7729,1.6919,1.5861,1.4984,1.4019,1.2625,1.1281,1.0337,0.9675,0.9106,0.8716,0.871,0.871,0.8821,0.8852,0.89,0.8934,0.8958,0.8913,0.8923,0.8899,0.8828,0.8808,0.8747,0.8754,0.8562,0.8441,0.8361,0.816,0.804,0.8253,0.837,0.8233,0.821,0.8372,0.8625,0.8693,0.8743,0.874,0.8754,0.8788,0.8788,0.8774,0.8781,0.8855,0.8855,0.8923,0.8927,0.8933,0.8937,0.8815,0.8733,0.8887,0.8901,0.8419,0.8323,0.8327,0.874,0.8918,0.835,0.7663,0.8236,0.8846,0.8707,0.8009,0.6298,0.4118,0.27,0.3914,0.6819,0.6421,0.5797,0.7192,0.8594,0.8465,2.8958,2.7673,2.6476,2.5917,2.5927,2.5742,2.5781,2.5771,2.5698,2.6068,2.6592,2.6991,2.7068,2.7045,2.7012,2.7051,2.7148,2.7314,2.7311,2.7544,2.7941,2.8105,2.7825,2.6812,2.3945,2.1541,2.0236,1.9466,1.8718,1.8579,1.8572,1.8577,1.8366,1.8156,1.7945,1.7846,1.8016,1.7876,1.7862,1.7909,1.7876,1.7816,1.6882,1.6178,1.563,1.4515,1.3103,1.1878,1.1008,0.9885,0.9106,0.8872,0.8876,0.8866,0.8879,0.8906,0.8903,0.8916,0.8937,0.8937,0.893,0.8923,0.8937,0.8933,0.892,0.8859,0.8737,0.8548,0.8242,0.8187,0.8401,0.8526,0.8391,0.836,0.8625,0.8771,0.8852,0.8937,0.8947,0.8947,0.894,0.8944,0.893,0.894,0.8937,0.8937,0.8937,0.8937,0.8937,0.8937,0.8882,0.8852,0.8828,0.8866,0.891,0.8889,0.8862,0.8866,0.8934,0.8934,0.8913,0.8949,0.8921,0.8852,0.8022,0.6942,0.6738,0.5845,0.7689,0.8853,0.8097,0.6999,0.7651,0.8737,0.8686,3.0135,2.8947,2.7767,2.722,2.703,2.611,2.5928,2.6221,2.5843,2.6338,2.7246,2.7772,2.7732,2.7021,2.7012,2.7168,2.7549,2.7715,2.793,2.8164,2.8223,2.8271,2.8203,2.7666,2.5737,2.3599,2.1549,2.0651,1.9373,1.9085,1.9186,1.9118,1.9217,1.8955,1.8581,1.8507,1.835,1.8223,1.8217,1.829,1.8154,1.8101,1.7925,1.7657,1.7708,1.6765,1.5566,1.4061,1.2557,1.1167,0.9772,0.9296,0.896,0.8967,0.8974,0.9011,0.9005,0.8981,0.8988,0.8977,0.8977,0.8937,0.8937,0.8937,0.893,0.8927,0.8849,0.8835,0.8642,0.8461,0.8669,0.8776,0.8723,0.8709,0.8886,0.8899,0.8944,0.9028,0.9086,0.9066,0.9049,0.9015,0.896,0.8957,0.8937,0.8937,0.8937,0.894,0.8971,0.896,0.8947,0.8967,0.8974,0.8937,0.893,0.8927,0.891,0.893,0.8933,0.8899,0.8886,0.8906,0.8896,0.8866,0.8559,0.7808,0.7718,0.7362,0.8171,0.8863,0.886,0.8585,0.8903,0.8869,0.8804]}]]